<?xml version='1.0' encoding='UTF-8'?><gpx version="1.1" creator="JPX - https://github.com/jenetics/jpx" xmlns="http://www.topografix.com/GPX/1/1"><trk><trkseg><trkpt lat="45.3576285" lon="9.783861"><ele>73.0</ele><time>2026-04-20T16:15:52.501Z</time></trkpt><trkpt lat="45.3577107" lon="9.7838995"><ele>73.0</ele><time>2026-04-20T16:15:55.73Z</time></trkpt><trkpt lat="45.3574931" lon="9.7831296"><ele>73.0</ele><time>2026-04-20T16:15:58.079Z</time></trkpt><trkpt lat="45.3575617" lon="9.7830874"><ele>73.0</ele><time>2026-04-20T16:16:01.677Z</time></trkpt><trkpt lat="45.3574983" lon="9.78303"><ele>73.0</ele><time>2026-04-20T16:16:13.617Z</time></trkpt><trkpt lat="45.3574417" lon="9.782985"><ele>73.0</ele><time>2026-04-20T16:16:27.617Z</time></trkpt><trkpt lat="45.3572533" lon="9.7829433"><ele>73.0</ele><time>2026-04-20T16:16:35.617Z</time></trkpt><trkpt lat="45.3571883" lon="9.7829583"><ele>73.0</ele><time>2026-04-20T16:16:37.617Z</time></trkpt><trkpt lat="45.3576067" lon="9.78288"><ele>73.0</ele><time>2026-04-20T16:16:38.664Z</time></trkpt><trkpt lat="45.3571483" lon="9.7831067"><ele>73.0</ele><time>2026-04-20T16:16:40.114Z</time></trkpt><trkpt lat="45.3570583" lon="9.7830567"><ele>73.0</ele><time>2026-04-20T16:16:42.614Z</time></trkpt><trkpt lat="45.356975" lon="9.783055"><ele>73.0</ele><time>2026-04-20T16:16:44.614Z</time></trkpt><trkpt lat="45.3568867" lon="9.7830533"><ele>73.0</ele><time>2026-04-20T16:16:46.615Z</time></trkpt><trkpt lat="45.3568033" lon="9.78304"><ele>73.0</ele><time>2026-04-20T16:16:48.614Z</time></trkpt><trkpt lat="45.3566233" lon="9.7830533"><ele>73.0</ele><time>2026-04-20T16:16:53.614Z</time></trkpt><trkpt lat="45.3565367" lon="9.783065"><ele>73.0</ele><time>2026-04-20T16:16:56.614Z</time></trkpt><trkpt lat="45.3564483" lon="9.7830717"><ele>73.0</ele><time>2026-04-20T16:16:59.615Z</time></trkpt><trkpt lat="45.3563683" lon="9.78309"><ele>73.0</ele><time>2026-04-20T16:17:02.614Z</time></trkpt><trkpt lat="45.3562967" lon="9.7831067"><ele>73.0</ele><time>2026-04-20T16:17:05.614Z</time></trkpt><trkpt lat="45.3562167" lon="9.7831133"><ele>73.0</ele><time>2026-04-20T16:17:08.614Z</time></trkpt><trkpt lat="45.3561267" lon="9.7831233"><ele>73.0</ele><time>2026-04-20T16:17:11.614Z</time></trkpt><trkpt lat="45.3560067" lon="9.7830667"><ele>73.0</ele><time>2026-04-20T16:17:15.614Z</time></trkpt><trkpt lat="45.3559833" lon="9.7829617"><ele>73.0</ele><time>2026-04-20T16:17:17.614Z</time></trkpt><trkpt lat="45.355965" lon="9.7828583"><ele>73.0</ele><time>2026-04-20T16:17:19.614Z</time></trkpt><trkpt lat="45.3559483" lon="9.782755"><ele>73.0</ele><time>2026-04-20T16:17:21.614Z</time></trkpt><trkpt lat="45.3559317" lon="9.7826483"><ele>73.0</ele><time>2026-04-20T16:17:23.614Z</time></trkpt><trkpt lat="45.35592" lon="9.782545"><ele>73.0</ele><time>2026-04-20T16:17:25.614Z</time></trkpt><trkpt lat="45.3559067" lon="9.78243"><ele>73.0</ele><time>2026-04-20T16:17:27.614Z</time></trkpt><trkpt lat="45.3559" lon="9.7823083"><ele>73.0</ele><time>2026-04-20T16:17:29.614Z</time></trkpt><trkpt lat="45.355885" lon="9.7821867"><ele>73.0</ele><time>2026-04-20T16:17:31.614Z</time></trkpt><trkpt lat="45.35586" lon="9.7820483"><ele>73.0</ele><time>2026-04-20T16:17:33.614Z</time></trkpt><trkpt lat="45.3558333" lon="9.7817817"><ele>73.0</ele><time>2026-04-20T16:17:37.615Z</time></trkpt><trkpt lat="45.35582" lon="9.7816567"><ele>73.0</ele><time>2026-04-20T16:17:39.614Z</time></trkpt><trkpt lat="45.355795" lon="9.7815283"><ele>73.0</ele><time>2026-04-20T16:17:41.614Z</time></trkpt><trkpt lat="45.3557767" lon="9.7814017"><ele>73.0</ele><time>2026-04-20T16:17:43.614Z</time></trkpt><trkpt lat="45.3557683" lon="9.7812483"><ele>73.0</ele><time>2026-04-20T16:17:45.614Z</time></trkpt><trkpt lat="45.3557383" lon="9.7811217"><ele>73.0</ele><time>2026-04-20T16:17:47.614Z</time></trkpt><trkpt lat="45.3556983" lon="9.7810017"><ele>73.0</ele><time>2026-04-20T16:17:49.614Z</time></trkpt><trkpt lat="45.355675" lon="9.7808733"><ele>73.0</ele><time>2026-04-20T16:17:51.614Z</time></trkpt><trkpt lat="45.35565" lon="9.780745"><ele>73.0</ele><time>2026-04-20T16:17:53.614Z</time></trkpt><trkpt lat="45.3556317" lon="9.7806233"><ele>73.0</ele><time>2026-04-20T16:17:55.614Z</time></trkpt><trkpt lat="45.355595" lon="9.780405"><ele>73.0</ele><time>2026-04-20T16:17:59.614Z</time></trkpt><trkpt lat="45.3555867" lon="9.780315"><ele>73.0</ele><time>2026-04-20T16:18:01.614Z</time></trkpt><trkpt lat="45.3555583" lon="9.7802333"><ele>73.0</ele><time>2026-04-20T16:18:03.614Z</time></trkpt><trkpt lat="45.3555467" lon="9.7801283"><ele>73.0</ele><time>2026-04-20T16:18:05.614Z</time></trkpt><trkpt lat="45.355535" lon="9.7799967"><ele>73.0</ele><time>2026-04-20T16:18:07.614Z</time></trkpt><trkpt lat="45.3554983" lon="9.77986"><ele>73.0</ele><time>2026-04-20T16:18:09.614Z</time></trkpt><trkpt lat="45.3554717" lon="9.7797267"><ele>73.0</ele><time>2026-04-20T16:18:11.614Z</time></trkpt><trkpt lat="45.3554583" lon="9.7796"><ele>73.0</ele><time>2026-04-20T16:18:13.615Z</time></trkpt><trkpt lat="45.3554383" lon="9.7794767"><ele>73.0</ele><time>2026-04-20T16:18:15.614Z</time></trkpt><trkpt lat="45.355425" lon="9.77936"><ele>73.0</ele><time>2026-04-20T16:18:17.614Z</time></trkpt><trkpt lat="45.3554017" lon="9.7790767"><ele>73.0</ele><time>2026-04-20T16:18:21.615Z</time></trkpt><trkpt lat="45.3553767" lon="9.77894"><ele>73.0</ele><time>2026-04-20T16:18:23.614Z</time></trkpt><trkpt lat="45.3553633" lon="9.7788083"><ele>73.0</ele><time>2026-04-20T16:18:25.614Z</time></trkpt><trkpt lat="45.355365" lon="9.7786633"><ele>73.0</ele><time>2026-04-20T16:18:27.614Z</time></trkpt><trkpt lat="45.3553967" lon="9.7785433"><ele>73.0</ele><time>2026-04-20T16:18:29.614Z</time></trkpt><trkpt lat="45.3554533" lon="9.7784033"><ele>73.0</ele><time>2026-04-20T16:18:31.614Z</time></trkpt><trkpt lat="45.3554833" lon="9.7782733"><ele>73.0</ele><time>2026-04-20T16:18:33.614Z</time></trkpt><trkpt lat="45.35553" lon="9.77816"><ele>73.0</ele><time>2026-04-20T16:18:35.614Z</time></trkpt><trkpt lat="45.3555933" lon="9.7780883"><ele>73.0</ele><time>2026-04-20T16:18:37.614Z</time></trkpt><trkpt lat="45.355655" lon="9.778"><ele>73.0</ele><time>2026-04-20T16:18:39.614Z</time></trkpt><trkpt lat="45.3565417" lon="9.7760867"><ele>73.0</ele><time>2026-04-20T16:19:40.619Z</time></trkpt><trkpt lat="45.3565483" lon="9.7759717"><ele>73.0</ele><time>2026-04-20T16:19:44.619Z</time></trkpt><trkpt lat="45.356565" lon="9.7758417"><ele>73.0</ele><time>2026-04-20T16:19:47.619Z</time></trkpt><trkpt lat="45.3565867" lon="9.7757017"><ele>73.0</ele><time>2026-04-20T16:19:50.618Z</time></trkpt><trkpt lat="45.3566117" lon="9.7755833"><ele>73.0</ele><time>2026-04-20T16:19:52.618Z</time></trkpt><trkpt lat="45.3566433" lon="9.7754567"><ele>73.0</ele><time>2026-04-20T16:19:54.618Z</time></trkpt><trkpt lat="45.356665" lon="9.7753217"><ele>73.0</ele><time>2026-04-20T16:19:56.618Z</time></trkpt><trkpt lat="45.3566833" lon="9.7751783"><ele>73.0</ele><time>2026-04-20T16:19:58.618Z</time></trkpt><trkpt lat="45.3567117" lon="9.7750467"><ele>73.0</ele><time>2026-04-20T16:20:00.618Z</time></trkpt><trkpt lat="45.3567367" lon="9.7749167"><ele>73.0</ele><time>2026-04-20T16:20:02.618Z</time></trkpt><trkpt lat="45.3567517" lon="9.7747817"><ele>73.16666666666666</ele><time>2026-04-20T16:20:04.618Z</time></trkpt><trkpt lat="45.3567917" lon="9.7746783"><ele>73.33333333333333</ele><time>2026-04-20T16:20:06.618Z</time></trkpt><trkpt lat="45.3568667" lon="9.77463"><ele>73.5</ele><time>2026-04-20T16:20:08.618Z</time></trkpt><trkpt lat="45.3569483" lon="9.7746417"><ele>73.66666666666667</ele><time>2026-04-20T16:20:10.618Z</time></trkpt><trkpt lat="45.357035" lon="9.77464"><ele>73.83333333333334</ele><time>2026-04-20T16:20:12.618Z</time></trkpt><trkpt lat="45.35712" lon="9.7746467"><ele>74.0</ele><time>2026-04-20T16:20:14.619Z</time></trkpt><trkpt lat="45.3572067" lon="9.7746483"><ele>74.0</ele><time>2026-04-20T16:20:16.618Z</time></trkpt><trkpt lat="45.3573017" lon="9.77466"><ele>74.0</ele><time>2026-04-20T16:20:18.619Z</time></trkpt><trkpt lat="45.35739" lon="9.774665"><ele>74.0</ele><time>2026-04-20T16:20:20.618Z</time></trkpt><trkpt lat="45.35749" lon="9.7746617"><ele>74.0</ele><time>2026-04-20T16:20:22.619Z</time></trkpt><trkpt lat="45.35759" lon="9.7746567"><ele>74.0</ele><time>2026-04-20T16:20:24.618Z</time></trkpt><trkpt lat="45.35769" lon="9.7746717"><ele>74.0</ele><time>2026-04-20T16:20:26.618Z</time></trkpt><trkpt lat="45.3577967" lon="9.7746783"><ele>74.0</ele><time>2026-04-20T16:20:28.618Z</time></trkpt><trkpt lat="45.357905" lon="9.77469"><ele>74.0</ele><time>2026-04-20T16:20:30.618Z</time></trkpt><trkpt lat="45.3580083" lon="9.774705"><ele>74.0</ele><time>2026-04-20T16:20:32.618Z</time></trkpt><trkpt lat="45.3581033" lon="9.7747133"><ele>74.0</ele><time>2026-04-20T16:20:34.618Z</time></trkpt><trkpt lat="45.3581883" lon="9.7747383"><ele>74.0</ele><time>2026-04-20T16:20:36.618Z</time></trkpt><trkpt lat="45.3582767" lon="9.7747467"><ele>74.0</ele><time>2026-04-20T16:20:38.618Z</time></trkpt><trkpt lat="45.358345" lon="9.774695"><ele>74.0</ele><time>2026-04-20T16:20:40.618Z</time></trkpt><trkpt lat="45.3583733" lon="9.7745883"><ele>74.0</ele><time>2026-04-20T16:20:42.618Z</time></trkpt><trkpt lat="45.3583717" lon="9.7744433"><ele>74.0</ele><time>2026-04-20T16:20:44.618Z</time></trkpt><trkpt lat="45.3583733" lon="9.7742967"><ele>74.0</ele><time>2026-04-20T16:20:46.618Z</time></trkpt><trkpt lat="45.3583733" lon="9.7741433"><ele>74.0</ele><time>2026-04-20T16:20:48.618Z</time></trkpt><trkpt lat="45.3583783" lon="9.773995"><ele>74.0</ele><time>2026-04-20T16:20:50.619Z</time></trkpt><trkpt lat="45.3583817" lon="9.7738483"><ele>74.0</ele><time>2026-04-20T16:20:52.618Z</time></trkpt><trkpt lat="45.3583867" lon="9.7737"><ele>74.0</ele><time>2026-04-20T16:20:54.618Z</time></trkpt><trkpt lat="45.358385" lon="9.77355"><ele>74.0</ele><time>2026-04-20T16:20:56.618Z</time></trkpt><trkpt lat="45.3583767" lon="9.7733933"><ele>74.0</ele><time>2026-04-20T16:20:58.618Z</time></trkpt><trkpt lat="45.358385" lon="9.7732517"><ele>74.0</ele><time>2026-04-20T16:21:00.618Z</time></trkpt><trkpt lat="45.358395" lon="9.7731"><ele>74.0</ele><time>2026-04-20T16:21:02.618Z</time></trkpt><trkpt lat="45.3583983" lon="9.7729433"><ele>74.0</ele><time>2026-04-20T16:21:04.618Z</time></trkpt><trkpt lat="45.3584033" lon="9.77279"><ele>73.8</ele><time>2026-04-20T16:21:06.618Z</time></trkpt><trkpt lat="45.3584033" lon="9.7726383"><ele>73.60000000000001</ele><time>2026-04-20T16:21:08.618Z</time></trkpt><trkpt lat="45.35841" lon="9.7724933"><ele>73.4</ele><time>2026-04-20T16:21:10.619Z</time></trkpt><trkpt lat="45.3584133" lon="9.7723333"><ele>73.2</ele><time>2026-04-20T16:21:12.618Z</time></trkpt><trkpt lat="45.3584133" lon="9.7721717"><ele>73.0</ele><time>2026-04-20T16:21:14.619Z</time></trkpt><trkpt lat="45.35841" lon="9.772005"><ele>72.8</ele><time>2026-04-20T16:21:16.618Z</time></trkpt><trkpt lat="45.3584133" lon="9.7718517"><ele>72.6</ele><time>2026-04-20T16:21:18.618Z</time></trkpt><trkpt lat="45.3584183" lon="9.7717"><ele>72.4</ele><time>2026-04-20T16:21:20.619Z</time></trkpt><trkpt lat="45.3584233" lon="9.7715467"><ele>72.2</ele><time>2026-04-20T16:21:22.619Z</time></trkpt><trkpt lat="45.358425" lon="9.771395"><ele>72.0</ele><time>2026-04-20T16:21:24.618Z</time></trkpt><trkpt lat="45.3584283" lon="9.771235"><ele>72.0</ele><time>2026-04-20T16:21:26.618Z</time></trkpt><trkpt lat="45.358435" lon="9.7710833"><ele>72.0</ele><time>2026-04-20T16:21:28.618Z</time></trkpt><trkpt lat="45.3584483" lon="9.7709283"><ele>72.0</ele><time>2026-04-20T16:21:30.618Z</time></trkpt><trkpt lat="45.3584483" lon="9.770775"><ele>72.0</ele><time>2026-04-20T16:21:32.618Z</time></trkpt><trkpt lat="45.3584517" lon="9.7706217"><ele>72.0</ele><time>2026-04-20T16:21:34.618Z</time></trkpt><trkpt lat="45.3584583" lon="9.77047"><ele>72.0</ele><time>2026-04-20T16:21:36.618Z</time></trkpt><trkpt lat="45.3584717" lon="9.770315"><ele>72.0</ele><time>2026-04-20T16:21:38.618Z</time></trkpt><trkpt lat="45.35848" lon="9.770165"><ele>72.0</ele><time>2026-04-20T16:21:40.618Z</time></trkpt><trkpt lat="45.3584933" lon="9.7700117"><ele>72.0</ele><time>2026-04-20T16:21:42.618Z</time></trkpt><trkpt lat="45.3585" lon="9.7698533"><ele>72.0</ele><time>2026-04-20T16:21:44.618Z</time></trkpt><trkpt lat="45.3585033" lon="9.7696967"><ele>72.0</ele><time>2026-04-20T16:21:46.618Z</time></trkpt><trkpt lat="45.3585117" lon="9.7695417"><ele>72.0</ele><time>2026-04-20T16:21:48.618Z</time></trkpt><trkpt lat="45.358515" lon="9.76938"><ele>72.0</ele><time>2026-04-20T16:21:50.618Z</time></trkpt><trkpt lat="45.358515" lon="9.76922"><ele>72.0</ele><time>2026-04-20T16:21:52.618Z</time></trkpt><trkpt lat="45.3585183" lon="9.76906"><ele>72.0</ele><time>2026-04-20T16:21:54.618Z</time></trkpt><trkpt lat="45.3585183" lon="9.7689133"><ele>72.2</ele><time>2026-04-20T16:21:56.618Z</time></trkpt><trkpt lat="45.3585183" lon="9.7687483"><ele>72.4</ele><time>2026-04-20T16:21:58.618Z</time></trkpt><trkpt lat="45.3585233" lon="9.76859"><ele>72.6</ele><time>2026-04-20T16:22:00.618Z</time></trkpt><trkpt lat="45.35853" lon="9.7684333"><ele>72.8</ele><time>2026-04-20T16:22:02.619Z</time></trkpt><trkpt lat="45.35853" lon="9.7682917"><ele>73.0</ele><time>2026-04-20T16:22:04.618Z</time></trkpt><trkpt lat="45.3585317" lon="9.7681567"><ele>73.0</ele><time>2026-04-20T16:22:06.618Z</time></trkpt><trkpt lat="45.3585283" lon="9.7680083"><ele>73.0</ele><time>2026-04-20T16:22:08.618Z</time></trkpt><trkpt lat="45.3585317" lon="9.7678483"><ele>73.0</ele><time>2026-04-20T16:22:10.618Z</time></trkpt><trkpt lat="45.3585433" lon="9.7677"><ele>73.0</ele><time>2026-04-20T16:22:12.618Z</time></trkpt><trkpt lat="45.3585517" lon="9.767535"><ele>73.0</ele><time>2026-04-20T16:22:14.618Z</time></trkpt><trkpt lat="45.358565" lon="9.7673767"><ele>72.8</ele><time>2026-04-20T16:22:16.618Z</time></trkpt><trkpt lat="45.3585767" lon="9.7672233"><ele>72.6</ele><time>2026-04-20T16:22:18.618Z</time></trkpt><trkpt lat="45.3585817" lon="9.7670717"><ele>72.4</ele><time>2026-04-20T16:22:20.618Z</time></trkpt><trkpt lat="45.3585817" lon="9.7669267"><ele>72.2</ele><time>2026-04-20T16:22:22.618Z</time></trkpt><trkpt lat="45.3585767" lon="9.7667833"><ele>72.0</ele><time>2026-04-20T16:22:24.618Z</time></trkpt><trkpt lat="45.3585833" lon="9.766645"><ele>72.0</ele><time>2026-04-20T16:22:26.618Z</time></trkpt><trkpt lat="45.358585" lon="9.7664983"><ele>72.0</ele><time>2026-04-20T16:22:28.617Z</time></trkpt><trkpt lat="45.3585933" lon="9.7663433"><ele>72.0</ele><time>2026-04-20T16:22:30.617Z</time></trkpt><trkpt lat="45.3585917" lon="9.76618"><ele>72.0</ele><time>2026-04-20T16:22:32.618Z</time></trkpt><trkpt lat="45.35859" lon="9.7660183"><ele>72.0</ele><time>2026-04-20T16:22:34.617Z</time></trkpt><trkpt lat="45.3585917" lon="9.7658633"><ele>72.2</ele><time>2026-04-20T16:22:36.617Z</time></trkpt><trkpt lat="45.3585967" lon="9.7657167"><ele>72.4</ele><time>2026-04-20T16:22:38.617Z</time></trkpt><trkpt lat="45.358605" lon="9.7655633"><ele>72.6</ele><time>2026-04-20T16:22:40.617Z</time></trkpt><trkpt lat="45.3586133" lon="9.7654067"><ele>72.8</ele><time>2026-04-20T16:22:42.617Z</time></trkpt><trkpt lat="45.3586233" lon="9.76525"><ele>73.0</ele><time>2026-04-20T16:22:44.617Z</time></trkpt><trkpt lat="45.3586367" lon="9.7650967"><ele>72.6</ele><time>2026-04-20T16:22:46.617Z</time></trkpt><trkpt lat="45.3586483" lon="9.7649367"><ele>72.19999999999999</ele><time>2026-04-20T16:22:48.617Z</time></trkpt><trkpt lat="45.3586567" lon="9.7647817"><ele>71.8</ele><time>2026-04-20T16:22:50.617Z</time></trkpt><trkpt lat="45.3586667" lon="9.76463"><ele>71.39999999999999</ele><time>2026-04-20T16:22:52.617Z</time></trkpt><trkpt lat="45.3586733" lon="9.76447"><ele>71.0</ele><time>2026-04-20T16:22:54.617Z</time></trkpt><trkpt lat="45.358675" lon="9.76431"><ele>71.0</ele><time>2026-04-20T16:22:56.618Z</time></trkpt><trkpt lat="45.3586783" lon="9.7641567"><ele>71.0</ele><time>2026-04-20T16:22:58.617Z</time></trkpt><trkpt lat="45.3586817" lon="9.76399"><ele>71.0</ele><time>2026-04-20T16:23:00.618Z</time></trkpt><trkpt lat="45.3586833" lon="9.763825"><ele>71.0</ele><time>2026-04-20T16:23:02.617Z</time></trkpt><trkpt lat="45.3586867" lon="9.7636683"><ele>71.75</ele><time>2026-04-20T16:23:04.618Z</time></trkpt><trkpt lat="45.3586917" lon="9.7635083"><ele>72.5</ele><time>2026-04-20T16:23:06.617Z</time></trkpt><trkpt lat="45.3586967" lon="9.763345"><ele>73.25</ele><time>2026-04-20T16:23:08.618Z</time></trkpt><trkpt lat="45.3587" lon="9.7631767"><ele>74.0</ele><time>2026-04-20T16:23:10.617Z</time></trkpt><trkpt lat="45.3587067" lon="9.763015"><ele>74.0</ele><time>2026-04-20T16:23:12.617Z</time></trkpt><trkpt lat="45.3587083" lon="9.7628583"><ele>74.0</ele><time>2026-04-20T16:23:14.617Z</time></trkpt><trkpt lat="45.3587133" lon="9.7626983"><ele>74.0</ele><time>2026-04-20T16:23:16.617Z</time></trkpt><trkpt lat="45.3587133" lon="9.7625433"><ele>74.0</ele><time>2026-04-20T16:23:18.618Z</time></trkpt><trkpt lat="45.3587183" lon="9.7623933"><ele>74.0</ele><time>2026-04-20T16:23:20.617Z</time></trkpt><trkpt lat="45.3587217" lon="9.7622433"><ele>73.75</ele><time>2026-04-20T16:23:22.617Z</time></trkpt><trkpt lat="45.35873" lon="9.7620883"><ele>73.5</ele><time>2026-04-20T16:23:24.617Z</time></trkpt><trkpt lat="45.3587383" lon="9.7619317"><ele>73.25</ele><time>2026-04-20T16:23:26.617Z</time></trkpt><trkpt lat="45.3587467" lon="9.7617633"><ele>73.0</ele><time>2026-04-20T16:23:28.617Z</time></trkpt><trkpt lat="45.35875" lon="9.7615983"><ele>72.75</ele><time>2026-04-20T16:23:30.617Z</time></trkpt><trkpt lat="45.358755" lon="9.761435"><ele>72.5</ele><time>2026-04-20T16:23:32.618Z</time></trkpt><trkpt lat="45.358755" lon="9.7612717"><ele>72.25</ele><time>2026-04-20T16:23:34.617Z</time></trkpt><trkpt lat="45.3587617" lon="9.7611067"><ele>72.0</ele><time>2026-04-20T16:23:36.617Z</time></trkpt><trkpt lat="45.3587717" lon="9.76094"><ele>72.0</ele><time>2026-04-20T16:23:38.617Z</time></trkpt><trkpt lat="45.3587767" lon="9.7607733"><ele>72.0</ele><time>2026-04-20T16:23:40.617Z</time></trkpt><trkpt lat="45.3587767" lon="9.7606083"><ele>72.0</ele><time>2026-04-20T16:23:42.617Z</time></trkpt><trkpt lat="45.3587767" lon="9.7604417"><ele>72.0</ele><time>2026-04-20T16:23:44.617Z</time></trkpt><trkpt lat="45.3587767" lon="9.760275"><ele>71.75</ele><time>2026-04-20T16:23:46.617Z</time></trkpt><trkpt lat="45.3587783" lon="9.7601067"><ele>71.5</ele><time>2026-04-20T16:23:48.617Z</time></trkpt><trkpt lat="45.3587867" lon="9.759945"><ele>71.25</ele><time>2026-04-20T16:23:50.618Z</time></trkpt><trkpt lat="45.358795" lon="9.7597833"><ele>71.0</ele><time>2026-04-20T16:23:52.617Z</time></trkpt><trkpt lat="45.3587983" lon="9.7596217"><ele>71.0</ele><time>2026-04-20T16:23:54.617Z</time></trkpt><trkpt lat="45.358805" lon="9.7594583"><ele>71.0</ele><time>2026-04-20T16:23:56.617Z</time></trkpt><trkpt lat="45.3588067" lon="9.759285"><ele>71.0</ele><time>2026-04-20T16:23:58.617Z</time></trkpt><trkpt lat="45.35881" lon="9.7591233"><ele>71.0</ele><time>2026-04-20T16:24:00.617Z</time></trkpt><trkpt lat="45.358815" lon="9.758965"><ele>71.2</ele><time>2026-04-20T16:24:02.617Z</time></trkpt><trkpt lat="45.3588183" lon="9.75881"><ele>71.39999999999999</ele><time>2026-04-20T16:24:04.618Z</time></trkpt><trkpt lat="45.3588283" lon="9.7586567"><ele>71.6</ele><time>2026-04-20T16:24:06.617Z</time></trkpt><trkpt lat="45.3588333" lon="9.7584983"><ele>71.8</ele><time>2026-04-20T16:24:08.617Z</time></trkpt><trkpt lat="45.3588383" lon="9.7583367"><ele>72.0</ele><time>2026-04-20T16:24:10.617Z</time></trkpt><trkpt lat="45.35884" lon="9.758175"><ele>72.0</ele><time>2026-04-20T16:24:12.617Z</time></trkpt><trkpt lat="45.3588467" lon="9.7580183"><ele>72.0</ele><time>2026-04-20T16:24:14.617Z</time></trkpt><trkpt lat="45.3588617" lon="9.7578833"><ele>72.0</ele><time>2026-04-20T16:24:16.617Z</time></trkpt><trkpt lat="45.3588933" lon="9.757755"><ele>72.0</ele><time>2026-04-20T16:24:18.617Z</time></trkpt><trkpt lat="45.35893" lon="9.75763"><ele>72.0</ele><time>2026-04-20T16:24:20.618Z</time></trkpt><trkpt lat="45.3589483" lon="9.7574867"><ele>72.2</ele><time>2026-04-20T16:24:22.617Z</time></trkpt><trkpt lat="45.358955" lon="9.7573433"><ele>72.4</ele><time>2026-04-20T16:24:24.617Z</time></trkpt><trkpt lat="45.3589567" lon="9.7572017"><ele>72.6</ele><time>2026-04-20T16:24:26.618Z</time></trkpt><trkpt lat="45.3589567" lon="9.7570517"><ele>72.8</ele><time>2026-04-20T16:24:28.617Z</time></trkpt><trkpt lat="45.3589567" lon="9.7569067"><ele>73.0</ele><time>2026-04-20T16:24:30.617Z</time></trkpt><trkpt lat="45.3589533" lon="9.756755"><ele>73.0</ele><time>2026-04-20T16:24:32.617Z</time></trkpt><trkpt lat="45.3589467" lon="9.756605"><ele>73.0</ele><time>2026-04-20T16:24:34.617Z</time></trkpt><trkpt lat="45.3589517" lon="9.7564617"><ele>73.0</ele><time>2026-04-20T16:24:36.617Z</time></trkpt><trkpt lat="45.35896" lon="9.756315"><ele>73.0</ele><time>2026-04-20T16:24:38.617Z</time></trkpt><trkpt lat="45.35897" lon="9.7561683"><ele>73.0</ele><time>2026-04-20T16:24:40.617Z</time></trkpt><trkpt lat="45.3589767" lon="9.7560183"><ele>73.0</ele><time>2026-04-20T16:24:42.617Z</time></trkpt><trkpt lat="45.3589833" lon="9.7558683"><ele>73.0</ele><time>2026-04-20T16:24:44.617Z</time></trkpt><trkpt lat="45.358985" lon="9.7557133"><ele>73.0</ele><time>2026-04-20T16:24:46.617Z</time></trkpt><trkpt lat="45.358985" lon="9.755565"><ele>73.0</ele><time>2026-04-20T16:24:48.617Z</time></trkpt><trkpt lat="45.3589917" lon="9.7554183"><ele>73.0</ele><time>2026-04-20T16:24:50.617Z</time></trkpt><trkpt lat="45.3589933" lon="9.75527"><ele>72.8</ele><time>2026-04-20T16:24:52.617Z</time></trkpt><trkpt lat="45.3589917" lon="9.755125"><ele>72.6</ele><time>2026-04-20T16:24:54.617Z</time></trkpt><trkpt lat="45.3589867" lon="9.7549833"><ele>72.4</ele><time>2026-04-20T16:24:56.617Z</time></trkpt><trkpt lat="45.35899" lon="9.7548517"><ele>72.2</ele><time>2026-04-20T16:24:58.618Z</time></trkpt><trkpt lat="45.3589933" lon="9.75472"><ele>72.0</ele><time>2026-04-20T16:25:00.617Z</time></trkpt><trkpt lat="45.3590017" lon="9.7545867"><ele>72.0</ele><time>2026-04-20T16:25:02.617Z</time></trkpt><trkpt lat="45.3589867" lon="9.7544533"><ele>72.0</ele><time>2026-04-20T16:25:04.617Z</time></trkpt><trkpt lat="45.358975" lon="9.7543233"><ele>72.0</ele><time>2026-04-20T16:25:06.617Z</time></trkpt><trkpt lat="45.3589717" lon="9.75418"><ele>72.0</ele><time>2026-04-20T16:25:08.617Z</time></trkpt><trkpt lat="45.3589767" lon="9.754035"><ele>72.0</ele><time>2026-04-20T16:25:10.617Z</time></trkpt><trkpt lat="45.3589883" lon="9.7538767"><ele>72.0</ele><time>2026-04-20T16:25:12.618Z</time></trkpt><trkpt lat="45.3590017" lon="9.75371"><ele>72.0</ele><time>2026-04-20T16:25:14.617Z</time></trkpt><trkpt lat="45.3590183" lon="9.75355"><ele>72.0</ele><time>2026-04-20T16:25:16.618Z</time></trkpt><trkpt lat="45.3590367" lon="9.753385"><ele>72.0</ele><time>2026-04-20T16:25:18.617Z</time></trkpt><trkpt lat="45.3590583" lon="9.7532217"><ele>72.5</ele><time>2026-04-20T16:25:20.617Z</time></trkpt><trkpt lat="45.3590833" lon="9.75306"><ele>73.0</ele><time>2026-04-20T16:25:22.617Z</time></trkpt><trkpt lat="45.3591067" lon="9.7528883"><ele>73.5</ele><time>2026-04-20T16:25:24.618Z</time></trkpt><trkpt lat="45.3591333" lon="9.7527183"><ele>74.0</ele><time>2026-04-20T16:25:26.617Z</time></trkpt><trkpt lat="45.3591667" lon="9.7525567"><ele>74.25</ele><time>2026-04-20T16:25:28.618Z</time></trkpt><trkpt lat="45.3591983" lon="9.7524"><ele>74.5</ele><time>2026-04-20T16:25:30.617Z</time></trkpt><trkpt lat="45.3592317" lon="9.7522417"><ele>74.75</ele><time>2026-04-20T16:25:32.617Z</time></trkpt><trkpt lat="45.359265" lon="9.7520867"><ele>75.0</ele><time>2026-04-20T16:25:34.618Z</time></trkpt><trkpt lat="45.3593" lon="9.7519383"><ele>75.0</ele><time>2026-04-20T16:25:36.618Z</time></trkpt><trkpt lat="45.3593333" lon="9.751795"><ele>75.0</ele><time>2026-04-20T16:25:38.617Z</time></trkpt><trkpt lat="45.3593667" lon="9.75165"><ele>75.0</ele><time>2026-04-20T16:25:40.617Z</time></trkpt><trkpt lat="45.3594033" lon="9.7514983"><ele>75.0</ele><time>2026-04-20T16:25:42.617Z</time></trkpt><trkpt lat="45.35944" lon="9.7513517"><ele>75.0</ele><time>2026-04-20T16:25:44.617Z</time></trkpt><trkpt lat="45.3594767" lon="9.7512"><ele>75.0</ele><time>2026-04-20T16:25:46.617Z</time></trkpt><trkpt lat="45.3595133" lon="9.7510517"><ele>75.0</ele><time>2026-04-20T16:25:48.617Z</time></trkpt><trkpt lat="45.3595517" lon="9.7509033"><ele>75.0</ele><time>2026-04-20T16:25:50.617Z</time></trkpt><trkpt lat="45.35959" lon="9.7507567"><ele>75.0</ele><time>2026-04-20T16:25:52.617Z</time></trkpt><trkpt lat="45.3596333" lon="9.7506117"><ele>75.0</ele><time>2026-04-20T16:25:54.617Z</time></trkpt><trkpt lat="45.3596617" lon="9.750495"><ele>75.0</ele><time>2026-04-20T16:25:56.618Z</time></trkpt><trkpt lat="45.3596833" lon="9.7503767"><ele>75.0</ele><time>2026-04-20T16:25:58.617Z</time></trkpt><trkpt lat="45.359715" lon="9.7502367"><ele>75.0</ele><time>2026-04-20T16:26:00.617Z</time></trkpt><trkpt lat="45.3597433" lon="9.75009"><ele>75.0</ele><time>2026-04-20T16:26:02.617Z</time></trkpt><trkpt lat="45.359775" lon="9.74994"><ele>75.0</ele><time>2026-04-20T16:26:04.617Z</time></trkpt><trkpt lat="45.3598083" lon="9.7497933"><ele>75.0</ele><time>2026-04-20T16:26:06.618Z</time></trkpt><trkpt lat="45.3598417" lon="9.74964"><ele>75.0</ele><time>2026-04-20T16:26:08.617Z</time></trkpt><trkpt lat="45.359875" lon="9.7494833"><ele>75.0</ele><time>2026-04-20T16:26:10.618Z</time></trkpt><trkpt lat="45.3599133" lon="9.7493317"><ele>75.0</ele><time>2026-04-20T16:26:12.617Z</time></trkpt><trkpt lat="45.3599483" lon="9.74918"><ele>75.0</ele><time>2026-04-20T16:26:14.617Z</time></trkpt><trkpt lat="45.3599817" lon="9.7490283"><ele>75.0</ele><time>2026-04-20T16:26:16.617Z</time></trkpt><trkpt lat="45.3600183" lon="9.748875"><ele>75.0</ele><time>2026-04-20T16:26:18.617Z</time></trkpt><trkpt lat="45.36005" lon="9.7487183"><ele>75.0</ele><time>2026-04-20T16:26:20.618Z</time></trkpt><trkpt lat="45.3600833" lon="9.7485667"><ele>75.5</ele><time>2026-04-20T16:26:22.617Z</time></trkpt><trkpt lat="45.3601217" lon="9.7484133"><ele>76.0</ele><time>2026-04-20T16:26:24.617Z</time></trkpt><trkpt lat="45.3601567" lon="9.7482567"><ele>76.5</ele><time>2026-04-20T16:26:26.617Z</time></trkpt><trkpt lat="45.3601933" lon="9.7481"><ele>77.0</ele><time>2026-04-20T16:26:28.617Z</time></trkpt><trkpt lat="45.3602283" lon="9.747945"><ele>77.0</ele><time>2026-04-20T16:26:30.618Z</time></trkpt><trkpt lat="45.360265" lon="9.7477933"><ele>77.0</ele><time>2026-04-20T16:26:32.617Z</time></trkpt><trkpt lat="45.3603033" lon="9.7476367"><ele>77.0</ele><time>2026-04-20T16:26:34.617Z</time></trkpt><trkpt lat="45.3603417" lon="9.7474783"><ele>77.0</ele><time>2026-04-20T16:26:36.618Z</time></trkpt><trkpt lat="45.3603783" lon="9.747325"><ele>76.8</ele><time>2026-04-20T16:26:38.617Z</time></trkpt><trkpt lat="45.36042" lon="9.747175"><ele>76.6</ele><time>2026-04-20T16:26:40.617Z</time></trkpt><trkpt lat="45.3604617" lon="9.7470283"><ele>76.39999999999999</ele><time>2026-04-20T16:26:42.617Z</time></trkpt><trkpt lat="45.3604967" lon="9.746905"><ele>76.2</ele><time>2026-04-20T16:26:44.617Z</time></trkpt><trkpt lat="45.3605233" lon="9.7468117"><ele>76.0</ele><time>2026-04-20T16:26:46.618Z</time></trkpt><trkpt lat="45.3605433" lon="9.7467033"><ele>75.39999999999999</ele><time>2026-04-20T16:26:48.617Z</time></trkpt><trkpt lat="45.3605633" lon="9.7465767"><ele>74.8</ele><time>2026-04-20T16:26:50.617Z</time></trkpt><trkpt lat="45.36059" lon="9.746445"><ele>74.19999999999999</ele><time>2026-04-20T16:26:52.617Z</time></trkpt><trkpt lat="45.3606167" lon="9.7462983"><ele>73.6</ele><time>2026-04-20T16:26:54.617Z</time></trkpt><trkpt lat="45.36065" lon="9.7461517"><ele>73.0</ele><time>2026-04-20T16:26:56.617Z</time></trkpt><trkpt lat="45.3606817" lon="9.746"><ele>73.0</ele><time>2026-04-20T16:26:58.617Z</time></trkpt><trkpt lat="45.3607183" lon="9.7458517"><ele>73.0</ele><time>2026-04-20T16:27:00.617Z</time></trkpt><trkpt lat="45.3607533" lon="9.7457033"><ele>73.0</ele><time>2026-04-20T16:27:02.617Z</time></trkpt><trkpt lat="45.3607867" lon="9.7455533"><ele>73.0</ele><time>2026-04-20T16:27:04.617Z</time></trkpt><trkpt lat="45.3608267" lon="9.7454033"><ele>73.0</ele><time>2026-04-20T16:27:06.617Z</time></trkpt><trkpt lat="45.36086" lon="9.74525"><ele>73.75</ele><time>2026-04-20T16:27:08.617Z</time></trkpt><trkpt lat="45.3608983" lon="9.745095"><ele>74.5</ele><time>2026-04-20T16:27:10.618Z</time></trkpt><trkpt lat="45.3609317" lon="9.744945"><ele>75.25</ele><time>2026-04-20T16:27:12.617Z</time></trkpt><trkpt lat="45.360965" lon="9.7447883"><ele>76.0</ele><time>2026-04-20T16:27:14.617Z</time></trkpt><trkpt lat="45.3610017" lon="9.74464"><ele>76.0</ele><time>2026-04-20T16:27:16.617Z</time></trkpt><trkpt lat="45.3610367" lon="9.7444833"><ele>76.0</ele><time>2026-04-20T16:27:18.617Z</time></trkpt><trkpt lat="45.3610683" lon="9.7443267"><ele>76.0</ele><time>2026-04-20T16:27:20.618Z</time></trkpt><trkpt lat="45.3611017" lon="9.7441833"><ele>76.0</ele><time>2026-04-20T16:27:22.618Z</time></trkpt><trkpt lat="45.3611367" lon="9.74404"><ele>76.0</ele><time>2026-04-20T16:27:24.617Z</time></trkpt><trkpt lat="45.3611733" lon="9.7438867"><ele>76.0</ele><time>2026-04-20T16:27:26.617Z</time></trkpt><trkpt lat="45.3612133" lon="9.74373"><ele>76.0</ele><time>2026-04-20T16:27:28.617Z</time></trkpt><trkpt lat="45.3612433" lon="9.7435833"><ele>76.0</ele><time>2026-04-20T16:27:30.617Z</time></trkpt><trkpt lat="45.3612783" lon="9.743445"><ele>76.0</ele><time>2026-04-20T16:27:32.617Z</time></trkpt><trkpt lat="45.3613133" lon="9.743305"><ele>76.0</ele><time>2026-04-20T16:27:34.617Z</time></trkpt><trkpt lat="45.36134" lon="9.7431817"><ele>76.0</ele><time>2026-04-20T16:27:36.617Z</time></trkpt><trkpt lat="45.36137" lon="9.743065"><ele>76.0</ele><time>2026-04-20T16:27:38.617Z</time></trkpt><trkpt lat="45.3613967" lon="9.7429367"><ele>76.0</ele><time>2026-04-20T16:27:40.617Z</time></trkpt><trkpt lat="45.3614283" lon="9.7427933"><ele>76.0</ele><time>2026-04-20T16:27:42.617Z</time></trkpt><trkpt lat="45.361465" lon="9.7426467"><ele>76.0</ele><time>2026-04-20T16:27:44.617Z</time></trkpt><trkpt lat="45.3615067" lon="9.7425"><ele>75.75</ele><time>2026-04-20T16:27:46.617Z</time></trkpt><trkpt lat="45.361545" lon="9.7423433"><ele>75.5</ele><time>2026-04-20T16:27:48.617Z</time></trkpt><trkpt lat="45.3615817" lon="9.74219"><ele>75.25</ele><time>2026-04-20T16:27:50.618Z</time></trkpt><trkpt lat="45.36162" lon="9.7420367"><ele>75.0</ele><time>2026-04-20T16:27:52.617Z</time></trkpt><trkpt lat="45.3616567" lon="9.7418917"><ele>74.8</ele><time>2026-04-20T16:27:54.617Z</time></trkpt><trkpt lat="45.3617" lon="9.741745"><ele>74.6</ele><time>2026-04-20T16:27:56.617Z</time></trkpt><trkpt lat="45.3617483" lon="9.7415967"><ele>74.4</ele><time>2026-04-20T16:27:58.617Z</time></trkpt><trkpt lat="45.3618" lon="9.74147"><ele>74.2</ele><time>2026-04-20T16:28:00.617Z</time></trkpt><trkpt lat="45.36184" lon="9.74135"><ele>74.0</ele><time>2026-04-20T16:28:02.617Z</time></trkpt><trkpt lat="45.3618717" lon="9.741235"><ele>74.0</ele><time>2026-04-20T16:28:04.618Z</time></trkpt><trkpt lat="45.36189" lon="9.7411383"><ele>74.0</ele><time>2026-04-20T16:28:06.618Z</time></trkpt><trkpt lat="45.3619083" lon="9.7410233"><ele>74.0</ele><time>2026-04-20T16:28:08.617Z</time></trkpt><trkpt lat="45.3619283" lon="9.74089"><ele>74.0</ele><time>2026-04-20T16:28:10.617Z</time></trkpt><trkpt lat="45.36195" lon="9.7407467"><ele>74.0</ele><time>2026-04-20T16:28:12.617Z</time></trkpt><trkpt lat="45.3619783" lon="9.740595"><ele>73.75</ele><time>2026-04-20T16:28:14.617Z</time></trkpt><trkpt lat="45.3620083" lon="9.74044"><ele>73.5</ele><time>2026-04-20T16:28:16.617Z</time></trkpt><trkpt lat="45.3620417" lon="9.7402833"><ele>73.25</ele><time>2026-04-20T16:28:18.617Z</time></trkpt><trkpt lat="45.3620733" lon="9.7401267"><ele>73.0</ele><time>2026-04-20T16:28:20.617Z</time></trkpt><trkpt lat="45.3621117" lon="9.7399683"><ele>73.75</ele><time>2026-04-20T16:28:22.617Z</time></trkpt><trkpt lat="45.3621467" lon="9.7398167"><ele>74.5</ele><time>2026-04-20T16:28:24.617Z</time></trkpt><trkpt lat="45.3621867" lon="9.739665"><ele>75.25</ele><time>2026-04-20T16:28:26.617Z</time></trkpt><trkpt lat="45.36222" lon="9.7395117"><ele>76.0</ele><time>2026-04-20T16:28:28.617Z</time></trkpt><trkpt lat="45.3622533" lon="9.7393567"><ele>76.0</ele><time>2026-04-20T16:28:30.617Z</time></trkpt><trkpt lat="45.3622883" lon="9.7392017"><ele>76.0</ele><time>2026-04-20T16:28:32.617Z</time></trkpt><trkpt lat="45.3623283" lon="9.739045"><ele>76.0</ele><time>2026-04-20T16:28:34.617Z</time></trkpt><trkpt lat="45.3623617" lon="9.73889"><ele>76.0</ele><time>2026-04-20T16:28:36.617Z</time></trkpt><trkpt lat="45.3623967" lon="9.7387383"><ele>76.0</ele><time>2026-04-20T16:28:38.617Z</time></trkpt><trkpt lat="45.3624317" lon="9.7385867"><ele>76.0</ele><time>2026-04-20T16:28:40.617Z</time></trkpt><trkpt lat="45.3624733" lon="9.738435"><ele>76.0</ele><time>2026-04-20T16:28:42.617Z</time></trkpt><trkpt lat="45.3625133" lon="9.7382817"><ele>76.0</ele><time>2026-04-20T16:28:44.617Z</time></trkpt><trkpt lat="45.3625517" lon="9.7381267"><ele>76.0</ele><time>2026-04-20T16:28:46.618Z</time></trkpt><trkpt lat="45.3625917" lon="9.73797"><ele>76.0</ele><time>2026-04-20T16:28:48.617Z</time></trkpt><trkpt lat="45.3626283" lon="9.7378167"><ele>76.0</ele><time>2026-04-20T16:28:50.617Z</time></trkpt><trkpt lat="45.3626667" lon="9.7376617"><ele>76.0</ele><time>2026-04-20T16:28:52.617Z</time></trkpt><trkpt lat="45.362705" lon="9.7375083"><ele>76.0</ele><time>2026-04-20T16:28:54.617Z</time></trkpt><trkpt lat="45.3627417" lon="9.7373517"><ele>76.0</ele><time>2026-04-20T16:28:56.617Z</time></trkpt><trkpt lat="45.36278" lon="9.7371967"><ele>76.0</ele><time>2026-04-20T16:28:58.618Z</time></trkpt><trkpt lat="45.3628117" lon="9.7370433"><ele>76.0</ele><time>2026-04-20T16:29:00.617Z</time></trkpt><trkpt lat="45.3628467" lon="9.7368883"><ele>76.0</ele><time>2026-04-20T16:29:02.617Z</time></trkpt><trkpt lat="45.36288" lon="9.7367367"><ele>76.0</ele><time>2026-04-20T16:29:04.618Z</time></trkpt><trkpt lat="45.362915" lon="9.736585"><ele>76.0</ele><time>2026-04-20T16:29:06.617Z</time></trkpt><trkpt lat="45.362955" lon="9.736435"><ele>76.0</ele><time>2026-04-20T16:29:08.617Z</time></trkpt><trkpt lat="45.3629917" lon="9.7362833"><ele>76.0</ele><time>2026-04-20T16:29:10.617Z</time></trkpt><trkpt lat="45.36303" lon="9.7361283"><ele>76.0</ele><time>2026-04-20T16:29:12.617Z</time></trkpt><trkpt lat="45.3630617" lon="9.7359817"><ele>76.0</ele><time>2026-04-20T16:29:14.617Z</time></trkpt><trkpt lat="45.363095" lon="9.7358383"><ele>76.0</ele><time>2026-04-20T16:29:16.618Z</time></trkpt><trkpt lat="45.3631267" lon="9.73569"><ele>76.0</ele><time>2026-04-20T16:29:18.617Z</time></trkpt><trkpt lat="45.3631633" lon="9.7355383"><ele>76.0</ele><time>2026-04-20T16:29:20.617Z</time></trkpt><trkpt lat="45.3632" lon="9.7353867"><ele>76.0</ele><time>2026-04-20T16:29:22.617Z</time></trkpt><trkpt lat="45.363235" lon="9.7352283"><ele>76.0</ele><time>2026-04-20T16:29:24.617Z</time></trkpt><trkpt lat="45.3632717" lon="9.7350733"><ele>76.0</ele><time>2026-04-20T16:29:26.617Z</time></trkpt><trkpt lat="45.3633083" lon="9.7349133"><ele>76.0</ele><time>2026-04-20T16:29:28.617Z</time></trkpt><trkpt lat="45.3633433" lon="9.7347583"><ele>76.0</ele><time>2026-04-20T16:29:30.617Z</time></trkpt><trkpt lat="45.36338" lon="9.7345983"><ele>76.0</ele><time>2026-04-20T16:29:32.617Z</time></trkpt><trkpt lat="45.3634167" lon="9.7344417"><ele>76.0</ele><time>2026-04-20T16:29:34.618Z</time></trkpt><trkpt lat="45.363455" lon="9.73429"><ele>76.0</ele><time>2026-04-20T16:29:36.618Z</time></trkpt><trkpt lat="45.363495" lon="9.7341383"><ele>76.0</ele><time>2026-04-20T16:29:38.617Z</time></trkpt><trkpt lat="45.3635333" lon="9.7339833"><ele>76.0</ele><time>2026-04-20T16:29:40.617Z</time></trkpt><trkpt lat="45.36357" lon="9.7338217"><ele>76.0</ele><time>2026-04-20T16:29:42.617Z</time></trkpt><trkpt lat="45.3636117" lon="9.73366"><ele>76.0</ele><time>2026-04-20T16:29:44.617Z</time></trkpt><trkpt lat="45.3636567" lon="9.7335083"><ele>76.0</ele><time>2026-04-20T16:29:46.618Z</time></trkpt><trkpt lat="45.3636983" lon="9.7333683"><ele>76.0</ele><time>2026-04-20T16:29:48.618Z</time></trkpt><trkpt lat="45.36374" lon="9.7332367"><ele>76.0</ele><time>2026-04-20T16:29:50.617Z</time></trkpt><trkpt lat="45.36378" lon="9.7331083"><ele>76.0</ele><time>2026-04-20T16:29:52.617Z</time></trkpt><trkpt lat="45.363805" lon="9.7329817"><ele>76.0</ele><time>2026-04-20T16:29:54.617Z</time></trkpt><trkpt lat="45.3638167" lon="9.7328433"><ele>76.0</ele><time>2026-04-20T16:29:56.617Z</time></trkpt><trkpt lat="45.3638383" lon="9.7326767"><ele>76.0</ele><time>2026-04-20T16:29:58.617Z</time></trkpt><trkpt lat="45.363855" lon="9.73259"><ele>76.0</ele><time>2026-04-20T16:29:59.617Z</time></trkpt><trkpt lat="45.3638717" lon="9.7325017"><ele>76.0</ele><time>2026-04-20T16:30:00.617Z</time></trkpt><trkpt lat="45.3639067" lon="9.7323317"><ele>76.0</ele><time>2026-04-20T16:30:02.617Z</time></trkpt><trkpt lat="45.3639383" lon="9.73217"><ele>76.0</ele><time>2026-04-20T16:30:04.617Z</time></trkpt><trkpt lat="45.3639817" lon="9.7320133"><ele>76.0</ele><time>2026-04-20T16:30:06.617Z</time></trkpt><trkpt lat="45.364005" lon="9.7319283"><ele>76.0</ele><time>2026-04-20T16:30:07.617Z</time></trkpt><trkpt lat="45.3640267" lon="9.7318417"><ele>76.0</ele><time>2026-04-20T16:30:08.617Z</time></trkpt><trkpt lat="45.3640717" lon="9.73168"><ele>76.0</ele><time>2026-04-20T16:30:10.617Z</time></trkpt><trkpt lat="45.3641033" lon="9.7315217"><ele>75.75</ele><time>2026-04-20T16:30:12.617Z</time></trkpt><trkpt lat="45.3641417" lon="9.7313667"><ele>75.5</ele><time>2026-04-20T16:30:14.617Z</time></trkpt><trkpt lat="45.3641767" lon="9.73121"><ele>75.25</ele><time>2026-04-20T16:30:16.617Z</time></trkpt><trkpt lat="45.3642167" lon="9.73105"><ele>75.0</ele><time>2026-04-20T16:30:18.618Z</time></trkpt><trkpt lat="45.3642583" lon="9.7308883"><ele>74.8</ele><time>2026-04-20T16:30:20.616Z</time></trkpt><trkpt lat="45.364295" lon="9.73074"><ele>74.6</ele><time>2026-04-20T16:30:22.616Z</time></trkpt><trkpt lat="45.3643267" lon="9.730595"><ele>74.4</ele><time>2026-04-20T16:30:24.616Z</time></trkpt><trkpt lat="45.3643633" lon="9.7304533"><ele>74.2</ele><time>2026-04-20T16:30:26.616Z</time></trkpt><trkpt lat="45.3643967" lon="9.7303017"><ele>74.0</ele><time>2026-04-20T16:30:28.616Z</time></trkpt><trkpt lat="45.3644283" lon="9.7301483"><ele>73.75</ele><time>2026-04-20T16:30:30.616Z</time></trkpt><trkpt lat="45.364465" lon="9.729995"><ele>73.5</ele><time>2026-04-20T16:30:32.616Z</time></trkpt><trkpt lat="45.3645033" lon="9.7298367"><ele>73.25</ele><time>2026-04-20T16:30:34.616Z</time></trkpt><trkpt lat="45.36454" lon="9.7296767"><ele>73.0</ele><time>2026-04-20T16:30:36.616Z</time></trkpt><trkpt lat="45.3645767" lon="9.7295217"><ele>73.25</ele><time>2026-04-20T16:30:38.616Z</time></trkpt><trkpt lat="45.3646117" lon="9.7293583"><ele>73.5</ele><time>2026-04-20T16:30:40.616Z</time></trkpt><trkpt lat="45.3646467" lon="9.7292167"><ele>73.75</ele><time>2026-04-20T16:30:42.616Z</time></trkpt><trkpt lat="45.364685" lon="9.72906"><ele>74.0</ele><time>2026-04-20T16:30:44.616Z</time></trkpt><trkpt lat="45.3647183" lon="9.728895"><ele>74.25</ele><time>2026-04-20T16:30:46.616Z</time></trkpt><trkpt lat="45.3647533" lon="9.7287367"><ele>74.5</ele><time>2026-04-20T16:30:48.616Z</time></trkpt><trkpt lat="45.3647967" lon="9.7285767"><ele>74.75</ele><time>2026-04-20T16:30:50.616Z</time></trkpt><trkpt lat="45.3648317" lon="9.728425"><ele>75.0</ele><time>2026-04-20T16:30:52.616Z</time></trkpt><trkpt lat="45.36487" lon="9.728265"><ele>75.0</ele><time>2026-04-20T16:30:54.616Z</time></trkpt><trkpt lat="45.364905" lon="9.7281083"><ele>75.0</ele><time>2026-04-20T16:30:56.616Z</time></trkpt><trkpt lat="45.3649467" lon="9.727955"><ele>75.0</ele><time>2026-04-20T16:30:58.617Z</time></trkpt><trkpt lat="45.3649867" lon="9.7277933"><ele>75.0</ele><time>2026-04-20T16:31:00.616Z</time></trkpt><trkpt lat="45.36503" lon="9.727635"><ele>74.8</ele><time>2026-04-20T16:31:02.616Z</time></trkpt><trkpt lat="45.3650683" lon="9.7274783"><ele>74.6</ele><time>2026-04-20T16:31:04.616Z</time></trkpt><trkpt lat="45.3651033" lon="9.72733"><ele>74.4</ele><time>2026-04-20T16:31:06.617Z</time></trkpt><trkpt lat="45.3651433" lon="9.7271917"><ele>74.2</ele><time>2026-04-20T16:31:08.616Z</time></trkpt><trkpt lat="45.3651733" lon="9.7270467"><ele>74.0</ele><time>2026-04-20T16:31:10.616Z</time></trkpt><trkpt lat="45.3652" lon="9.726915"><ele>73.60000000000001</ele><time>2026-04-20T16:31:12.617Z</time></trkpt><trkpt lat="45.3652317" lon="9.72678"><ele>73.2</ele><time>2026-04-20T16:31:14.617Z</time></trkpt><trkpt lat="45.3652567" lon="9.726635"><ele>72.80000000000001</ele><time>2026-04-20T16:31:16.616Z</time></trkpt><trkpt lat="45.36529" lon="9.7264817"><ele>72.4</ele><time>2026-04-20T16:31:18.616Z</time></trkpt><trkpt lat="45.365325" lon="9.7263233"><ele>72.0</ele><time>2026-04-20T16:31:20.617Z</time></trkpt><trkpt lat="45.3653633" lon="9.726165"><ele>72.5</ele><time>2026-04-20T16:31:22.616Z</time></trkpt><trkpt lat="45.3653983" lon="9.72601"><ele>73.0</ele><time>2026-04-20T16:31:24.616Z</time></trkpt><trkpt lat="45.3654383" lon="9.72585"><ele>73.5</ele><time>2026-04-20T16:31:26.616Z</time></trkpt><trkpt lat="45.3654767" lon="9.7256917"><ele>74.0</ele><time>2026-04-20T16:31:28.616Z</time></trkpt><trkpt lat="45.365515" lon="9.72553"><ele>73.75</ele><time>2026-04-20T16:31:30.616Z</time></trkpt><trkpt lat="45.3655483" lon="9.7253767"><ele>73.5</ele><time>2026-04-20T16:31:32.616Z</time></trkpt><trkpt lat="45.3655883" lon="9.7252183"><ele>73.25</ele><time>2026-04-20T16:31:34.617Z</time></trkpt><trkpt lat="45.3656233" lon="9.7250667"><ele>73.0</ele><time>2026-04-20T16:31:36.617Z</time></trkpt><trkpt lat="45.3656617" lon="9.7249017"><ele>73.0</ele><time>2026-04-20T16:31:38.617Z</time></trkpt><trkpt lat="45.3657017" lon="9.7247433"><ele>73.0</ele><time>2026-04-20T16:31:40.616Z</time></trkpt><trkpt lat="45.3657433" lon="9.7245817"><ele>73.0</ele><time>2026-04-20T16:31:42.616Z</time></trkpt><trkpt lat="45.3657783" lon="9.7244267"><ele>73.0</ele><time>2026-04-20T16:31:44.616Z</time></trkpt><trkpt lat="45.3658133" lon="9.724265"><ele>72.75</ele><time>2026-04-20T16:31:46.616Z</time></trkpt><trkpt lat="45.3658483" lon="9.7241017"><ele>72.5</ele><time>2026-04-20T16:31:48.616Z</time></trkpt><trkpt lat="45.3658883" lon="9.723945"><ele>72.25</ele><time>2026-04-20T16:31:50.616Z</time></trkpt><trkpt lat="45.3659283" lon="9.7237867"><ele>72.0</ele><time>2026-04-20T16:31:52.617Z</time></trkpt><trkpt lat="45.3659717" lon="9.7236233"><ele>72.2</ele><time>2026-04-20T16:31:54.616Z</time></trkpt><trkpt lat="45.36601" lon="9.7234567"><ele>72.4</ele><time>2026-04-20T16:31:56.616Z</time></trkpt><trkpt lat="45.3660517" lon="9.7232917"><ele>72.6</ele><time>2026-04-20T16:31:58.616Z</time></trkpt><trkpt lat="45.3660767" lon="9.7232067"><ele>72.8</ele><time>2026-04-20T16:31:59.616Z</time></trkpt><trkpt lat="45.366115" lon="9.7230467"><ele>73.0</ele><time>2026-04-20T16:32:01.617Z</time></trkpt><trkpt lat="45.3661567" lon="9.7228883"><ele>73.0</ele><time>2026-04-20T16:32:03.616Z</time></trkpt><trkpt lat="45.3662017" lon="9.722735"><ele>73.0</ele><time>2026-04-20T16:32:05.616Z</time></trkpt><trkpt lat="45.3662383" lon="9.7225717"><ele>73.0</ele><time>2026-04-20T16:32:07.616Z</time></trkpt><trkpt lat="45.3662767" lon="9.7224217"><ele>73.0</ele><time>2026-04-20T16:32:09.616Z</time></trkpt><trkpt lat="45.3663133" lon="9.722265"><ele>73.0</ele><time>2026-04-20T16:32:11.616Z</time></trkpt><trkpt lat="45.3663433" lon="9.7221083"><ele>73.0</ele><time>2026-04-20T16:32:13.616Z</time></trkpt><trkpt lat="45.3663633" lon="9.7220217"><ele>73.0</ele><time>2026-04-20T16:32:14.616Z</time></trkpt><trkpt lat="45.3663967" lon="9.7218633"><ele>73.0</ele><time>2026-04-20T16:32:16.617Z</time></trkpt><trkpt lat="45.366435" lon="9.7217017"><ele>73.0</ele><time>2026-04-20T16:32:18.616Z</time></trkpt><trkpt lat="45.3664733" lon="9.721545"><ele>73.0</ele><time>2026-04-20T16:32:20.616Z</time></trkpt><trkpt lat="45.3665133" lon="9.7213883"><ele>73.0</ele><time>2026-04-20T16:32:22.616Z</time></trkpt><trkpt lat="45.3665517" lon="9.72124"><ele>73.0</ele><time>2026-04-20T16:32:24.616Z</time></trkpt><trkpt lat="45.3665883" lon="9.721085"><ele>73.0</ele><time>2026-04-20T16:32:26.616Z</time></trkpt><trkpt lat="45.3666267" lon="9.7209233"><ele>73.0</ele><time>2026-04-20T16:32:28.616Z</time></trkpt><trkpt lat="45.3666583" lon="9.720755"><ele>73.0</ele><time>2026-04-20T16:32:30.616Z</time></trkpt><trkpt lat="45.3666917" lon="9.7205933"><ele>73.0</ele><time>2026-04-20T16:32:32.616Z</time></trkpt><trkpt lat="45.3667383" lon="9.7204383"><ele>73.0</ele><time>2026-04-20T16:32:34.616Z</time></trkpt><trkpt lat="45.3667783" lon="9.720275"><ele>72.75</ele><time>2026-04-20T16:32:36.616Z</time></trkpt><trkpt lat="45.3668183" lon="9.7201117"><ele>72.5</ele><time>2026-04-20T16:32:38.616Z</time></trkpt><trkpt lat="45.3668617" lon="9.7199583"><ele>72.25</ele><time>2026-04-20T16:32:40.616Z</time></trkpt><trkpt lat="45.3669017" lon="9.7198017"><ele>72.0</ele><time>2026-04-20T16:32:42.616Z</time></trkpt><trkpt lat="45.3669333" lon="9.71964"><ele>72.0</ele><time>2026-04-20T16:32:44.617Z</time></trkpt><trkpt lat="45.3669517" lon="9.719495"><ele>72.0</ele><time>2026-04-20T16:32:46.617Z</time></trkpt><trkpt lat="45.3669917" lon="9.7193817"><ele>72.0</ele><time>2026-04-20T16:32:48.616Z</time></trkpt><trkpt lat="45.3670133" lon="9.71928"><ele>72.0</ele><time>2026-04-20T16:32:50.616Z</time></trkpt><trkpt lat="45.3670383" lon="9.719175"><ele>72.0</ele><time>2026-04-20T16:33:12.616Z</time></trkpt><trkpt lat="45.3670767" lon="9.7191033"><ele>72.0</ele><time>2026-04-20T16:33:16.617Z</time></trkpt><trkpt lat="45.3670917" lon="9.7190017"><ele>72.16666666666667</ele><time>2026-04-20T16:33:19.616Z</time></trkpt><trkpt lat="45.367115" lon="9.7188767"><ele>72.33333333333333</ele><time>2026-04-20T16:33:22.616Z</time></trkpt><trkpt lat="45.3671417" lon="9.7187683"><ele>72.5</ele><time>2026-04-20T16:33:25.616Z</time></trkpt><trkpt lat="45.3671533" lon="9.718665"><ele>72.66666666666666</ele><time>2026-04-20T16:33:28.616Z</time></trkpt><trkpt lat="45.367165" lon="9.7185467"><ele>72.83333333333333</ele><time>2026-04-20T16:33:32.616Z</time></trkpt><trkpt lat="45.3672133" lon="9.7184683"><ele>73.0</ele><time>2026-04-20T16:33:35.617Z</time></trkpt><trkpt lat="45.36725" lon="9.71834"><ele>73.2</ele><time>2026-04-20T16:33:38.616Z</time></trkpt><trkpt lat="45.367275" lon="9.718225"><ele>73.4</ele><time>2026-04-20T16:33:40.616Z</time></trkpt><trkpt lat="45.367305" lon="9.718105"><ele>73.60000000000001</ele><time>2026-04-20T16:33:42.616Z</time></trkpt><trkpt lat="45.3673283" lon="9.7179833"><ele>73.8</ele><time>2026-04-20T16:33:44.616Z</time></trkpt><trkpt lat="45.3673617" lon="9.7178433"><ele>74.0</ele><time>2026-04-20T16:33:46.616Z</time></trkpt><trkpt lat="45.3673983" lon="9.7177067"><ele>74.0</ele><time>2026-04-20T16:33:48.616Z</time></trkpt><trkpt lat="45.3674267" lon="9.7175617"><ele>74.0</ele><time>2026-04-20T16:33:50.616Z</time></trkpt><trkpt lat="45.3674583" lon="9.717405"><ele>74.0</ele><time>2026-04-20T16:33:52.616Z</time></trkpt><trkpt lat="45.3675" lon="9.717245"><ele>74.0</ele><time>2026-04-20T16:33:54.616Z</time></trkpt><trkpt lat="45.3675317" lon="9.71709"><ele>74.0</ele><time>2026-04-20T16:33:56.616Z</time></trkpt><trkpt lat="45.367575" lon="9.716935"><ele>74.0</ele><time>2026-04-20T16:33:58.617Z</time></trkpt><trkpt lat="45.3676083" lon="9.7167817"><ele>74.0</ele><time>2026-04-20T16:34:00.616Z</time></trkpt><trkpt lat="45.3676467" lon="9.7166233"><ele>74.0</ele><time>2026-04-20T16:34:02.616Z</time></trkpt><trkpt lat="45.3676833" lon="9.716475"><ele>74.75</ele><time>2026-04-20T16:34:04.616Z</time></trkpt><trkpt lat="45.367695" lon="9.7163083"><ele>75.5</ele><time>2026-04-20T16:34:06.616Z</time></trkpt><trkpt lat="45.3677267" lon="9.71614"><ele>76.25</ele><time>2026-04-20T16:34:08.616Z</time></trkpt><trkpt lat="45.3677717" lon="9.71599"><ele>77.0</ele><time>2026-04-20T16:34:10.616Z</time></trkpt><trkpt lat="45.3678083" lon="9.7158267"><ele>77.25</ele><time>2026-04-20T16:34:12.616Z</time></trkpt><trkpt lat="45.3678483" lon="9.7156617"><ele>77.5</ele><time>2026-04-20T16:34:14.616Z</time></trkpt><trkpt lat="45.3678867" lon="9.7155017"><ele>77.75</ele><time>2026-04-20T16:34:16.616Z</time></trkpt><trkpt lat="45.3679233" lon="9.7153517"><ele>78.0</ele><time>2026-04-20T16:34:18.616Z</time></trkpt><trkpt lat="45.3679567" lon="9.7151933"><ele>78.4</ele><time>2026-04-20T16:34:20.616Z</time></trkpt><trkpt lat="45.36799" lon="9.7150317"><ele>78.8</ele><time>2026-04-20T16:34:22.616Z</time></trkpt><trkpt lat="45.368025" lon="9.7148717"><ele>79.2</ele><time>2026-04-20T16:34:24.616Z</time></trkpt><trkpt lat="45.368065" lon="9.714715"><ele>79.6</ele><time>2026-04-20T16:34:26.617Z</time></trkpt><trkpt lat="45.368085" lon="9.71463"><ele>80.0</ele><time>2026-04-20T16:34:27.616Z</time></trkpt><trkpt lat="45.3681217" lon="9.71448"><ele>79.0</ele><time>2026-04-20T16:34:29.616Z</time></trkpt><trkpt lat="45.36816" lon="9.7143417"><ele>78.0</ele><time>2026-04-20T16:34:31.616Z</time></trkpt><trkpt lat="45.3681933" lon="9.7142033"><ele>77.0</ele><time>2026-04-20T16:34:33.617Z</time></trkpt><trkpt lat="45.3682283" lon="9.7140467"><ele>76.0</ele><time>2026-04-20T16:34:35.616Z</time></trkpt><trkpt lat="45.3682667" lon="9.7138783"><ele>75.0</ele><time>2026-04-20T16:34:37.616Z</time></trkpt><trkpt lat="45.3683017" lon="9.7137233"><ele>75.0</ele><time>2026-04-20T16:34:39.616Z</time></trkpt><trkpt lat="45.368335" lon="9.7135683"><ele>75.0</ele><time>2026-04-20T16:34:41.616Z</time></trkpt><trkpt lat="45.3683783" lon="9.7134083"><ele>75.0</ele><time>2026-04-20T16:34:43.616Z</time></trkpt><trkpt lat="45.3684133" lon="9.7132567"><ele>75.0</ele><time>2026-04-20T16:34:45.617Z</time></trkpt><trkpt lat="45.3684483" lon="9.7130917"><ele>75.0</ele><time>2026-04-20T16:34:47.616Z</time></trkpt><trkpt lat="45.3684683" lon="9.7130067"><ele>75.0</ele><time>2026-04-20T16:34:48.616Z</time></trkpt><trkpt lat="45.3685083" lon="9.7128517"><ele>75.0</ele><time>2026-04-20T16:34:50.616Z</time></trkpt><trkpt lat="45.36855" lon="9.71269"><ele>75.0</ele><time>2026-04-20T16:34:52.616Z</time></trkpt><trkpt lat="45.3685867" lon="9.7125267"><ele>75.0</ele><time>2026-04-20T16:34:54.616Z</time></trkpt><trkpt lat="45.3686233" lon="9.712365"><ele>74.6</ele><time>2026-04-20T16:34:56.616Z</time></trkpt><trkpt lat="45.36866" lon="9.71221"><ele>74.2</ele><time>2026-04-20T16:34:58.616Z</time></trkpt><trkpt lat="45.3686917" lon="9.7120667"><ele>73.8</ele><time>2026-04-20T16:35:00.616Z</time></trkpt><trkpt lat="45.3687233" lon="9.7119267"><ele>73.4</ele><time>2026-04-20T16:35:02.616Z</time></trkpt><trkpt lat="45.36876" lon="9.7117833"><ele>73.0</ele><time>2026-04-20T16:35:04.616Z</time></trkpt><trkpt lat="45.3687917" lon="9.7116333"><ele>73.0</ele><time>2026-04-20T16:35:06.616Z</time></trkpt><trkpt lat="45.3688283" lon="9.7114817"><ele>73.0</ele><time>2026-04-20T16:35:08.616Z</time></trkpt><trkpt lat="45.36886" lon="9.711335"><ele>73.0</ele><time>2026-04-20T16:35:10.616Z</time></trkpt><trkpt lat="45.3688883" lon="9.7112"><ele>73.0</ele><time>2026-04-20T16:35:12.616Z</time></trkpt><trkpt lat="45.36892" lon="9.71108"><ele>73.0</ele><time>2026-04-20T16:35:14.616Z</time></trkpt><trkpt lat="45.3689517" lon="9.710945"><ele>73.6</ele><time>2026-04-20T16:35:16.616Z</time></trkpt><trkpt lat="45.3689817" lon="9.710815"><ele>74.19999999999999</ele><time>2026-04-20T16:35:18.616Z</time></trkpt><trkpt lat="45.3690067" lon="9.7106767"><ele>74.8</ele><time>2026-04-20T16:35:20.617Z</time></trkpt><trkpt lat="45.36904" lon="9.7105317"><ele>75.39999999999999</ele><time>2026-04-20T16:35:22.616Z</time></trkpt><trkpt lat="45.3690783" lon="9.7103933"><ele>76.0</ele><time>2026-04-20T16:35:24.616Z</time></trkpt><trkpt lat="45.3691183" lon="9.710285"><ele>75.66666666666666</ele><time>2026-04-20T16:35:26.616Z</time></trkpt><trkpt lat="45.3691467" lon="9.7102017"><ele>75.33333333333333</ele><time>2026-04-20T16:35:28.616Z</time></trkpt><trkpt lat="45.3691633" lon="9.7100817"><ele>75.0</ele><time>2026-04-20T16:35:31.616Z</time></trkpt><trkpt lat="45.3691883" lon="9.7099667"><ele>74.66666666666667</ele><time>2026-04-20T16:35:34.616Z</time></trkpt><trkpt lat="45.3691683" lon="9.709865"><ele>74.33333333333334</ele><time>2026-04-20T16:35:36.616Z</time></trkpt><trkpt lat="45.369135" lon="9.7097517"><ele>74.0</ele><time>2026-04-20T16:35:38.616Z</time></trkpt><trkpt lat="45.3690967" lon="9.7096333"><ele>74.0</ele><time>2026-04-20T16:35:40.617Z</time></trkpt><trkpt lat="45.3690583" lon="9.7095083"><ele>74.0</ele><time>2026-04-20T16:35:42.616Z</time></trkpt><trkpt lat="45.3690333" lon="9.7093783"><ele>74.0</ele><time>2026-04-20T16:35:44.616Z</time></trkpt><trkpt lat="45.36907" lon="9.7092833"><ele>74.0</ele><time>2026-04-20T16:35:46.616Z</time></trkpt><trkpt lat="45.369105" lon="9.7091633"><ele>74.0</ele><time>2026-04-20T16:35:48.616Z</time></trkpt><trkpt lat="45.3691267" lon="9.7090067"><ele>74.0</ele><time>2026-04-20T16:35:50.616Z</time></trkpt><trkpt lat="45.36913" lon="9.7088433"><ele>74.0</ele><time>2026-04-20T16:35:52.616Z</time></trkpt><trkpt lat="45.369125" lon="9.7086717"><ele>74.0</ele><time>2026-04-20T16:35:54.616Z</time></trkpt><trkpt lat="45.3690983" lon="9.7085133"><ele>74.0</ele><time>2026-04-20T16:35:56.616Z</time></trkpt><trkpt lat="45.3690683" lon="9.7083467"><ele>74.0</ele><time>2026-04-20T16:35:58.617Z</time></trkpt><trkpt lat="45.3690267" lon="9.7081867"><ele>74.0</ele><time>2026-04-20T16:36:00.616Z</time></trkpt><trkpt lat="45.3689883" lon="9.7080283"><ele>74.0</ele><time>2026-04-20T16:36:02.616Z</time></trkpt><trkpt lat="45.3689533" lon="9.7078717"><ele>74.0</ele><time>2026-04-20T16:36:04.617Z</time></trkpt><trkpt lat="45.3689133" lon="9.70771"><ele>74.0</ele><time>2026-04-20T16:36:06.616Z</time></trkpt><trkpt lat="45.3688717" lon="9.7075417"><ele>74.0</ele><time>2026-04-20T16:36:08.616Z</time></trkpt><trkpt lat="45.3688367" lon="9.707375"><ele>74.0</ele><time>2026-04-20T16:36:10.616Z</time></trkpt><trkpt lat="45.3688017" lon="9.7072133"><ele>74.0</ele><time>2026-04-20T16:36:12.616Z</time></trkpt><trkpt lat="45.3687683" lon="9.707055"><ele>74.25</ele><time>2026-04-20T16:36:14.616Z</time></trkpt><trkpt lat="45.368725" lon="9.7069"><ele>74.5</ele><time>2026-04-20T16:36:16.617Z</time></trkpt><trkpt lat="45.3686883" lon="9.70675"><ele>74.75</ele><time>2026-04-20T16:36:18.616Z</time></trkpt><trkpt lat="45.3686517" lon="9.7065917"><ele>75.0</ele><time>2026-04-20T16:36:20.617Z</time></trkpt><trkpt lat="45.3686167" lon="9.7064283"><ele>75.0</ele><time>2026-04-20T16:36:22.616Z</time></trkpt><trkpt lat="45.3685833" lon="9.7062733"><ele>75.0</ele><time>2026-04-20T16:36:24.616Z</time></trkpt><trkpt lat="45.3685483" lon="9.7061167"><ele>75.0</ele><time>2026-04-20T16:36:26.616Z</time></trkpt><trkpt lat="45.3685133" lon="9.705965"><ele>75.0</ele><time>2026-04-20T16:36:28.616Z</time></trkpt><trkpt lat="45.3684933" lon="9.70588"><ele>75.0</ele><time>2026-04-20T16:36:29.617Z</time></trkpt><trkpt lat="45.3684733" lon="9.7057917"><ele>74.75</ele><time>2026-04-20T16:36:30.616Z</time></trkpt><trkpt lat="45.3684367" lon="9.705645"><ele>74.5</ele><time>2026-04-20T16:36:32.616Z</time></trkpt><trkpt lat="45.3683967" lon="9.7054917"><ele>74.25</ele><time>2026-04-20T16:36:34.617Z</time></trkpt><trkpt lat="45.3683617" lon="9.7053233"><ele>74.0</ele><time>2026-04-20T16:36:36.616Z</time></trkpt><trkpt lat="45.368325" lon="9.7051633"><ele>73.5</ele><time>2026-04-20T16:36:38.616Z</time></trkpt><trkpt lat="45.3682883" lon="9.7050067"><ele>73.0</ele><time>2026-04-20T16:36:40.616Z</time></trkpt><trkpt lat="45.3682506" lon="9.7048425"><ele>72.5</ele><time>2026-04-20T16:36:42.617Z</time></trkpt><trkpt lat="45.3682085" lon="9.7046827"><ele>72.0</ele><time>2026-04-20T16:36:44.616Z</time></trkpt><trkpt lat="45.3681733" lon="9.704521"><ele>72.25</ele><time>2026-04-20T16:36:46.616Z</time></trkpt><trkpt lat="45.3681419" lon="9.704364"><ele>72.5</ele><time>2026-04-20T16:36:48.616Z</time></trkpt><trkpt lat="45.3681065" lon="9.7042057"><ele>72.75</ele><time>2026-04-20T16:36:50.616Z</time></trkpt><trkpt lat="45.368069" lon="9.7040455"><ele>73.0</ele><time>2026-04-20T16:36:52.616Z</time></trkpt><trkpt lat="45.3680373" lon="9.7038838"><ele>73.2</ele><time>2026-04-20T16:36:54.616Z</time></trkpt><trkpt lat="45.3680182" lon="9.7037334"><ele>73.4</ele><time>2026-04-20T16:36:56.616Z</time></trkpt><trkpt lat="45.3679986" lon="9.7035842"><ele>73.60000000000001</ele><time>2026-04-20T16:36:58.616Z</time></trkpt><trkpt lat="45.3679828" lon="9.7034264"><ele>73.8</ele><time>2026-04-20T16:37:00.616Z</time></trkpt><trkpt lat="45.3679676" lon="9.7032691"><ele>74.0</ele><time>2026-04-20T16:37:02.616Z</time></trkpt><trkpt lat="45.3679545" lon="9.7031112"><ele>74.0</ele><time>2026-04-20T16:37:04.616Z</time></trkpt><trkpt lat="45.367941" lon="9.7029511"><ele>74.0</ele><time>2026-04-20T16:37:06.617Z</time></trkpt><trkpt lat="45.3679285" lon="9.7027818"><ele>74.0</ele><time>2026-04-20T16:37:08.616Z</time></trkpt><trkpt lat="45.3679224" lon="9.7026179"><ele>74.0</ele><time>2026-04-20T16:37:10.616Z</time></trkpt><trkpt lat="45.3679212" lon="9.7024605"><ele>74.0</ele><time>2026-04-20T16:37:12.616Z</time></trkpt><trkpt lat="45.3679183" lon="9.7022933"><ele>74.0</ele><time>2026-04-20T16:37:14.616Z</time></trkpt><trkpt lat="45.3679217" lon="9.7021367"><ele>74.0</ele><time>2026-04-20T16:37:16.616Z</time></trkpt><trkpt lat="45.3679333" lon="9.70198"><ele>74.0</ele><time>2026-04-20T16:37:18.616Z</time></trkpt><trkpt lat="45.3679417" lon="9.7018217"><ele>74.0</ele><time>2026-04-20T16:37:20.616Z</time></trkpt><trkpt lat="45.3679517" lon="9.7016733"><ele>74.0</ele><time>2026-04-20T16:37:22.616Z</time></trkpt><trkpt lat="45.36796" lon="9.7015283"><ele>74.0</ele><time>2026-04-20T16:37:24.616Z</time></trkpt><trkpt lat="45.3679667" lon="9.7013917"><ele>74.0</ele><time>2026-04-20T16:37:26.615Z</time></trkpt><trkpt lat="45.36797" lon="9.7012417"><ele>74.0</ele><time>2026-04-20T16:37:28.616Z</time></trkpt><trkpt lat="45.367975" lon="9.7010733"><ele>73.5</ele><time>2026-04-20T16:37:30.616Z</time></trkpt><trkpt lat="45.3679783" lon="9.7009833"><ele>73.0</ele><time>2026-04-20T16:37:31.615Z</time></trkpt><trkpt lat="45.367995" lon="9.7007967"><ele>72.5</ele><time>2026-04-20T16:37:33.615Z</time></trkpt><trkpt lat="45.368015" lon="9.7006967"><ele>72.0</ele><time>2026-04-20T16:37:34.615Z</time></trkpt><trkpt lat="45.3680417" lon="9.700595"><ele>71.5</ele><time>2026-04-20T16:37:35.615Z</time></trkpt><trkpt lat="45.3680667" lon="9.7004967"><ele>71.0</ele><time>2026-04-20T16:37:36.616Z</time></trkpt><trkpt lat="45.36809" lon="9.7004017"><ele>71.0</ele><time>2026-04-20T16:37:37.615Z</time></trkpt><trkpt lat="45.36811" lon="9.7003117"><ele>71.0</ele><time>2026-04-20T16:37:38.615Z</time></trkpt><trkpt lat="45.368145" lon="9.70015"><ele>71.0</ele><time>2026-04-20T16:37:40.616Z</time></trkpt><trkpt lat="45.36816" lon="9.6999867"><ele>71.0</ele><time>2026-04-20T16:37:42.615Z</time></trkpt><trkpt lat="45.3681683" lon="9.69982"><ele>71.0</ele><time>2026-04-20T16:37:44.616Z</time></trkpt><trkpt lat="45.368175" lon="9.6997283"><ele>70.83333333333334</ele><time>2026-04-20T16:37:45.615Z</time></trkpt><trkpt lat="45.36818" lon="9.6996333"><ele>70.66666666666667</ele><time>2026-04-20T16:37:46.615Z</time></trkpt><trkpt lat="45.3681617" lon="9.6994667"><ele>70.5</ele><time>2026-04-20T16:37:48.615Z</time></trkpt><trkpt lat="45.368145" lon="9.69938"><ele>70.33333333333333</ele><time>2026-04-20T16:37:49.615Z</time></trkpt><trkpt lat="45.3680667" lon="9.6992483"><ele>70.16666666666666</ele><time>2026-04-20T16:37:51.615Z</time></trkpt><trkpt lat="45.3680067" lon="9.699195"><ele>70.0</ele><time>2026-04-20T16:37:52.615Z</time></trkpt><trkpt lat="45.36789" lon="9.69913"><ele>69.85714285714286</ele><time>2026-04-20T16:37:54.615Z</time></trkpt><trkpt lat="45.3678233" lon="9.6991083"><ele>69.71428571428572</ele><time>2026-04-20T16:37:55.615Z</time></trkpt><trkpt lat="45.367755" lon="9.6990917"><ele>69.57142857142857</ele><time>2026-04-20T16:37:56.615Z</time></trkpt><trkpt lat="45.3676867" lon="9.6990717"><ele>69.42857142857143</ele><time>2026-04-20T16:37:57.615Z</time></trkpt><trkpt lat="45.3676183" lon="9.699045"><ele>69.28571428571429</ele><time>2026-04-20T16:37:58.615Z</time></trkpt><trkpt lat="45.3675533" lon="9.6990133"><ele>69.14285714285714</ele><time>2026-04-20T16:37:59.616Z</time></trkpt><trkpt lat="45.367485" lon="9.69898"><ele>69.0</ele><time>2026-04-20T16:38:00.615Z</time></trkpt><trkpt lat="45.3674183" lon="9.6989517"><ele>69.0</ele><time>2026-04-20T16:38:01.615Z</time></trkpt><trkpt lat="45.3673517" lon="9.6989283"><ele>69.0</ele><time>2026-04-20T16:38:02.615Z</time></trkpt><trkpt lat="45.367285" lon="9.6989017"><ele>69.0</ele><time>2026-04-20T16:38:03.615Z</time></trkpt><trkpt lat="45.3672183" lon="9.69888"><ele>69.0</ele><time>2026-04-20T16:38:04.615Z</time></trkpt><trkpt lat="45.3671517" lon="9.698865"><ele>69.0</ele><time>2026-04-20T16:38:05.616Z</time></trkpt><trkpt lat="45.3670867" lon="9.6988567"><ele>69.0</ele><time>2026-04-20T16:38:06.616Z</time></trkpt><trkpt lat="45.36702" lon="9.698845"><ele>69.0</ele><time>2026-04-20T16:38:07.615Z</time></trkpt><trkpt lat="45.3669517" lon="9.6988383"><ele>69.14285714285714</ele><time>2026-04-20T16:38:08.616Z</time></trkpt><trkpt lat="45.36688" lon="9.69883"><ele>69.28571428571429</ele><time>2026-04-20T16:38:09.616Z</time></trkpt><trkpt lat="45.3668117" lon="9.6988217"><ele>69.42857142857143</ele><time>2026-04-20T16:38:10.615Z</time></trkpt><trkpt lat="45.36674" lon="9.6988033"><ele>69.57142857142857</ele><time>2026-04-20T16:38:11.615Z</time></trkpt><trkpt lat="45.3666767" lon="9.698785"><ele>69.71428571428572</ele><time>2026-04-20T16:38:12.615Z</time></trkpt><trkpt lat="45.3666117" lon="9.6987667"><ele>69.85714285714286</ele><time>2026-04-20T16:38:13.615Z</time></trkpt><trkpt lat="45.3665483" lon="9.698745"><ele>70.0</ele><time>2026-04-20T16:38:14.615Z</time></trkpt><trkpt lat="45.3664817" lon="9.6987167"><ele>70.0</ele><time>2026-04-20T16:38:15.616Z</time></trkpt><trkpt lat="45.366415" lon="9.6986867"><ele>70.0</ele><time>2026-04-20T16:38:16.615Z</time></trkpt><trkpt lat="45.366355" lon="9.6986583"><ele>70.0</ele><time>2026-04-20T16:38:17.615Z</time></trkpt><trkpt lat="45.3662933" lon="9.6986367"><ele>70.0</ele><time>2026-04-20T16:38:18.615Z</time></trkpt><trkpt lat="45.3662283" lon="9.6986183"><ele>70.0</ele><time>2026-04-20T16:38:19.615Z</time></trkpt><trkpt lat="45.3661667" lon="9.6985983"><ele>70.0</ele><time>2026-04-20T16:38:20.615Z</time></trkpt><trkpt lat="45.3661033" lon="9.6985683"><ele>70.0</ele><time>2026-04-20T16:38:21.615Z</time></trkpt><trkpt lat="45.3659933" lon="9.6985067"><ele>70.0</ele><time>2026-04-20T16:38:23.615Z</time></trkpt><trkpt lat="45.3659083" lon="9.6984117"><ele>70.0</ele><time>2026-04-20T16:38:25.615Z</time></trkpt><trkpt lat="45.36582" lon="9.6983017"><ele>70.0</ele><time>2026-04-20T16:38:27.615Z</time></trkpt><trkpt lat="45.365715" lon="9.6982183"><ele>70.0</ele><time>2026-04-20T16:38:29.615Z</time></trkpt><trkpt lat="45.3656067" lon="9.698135"><ele>70.5</ele><time>2026-04-20T16:38:31.615Z</time></trkpt><trkpt lat="45.3655" lon="9.6980517"><ele>71.0</ele><time>2026-04-20T16:38:33.615Z</time></trkpt><trkpt lat="45.3653967" lon="9.6979783"><ele>71.5</ele><time>2026-04-20T16:38:35.615Z</time></trkpt><trkpt lat="45.3652917" lon="9.6979083"><ele>72.0</ele><time>2026-04-20T16:38:37.616Z</time></trkpt><trkpt lat="45.3651717" lon="9.6978367"><ele>72.0</ele><time>2026-04-20T16:38:39.616Z</time></trkpt><trkpt lat="45.3651117" lon="9.6978033"><ele>72.0</ele><time>2026-04-20T16:38:40.615Z</time></trkpt><trkpt lat="45.36505" lon="9.69777"><ele>72.0</ele><time>2026-04-20T16:38:41.615Z</time></trkpt><trkpt lat="45.3649333" lon="9.6977283"><ele>72.0</ele><time>2026-04-20T16:38:43.615Z</time></trkpt><trkpt lat="45.3648267" lon="9.6976867"><ele>72.0</ele><time>2026-04-20T16:38:45.615Z</time></trkpt><trkpt lat="45.3647167" lon="9.697635"><ele>71.6</ele><time>2026-04-20T16:38:47.615Z</time></trkpt><trkpt lat="45.3645933" lon="9.6975767"><ele>71.2</ele><time>2026-04-20T16:38:49.615Z</time></trkpt><trkpt lat="45.364475" lon="9.6975283"><ele>70.8</ele><time>2026-04-20T16:38:51.615Z</time></trkpt><trkpt lat="45.3644083" lon="9.6974967"><ele>70.4</ele><time>2026-04-20T16:38:52.615Z</time></trkpt><trkpt lat="45.3643417" lon="9.6974567"><ele>70.0</ele><time>2026-04-20T16:38:53.615Z</time></trkpt><trkpt lat="45.3642717" lon="9.6974333"><ele>70.0</ele><time>2026-04-20T16:38:54.615Z</time></trkpt><trkpt lat="45.364205" lon="9.697415"><ele>70.0</ele><time>2026-04-20T16:38:55.615Z</time></trkpt><trkpt lat="45.3641383" lon="9.697395"><ele>70.0</ele><time>2026-04-20T16:38:56.615Z</time></trkpt><trkpt lat="45.36406" lon="9.6973783"><ele>70.0</ele><time>2026-04-20T16:38:57.615Z</time></trkpt><trkpt lat="45.3639833" lon="9.697365"><ele>70.0</ele><time>2026-04-20T16:38:58.615Z</time></trkpt><trkpt lat="45.3638533" lon="9.6973567"><ele>70.0</ele><time>2026-04-20T16:39:00.615Z</time></trkpt><trkpt lat="45.363785" lon="9.6973517"><ele>70.0</ele><time>2026-04-20T16:39:01.615Z</time></trkpt><trkpt lat="45.3637017" lon="9.697325"><ele>70.0</ele><time>2026-04-20T16:39:02.615Z</time></trkpt><trkpt lat="45.3636283" lon="9.6973017"><ele>70.0</ele><time>2026-04-20T16:39:03.615Z</time></trkpt><trkpt lat="45.3635583" lon="9.6972917"><ele>70.0</ele><time>2026-04-20T16:39:04.615Z</time></trkpt><trkpt lat="45.3634883" lon="9.6972783"><ele>70.0</ele><time>2026-04-20T16:39:05.615Z</time></trkpt><trkpt lat="45.363425" lon="9.6972633"><ele>70.0</ele><time>2026-04-20T16:39:06.615Z</time></trkpt><trkpt lat="45.3633567" lon="9.6972583"><ele>70.0</ele><time>2026-04-20T16:39:07.615Z</time></trkpt><trkpt lat="45.3632917" lon="9.69725"><ele>70.0</ele><time>2026-04-20T16:39:08.615Z</time></trkpt><trkpt lat="45.3632233" lon="9.6972517"><ele>70.0</ele><time>2026-04-20T16:39:09.616Z</time></trkpt><trkpt lat="45.3631533" lon="9.69725"><ele>70.0</ele><time>2026-04-20T16:39:10.615Z</time></trkpt><trkpt lat="45.36308" lon="9.697245"><ele>70.0</ele><time>2026-04-20T16:39:11.615Z</time></trkpt><trkpt lat="45.3630083" lon="9.6972383"><ele>70.0</ele><time>2026-04-20T16:39:12.615Z</time></trkpt><trkpt lat="45.3629433" lon="9.6972167"><ele>70.0</ele><time>2026-04-20T16:39:13.615Z</time></trkpt><trkpt lat="45.3628767" lon="9.6972133"><ele>70.0</ele><time>2026-04-20T16:39:14.616Z</time></trkpt><trkpt lat="45.3628117" lon="9.697205"><ele>69.66666666666666</ele><time>2026-04-20T16:39:15.615Z</time></trkpt><trkpt lat="45.3627417" lon="9.6972"><ele>69.33333333333333</ele><time>2026-04-20T16:39:16.615Z</time></trkpt><trkpt lat="45.362675" lon="9.6971933"><ele>69.0</ele><time>2026-04-20T16:39:17.615Z</time></trkpt><trkpt lat="45.36261" lon="9.697185"><ele>68.66666666666667</ele><time>2026-04-20T16:39:18.615Z</time></trkpt><trkpt lat="45.362545" lon="9.6971767"><ele>68.33333333333334</ele><time>2026-04-20T16:39:19.615Z</time></trkpt><trkpt lat="45.36243" lon="9.69716"><ele>68.0</ele><time>2026-04-20T16:39:21.615Z</time></trkpt><trkpt lat="45.362325" lon="9.6971483"><ele>68.0</ele><time>2026-04-20T16:39:23.615Z</time></trkpt><trkpt lat="45.3622467" lon="9.6971333"><ele>68.0</ele><time>2026-04-20T16:39:25.615Z</time></trkpt><trkpt lat="45.3621583" lon="9.6971217"><ele>68.0</ele><time>2026-04-20T16:39:28.616Z</time></trkpt><trkpt lat="45.3620883" lon="9.697125"><ele>68.0</ele><time>2026-04-20T16:39:30.615Z</time></trkpt><trkpt lat="45.3620117" lon="9.6971233"><ele>68.0</ele><time>2026-04-20T16:39:32.615Z</time></trkpt><trkpt lat="45.3619217" lon="9.6971117"><ele>68.0</ele><time>2026-04-20T16:39:34.615Z</time></trkpt><trkpt lat="45.3618233" lon="9.697105"><ele>68.16666666666667</ele><time>2026-04-20T16:39:36.615Z</time></trkpt><trkpt lat="45.3617367" lon="9.6970967"><ele>68.33333333333334</ele><time>2026-04-20T16:39:38.615Z</time></trkpt><trkpt lat="45.3616533" lon="9.6970817"><ele>68.5</ele><time>2026-04-20T16:39:40.615Z</time></trkpt><trkpt lat="45.361565" lon="9.6970567"><ele>68.66666666666667</ele><time>2026-04-20T16:39:42.615Z</time></trkpt><trkpt lat="45.36148" lon="9.6970467"><ele>68.83333333333333</ele><time>2026-04-20T16:39:44.616Z</time></trkpt><trkpt lat="45.3614083" lon="9.6970317"><ele>69.0</ele><time>2026-04-20T16:39:46.615Z</time></trkpt><trkpt lat="45.3613317" lon="9.69701"><ele>69.0</ele><time>2026-04-20T16:39:48.615Z</time></trkpt><trkpt lat="45.3612317" lon="9.696985"><ele>69.0</ele><time>2026-04-20T16:39:50.615Z</time></trkpt><trkpt lat="45.3611267" lon="9.6969633"><ele>69.0</ele><time>2026-04-20T16:39:52.615Z</time></trkpt><trkpt lat="45.3610267" lon="9.6969283"><ele>69.0</ele><time>2026-04-20T16:39:54.615Z</time></trkpt><trkpt lat="45.3609267" lon="9.696895"><ele>69.0</ele><time>2026-04-20T16:39:56.615Z</time></trkpt><trkpt lat="45.3608233" lon="9.6968533"><ele>68.5</ele><time>2026-04-20T16:39:58.615Z</time></trkpt><trkpt lat="45.360725" lon="9.69681"><ele>68.0</ele><time>2026-04-20T16:40:00.615Z</time></trkpt><trkpt lat="45.3606183" lon="9.69674"><ele>67.5</ele><time>2026-04-20T16:40:02.615Z</time></trkpt><trkpt lat="45.3605067" lon="9.6966717"><ele>67.0</ele><time>2026-04-20T16:40:04.615Z</time></trkpt><trkpt lat="45.3604017" lon="9.6966367"><ele>66.75</ele><time>2026-04-20T16:40:06.615Z</time></trkpt><trkpt lat="45.3603017" lon="9.6965683"><ele>66.5</ele><time>2026-04-20T16:40:08.615Z</time></trkpt><trkpt lat="45.3602033" lon="9.6964967"><ele>66.25</ele><time>2026-04-20T16:40:10.615Z</time></trkpt><trkpt lat="45.3601" lon="9.69642"><ele>66.0</ele><time>2026-04-20T16:40:12.615Z</time></trkpt><trkpt lat="45.359995" lon="9.6963483"><ele>66.0</ele><time>2026-04-20T16:40:14.615Z</time></trkpt><trkpt lat="45.3598967" lon="9.69627"><ele>66.0</ele><time>2026-04-20T16:40:16.615Z</time></trkpt><trkpt lat="45.3597933" lon="9.6961967"><ele>66.0</ele><time>2026-04-20T16:40:18.616Z</time></trkpt><trkpt lat="45.3597" lon="9.6961083"><ele>66.0</ele><time>2026-04-20T16:40:20.615Z</time></trkpt><trkpt lat="45.3596" lon="9.6960117"><ele>66.0</ele><time>2026-04-20T16:40:22.615Z</time></trkpt><trkpt lat="45.3595133" lon="9.6959017"><ele>66.0</ele><time>2026-04-20T16:40:24.615Z</time></trkpt><trkpt lat="45.359425" lon="9.695845"><ele>66.0</ele><time>2026-04-20T16:40:26.615Z</time></trkpt><trkpt lat="45.3593367" lon="9.6957467"><ele>66.0</ele><time>2026-04-20T16:40:28.615Z</time></trkpt><trkpt lat="45.359245" lon="9.6956567"><ele>66.0</ele><time>2026-04-20T16:40:30.615Z</time></trkpt><trkpt lat="45.3591567" lon="9.69557"><ele>66.0</ele><time>2026-04-20T16:40:32.615Z</time></trkpt><trkpt lat="45.359055" lon="9.6954633"><ele>66.0</ele><time>2026-04-20T16:40:34.615Z</time></trkpt><trkpt lat="45.3589583" lon="9.6953483"><ele>66.0</ele><time>2026-04-20T16:40:36.615Z</time></trkpt><trkpt lat="45.3588683" lon="9.6952467"><ele>66.0</ele><time>2026-04-20T16:40:38.615Z</time></trkpt><trkpt lat="45.3587783" lon="9.6951533"><ele>67.6</ele><time>2026-04-20T16:40:40.615Z</time></trkpt><trkpt lat="45.3586933" lon="9.6950633"><ele>69.19999999999999</ele><time>2026-04-20T16:40:42.615Z</time></trkpt><trkpt lat="45.358605" lon="9.69497"><ele>70.80000000000001</ele><time>2026-04-20T16:40:44.616Z</time></trkpt><trkpt lat="45.35851" lon="9.6948817"><ele>72.4</ele><time>2026-04-20T16:40:46.615Z</time></trkpt><trkpt lat="45.3584617" lon="9.6948233"><ele>74.0</ele><time>2026-04-20T16:40:47.615Z</time></trkpt><trkpt lat="45.35837" lon="9.6947467"><ele>74.0</ele><time>2026-04-20T16:40:49.615Z</time></trkpt><trkpt lat="45.3582833" lon="9.6946983"><ele>74.0</ele><time>2026-04-20T16:40:51.615Z</time></trkpt><trkpt lat="45.35821" lon="9.69463"><ele>74.0</ele><time>2026-04-20T16:40:53.615Z</time></trkpt><trkpt lat="45.3581517" lon="9.6945317"><ele>74.0</ele><time>2026-04-20T16:40:55.616Z</time></trkpt><trkpt lat="45.3580967" lon="9.6944467"><ele>74.0</ele><time>2026-04-20T16:40:57.615Z</time></trkpt><trkpt lat="45.358015" lon="9.6943917"><ele>74.0</ele><time>2026-04-20T16:41:00.615Z</time></trkpt><trkpt lat="45.35795" lon="9.6943867"><ele>73.83333333333334</ele><time>2026-04-20T16:41:02.615Z</time></trkpt><trkpt lat="45.3578883" lon="9.6942967"><ele>73.66666666666667</ele><time>2026-04-20T16:41:06.615Z</time></trkpt><trkpt lat="45.357815" lon="9.6942417"><ele>73.5</ele><time>2026-04-20T16:41:08.615Z</time></trkpt><trkpt lat="45.3577317" lon="9.694195"><ele>73.33333333333333</ele><time>2026-04-20T16:41:10.616Z</time></trkpt><trkpt lat="45.3576583" lon="9.6941517"><ele>73.16666666666666</ele><time>2026-04-20T16:41:12.615Z</time></trkpt><trkpt lat="45.357595" lon="9.69412"><ele>73.0</ele><time>2026-04-20T16:41:14.615Z</time></trkpt><trkpt lat="45.3575267" lon="9.6940733"><ele>73.0</ele><time>2026-04-20T16:41:16.615Z</time></trkpt><trkpt lat="45.35747" lon="9.6940267"><ele>73.0</ele><time>2026-04-20T16:41:18.616Z</time></trkpt><trkpt lat="45.3574167" lon="9.6939667"><ele>73.0</ele><time>2026-04-20T16:41:20.616Z</time></trkpt><trkpt lat="45.3573567" lon="9.69391"><ele>73.0</ele><time>2026-04-20T16:41:22.615Z</time></trkpt><trkpt lat="45.357285" lon="9.6938983"><ele>73.0</ele><time>2026-04-20T16:41:24.615Z</time></trkpt><trkpt lat="45.3572183" lon="9.6938633"><ele>73.0</ele><time>2026-04-20T16:41:26.615Z</time></trkpt><trkpt lat="45.3571567" lon="9.69382"><ele>73.0</ele><time>2026-04-20T16:41:28.615Z</time></trkpt><trkpt lat="45.357085" lon="9.6937467"><ele>72.83333333333333</ele><time>2026-04-20T16:41:31.615Z</time></trkpt><trkpt lat="45.3570133" lon="9.6937117"><ele>72.66666666666666</ele><time>2026-04-20T16:41:33.615Z</time></trkpt><trkpt lat="45.35693" lon="9.693665"><ele>72.5</ele><time>2026-04-20T16:41:35.615Z</time></trkpt><trkpt lat="45.356865" lon="9.6936217"><ele>72.33333333333333</ele><time>2026-04-20T16:41:37.615Z</time></trkpt><trkpt lat="45.3567817" lon="9.6935867"><ele>72.16666666666667</ele><time>2026-04-20T16:41:39.615Z</time></trkpt><trkpt lat="45.3567083" lon="9.69354"><ele>72.0</ele><time>2026-04-20T16:41:41.615Z</time></trkpt><trkpt lat="45.3566317" lon="9.69354"><ele>71.5</ele><time>2026-04-20T16:41:43.615Z</time></trkpt><trkpt lat="45.35656" lon="9.69351"><ele>71.0</ele><time>2026-04-20T16:41:45.616Z</time></trkpt><trkpt lat="45.3564817" lon="9.6934667"><ele>70.5</ele><time>2026-04-20T16:41:47.615Z</time></trkpt><trkpt lat="45.3564" lon="9.6934467"><ele>70.0</ele><time>2026-04-20T16:41:49.615Z</time></trkpt><trkpt lat="45.3563117" lon="9.6934533"><ele>69.5</ele><time>2026-04-20T16:41:51.615Z</time></trkpt><trkpt lat="45.356225" lon="9.6934167"><ele>69.0</ele><time>2026-04-20T16:41:53.615Z</time></trkpt><trkpt lat="45.35614" lon="9.6934017"><ele>68.83333333333333</ele><time>2026-04-20T16:41:55.615Z</time></trkpt><trkpt lat="45.356055" lon="9.693405"><ele>68.66666666666667</ele><time>2026-04-20T16:41:57.615Z</time></trkpt><trkpt lat="45.3559717" lon="9.693375"><ele>68.5</ele><time>2026-04-20T16:41:59.615Z</time></trkpt><trkpt lat="45.3558917" lon="9.69337"><ele>68.33333333333334</ele><time>2026-04-20T16:42:01.615Z</time></trkpt><trkpt lat="45.3558117" lon="9.6933733"><ele>68.16666666666667</ele><time>2026-04-20T16:42:03.615Z</time></trkpt><trkpt lat="45.355715" lon="9.6933983"><ele>68.0</ele><time>2026-04-20T16:42:05.615Z</time></trkpt><trkpt lat="45.355625" lon="9.693375"><ele>68.0</ele><time>2026-04-20T16:42:07.615Z</time></trkpt><trkpt lat="45.355575" lon="9.69329"><ele>68.0</ele><time>2026-04-20T16:42:10.615Z</time></trkpt><trkpt lat="45.35549" lon="9.69328"><ele>68.0</ele><time>2026-04-20T16:42:13.615Z</time></trkpt><trkpt lat="45.3554033" lon="9.6932783"><ele>68.0</ele><time>2026-04-20T16:42:15.615Z</time></trkpt><trkpt lat="45.35532" lon="9.6932467"><ele>68.0</ele><time>2026-04-20T16:42:17.615Z</time></trkpt><trkpt lat="45.3552317" lon="9.6932633"><ele>68.0</ele><time>2026-04-20T16:42:19.615Z</time></trkpt><trkpt lat="45.3551567" lon="9.69329"><ele>68.5</ele><time>2026-04-20T16:42:21.615Z</time></trkpt><trkpt lat="45.355115" lon="9.6933733"><ele>69.0</ele><time>2026-04-20T16:42:24.616Z</time></trkpt><trkpt lat="45.3551033" lon="9.693485"><ele>69.5</ele><time>2026-04-20T16:42:27.615Z</time></trkpt><trkpt lat="45.3550783" lon="9.69361"><ele>70.0</ele><time>2026-04-20T16:42:30.615Z</time></trkpt><trkpt lat="45.3550617" lon="9.6937033"><ele>70.5</ele><time>2026-04-20T16:42:32.615Z</time></trkpt><trkpt lat="45.3550467" lon="9.6937967"><ele>71.0</ele><time>2026-04-20T16:42:34.615Z</time></trkpt><trkpt lat="45.3550283" lon="9.6938983"><ele>71.14285714285714</ele><time>2026-04-20T16:42:36.615Z</time></trkpt><trkpt lat="45.3550067" lon="9.6939933"><ele>71.28571428571428</ele><time>2026-04-20T16:42:38.615Z</time></trkpt><trkpt lat="45.3549767" lon="9.6940833"><ele>71.42857142857143</ele><time>2026-04-20T16:42:40.615Z</time></trkpt><trkpt lat="45.3549217" lon="9.694135"><ele>71.57142857142857</ele><time>2026-04-20T16:42:43.615Z</time></trkpt><trkpt lat="45.3548467" lon="9.6941367"><ele>71.71428571428572</ele><time>2026-04-20T16:43:43.615Z</time></trkpt><trkpt lat="45.354765" lon="9.6941167"><ele>71.85714285714286</ele><time>2026-04-20T16:43:46.616Z</time></trkpt><trkpt lat="45.3546883" lon="9.694105"><ele>72.0</ele><time>2026-04-20T16:43:48.615Z</time></trkpt><trkpt lat="45.35461" lon="9.6940817"><ele>72.2</ele><time>2026-04-20T16:43:50.616Z</time></trkpt><trkpt lat="45.3545283" lon="9.69404"><ele>72.4</ele><time>2026-04-20T16:43:52.615Z</time></trkpt><trkpt lat="45.3544517" lon="9.6940033"><ele>72.6</ele><time>2026-04-20T16:43:54.615Z</time></trkpt><trkpt lat="45.354355" lon="9.6939867"><ele>72.8</ele><time>2026-04-20T16:43:56.615Z</time></trkpt><trkpt lat="45.3542567" lon="9.69397"><ele>73.0</ele><time>2026-04-20T16:43:58.615Z</time></trkpt><trkpt lat="45.3541567" lon="9.6939767"><ele>73.0</ele><time>2026-04-20T16:44:00.615Z</time></trkpt><trkpt lat="45.354055" lon="9.693985"><ele>73.0</ele><time>2026-04-20T16:44:02.615Z</time></trkpt><trkpt lat="45.353945" lon="9.6939967"><ele>73.0</ele><time>2026-04-20T16:44:04.615Z</time></trkpt><trkpt lat="45.3538333" lon="9.6940267"><ele>73.0</ele><time>2026-04-20T16:44:06.615Z</time></trkpt><trkpt lat="45.3537217" lon="9.6940583"><ele>73.0</ele><time>2026-04-20T16:44:08.615Z</time></trkpt><trkpt lat="45.3535983" lon="9.6940917"><ele>73.25</ele><time>2026-04-20T16:44:10.615Z</time></trkpt><trkpt lat="45.3534817" lon="9.6941217"><ele>73.5</ele><time>2026-04-20T16:44:12.616Z</time></trkpt><trkpt lat="45.35337" lon="9.6941533"><ele>73.75</ele><time>2026-04-20T16:44:14.615Z</time></trkpt><trkpt lat="45.3532567" lon="9.694195"><ele>74.0</ele><time>2026-04-20T16:44:16.615Z</time></trkpt><trkpt lat="45.3531433" lon="9.69424"><ele>74.0</ele><time>2026-04-20T16:44:18.615Z</time></trkpt><trkpt lat="45.35303" lon="9.6942833"><ele>74.0</ele><time>2026-04-20T16:44:20.616Z</time></trkpt><trkpt lat="45.3529167" lon="9.6943267"><ele>74.0</ele><time>2026-04-20T16:44:22.615Z</time></trkpt><trkpt lat="45.3528" lon="9.6943667"><ele>74.0</ele><time>2026-04-20T16:44:24.616Z</time></trkpt><trkpt lat="45.3526833" lon="9.69441"><ele>73.60000000000001</ele><time>2026-04-20T16:44:26.615Z</time></trkpt><trkpt lat="45.3526217" lon="9.69443"><ele>73.2</ele><time>2026-04-20T16:44:27.615Z</time></trkpt><trkpt lat="45.35251" lon="9.6944733"><ele>72.80000000000001</ele><time>2026-04-20T16:44:29.615Z</time></trkpt><trkpt lat="45.35239" lon="9.6945167"><ele>72.4</ele><time>2026-04-20T16:44:31.615Z</time></trkpt><trkpt lat="45.3522783" lon="9.6945467"><ele>72.0</ele><time>2026-04-20T16:44:33.615Z</time></trkpt><trkpt lat="45.3521633" lon="9.6945933"><ele>71.75</ele><time>2026-04-20T16:44:35.615Z</time></trkpt><trkpt lat="45.35205" lon="9.6946333"><ele>71.5</ele><time>2026-04-20T16:44:37.616Z</time></trkpt><trkpt lat="45.3519367" lon="9.69469"><ele>71.25</ele><time>2026-04-20T16:44:39.615Z</time></trkpt><trkpt lat="45.3518167" lon="9.6947183"><ele>71.0</ele><time>2026-04-20T16:44:41.615Z</time></trkpt><trkpt lat="45.3517067" lon="9.6947633"><ele>71.0</ele><time>2026-04-20T16:44:43.614Z</time></trkpt><trkpt lat="45.3515967" lon="9.6948"><ele>71.0</ele><time>2026-04-20T16:44:45.614Z</time></trkpt><trkpt lat="45.3514883" lon="9.6948267"><ele>71.0</ele><time>2026-04-20T16:44:47.614Z</time></trkpt><trkpt lat="45.3513933" lon="9.69486"><ele>71.0</ele><time>2026-04-20T16:44:49.614Z</time></trkpt><trkpt lat="45.3513167" lon="9.6948983"><ele>71.0</ele><time>2026-04-20T16:44:51.614Z</time></trkpt><trkpt lat="45.35127" lon="9.6948083"><ele>71.0</ele><time>2026-04-20T16:44:54.614Z</time></trkpt><trkpt lat="45.3512633" lon="9.6946983"><ele>71.0</ele><time>2026-04-20T16:44:56.614Z</time></trkpt><trkpt lat="45.35125" lon="9.6945617"><ele>71.0</ele><time>2026-04-20T16:44:58.614Z</time></trkpt><trkpt lat="45.351235" lon="9.6944183"><ele>71.0</ele><time>2026-04-20T16:45:00.614Z</time></trkpt><trkpt lat="45.35123" lon="9.6942783"><ele>71.0</ele><time>2026-04-20T16:45:02.614Z</time></trkpt><trkpt lat="45.351215" lon="9.6941317"><ele>71.0</ele><time>2026-04-20T16:45:04.614Z</time></trkpt><trkpt lat="45.3511933" lon="9.6939833"><ele>71.0</ele><time>2026-04-20T16:45:06.615Z</time></trkpt><trkpt lat="45.3511783" lon="9.693825"><ele>71.0</ele><time>2026-04-20T16:45:08.614Z</time></trkpt><trkpt lat="45.3511683" lon="9.6936617"><ele>71.0</ele><time>2026-04-20T16:45:10.614Z</time></trkpt><trkpt lat="45.35113" lon="9.6935233"><ele>71.0</ele><time>2026-04-20T16:45:12.614Z</time></trkpt><trkpt lat="45.3511083" lon="9.6934233"><ele>70.6</ele><time>2026-04-20T16:45:14.614Z</time></trkpt><trkpt lat="45.35105" lon="9.693345"><ele>70.19999999999999</ele><time>2026-04-20T16:45:17.614Z</time></trkpt><trkpt lat="45.350975" lon="9.6933767"><ele>69.80000000000001</ele><time>2026-04-20T16:45:19.615Z</time></trkpt><trkpt lat="45.3508783" lon="9.6934433"><ele>69.4</ele><time>2026-04-20T16:45:21.614Z</time></trkpt><trkpt lat="45.3507717" lon="9.6934967"><ele>69.0</ele><time>2026-04-20T16:45:23.614Z</time></trkpt><trkpt lat="45.3506817" lon="9.69349"><ele>69.0</ele><time>2026-04-20T16:45:25.615Z</time></trkpt><trkpt lat="45.3505867" lon="9.69351"><ele>69.0</ele><time>2026-04-20T16:45:27.614Z</time></trkpt><trkpt lat="45.3504917" lon="9.6935567"><ele>69.0</ele><time>2026-04-20T16:45:29.614Z</time></trkpt><trkpt lat="45.3504067" lon="9.69359"><ele>69.0</ele><time>2026-04-20T16:45:31.614Z</time></trkpt><trkpt lat="45.350345" lon="9.6936233"><ele>69.0</ele><time>2026-04-20T16:45:33.614Z</time></trkpt><trkpt lat="45.3502767" lon="9.6936583"><ele>69.0</ele><time>2026-04-20T16:45:37.614Z</time></trkpt><trkpt lat="45.350195" lon="9.6937"><ele>68.5</ele><time>2026-04-20T16:45:40.614Z</time></trkpt><trkpt lat="45.3501333" lon="9.693735"><ele>68.0</ele><time>2026-04-20T16:45:44.614Z</time></trkpt><trkpt lat="45.3500667" lon="9.6937867"><ele>67.5</ele><time>2026-04-20T16:45:48.615Z</time></trkpt><trkpt lat="45.3499867" lon="9.6938517"><ele>67.0</ele><time>2026-04-20T16:45:51.614Z</time></trkpt><trkpt lat="45.349935" lon="9.693905"><ele>66.5</ele><time>2026-04-20T16:45:53.614Z</time></trkpt><trkpt lat="45.3498533" lon="9.69397"><ele>66.0</ele><time>2026-04-20T16:45:55.614Z</time></trkpt><trkpt lat="45.349765" lon="9.6940217"><ele>66.66666666666667</ele><time>2026-04-20T16:45:57.614Z</time></trkpt><trkpt lat="45.3497017" lon="9.6940783"><ele>67.33333333333333</ele><time>2026-04-20T16:45:59.614Z</time></trkpt><trkpt lat="45.3496283" lon="9.694135"><ele>68.0</ele><time>2026-04-20T16:46:01.614Z</time></trkpt><trkpt lat="45.3495533" lon="9.6941817"><ele>68.66666666666666</ele><time>2026-04-20T16:46:03.614Z</time></trkpt><trkpt lat="45.3494783" lon="9.6942517"><ele>69.33333333333333</ele><time>2026-04-20T16:46:05.614Z</time></trkpt><trkpt lat="45.349405" lon="9.6943317"><ele>70.0</ele><time>2026-04-20T16:46:07.614Z</time></trkpt><trkpt lat="45.3493417" lon="9.6944417"><ele>70.0</ele><time>2026-04-20T16:46:09.614Z</time></trkpt><trkpt lat="45.3492633" lon="9.6945317"><ele>70.0</ele><time>2026-04-20T16:46:11.615Z</time></trkpt><trkpt lat="45.3491783" lon="9.694625"><ele>70.0</ele><time>2026-04-20T16:46:13.614Z</time></trkpt><trkpt lat="45.34911" lon="9.6947017"><ele>70.0</ele><time>2026-04-20T16:46:15.615Z</time></trkpt><trkpt lat="45.3490633" lon="9.6947933"><ele>70.0</ele><time>2026-04-20T16:46:17.614Z</time></trkpt><trkpt lat="45.349015" lon="9.6948867"><ele>70.0</ele><time>2026-04-20T16:46:19.614Z</time></trkpt><trkpt lat="45.3489533" lon="9.6949883"><ele>70.0</ele><time>2026-04-20T16:46:21.614Z</time></trkpt><trkpt lat="45.348895" lon="9.6950917"><ele>70.0</ele><time>2026-04-20T16:46:23.614Z</time></trkpt><trkpt lat="45.3488367" lon="9.695205"><ele>70.0</ele><time>2026-04-20T16:46:25.614Z</time></trkpt><trkpt lat="45.3487783" lon="9.6953167"><ele>70.0</ele><time>2026-04-20T16:46:27.614Z</time></trkpt><trkpt lat="45.3487433" lon="9.6954333"><ele>70.0</ele><time>2026-04-20T16:46:29.615Z</time></trkpt><trkpt lat="45.3486933" lon="9.6955517"><ele>70.0</ele><time>2026-04-20T16:46:31.615Z</time></trkpt><trkpt lat="45.34864" lon="9.6956767"><ele>70.0</ele><time>2026-04-20T16:46:33.614Z</time></trkpt><trkpt lat="45.3485933" lon="9.6958117"><ele>70.0</ele><time>2026-04-20T16:46:35.614Z</time></trkpt><trkpt lat="45.3485583" lon="9.695955"><ele>70.0</ele><time>2026-04-20T16:46:37.614Z</time></trkpt><trkpt lat="45.3485083" lon="9.6960967"><ele>69.83333333333333</ele><time>2026-04-20T16:46:39.614Z</time></trkpt><trkpt lat="45.3484717" lon="9.6962667"><ele>69.66666666666666</ele><time>2026-04-20T16:46:41.614Z</time></trkpt><trkpt lat="45.3484233" lon="9.6964233"><ele>69.5</ele><time>2026-04-20T16:46:43.615Z</time></trkpt><trkpt lat="45.3484017" lon="9.696515"><ele>69.33333333333333</ele><time>2026-04-20T16:46:44.614Z</time></trkpt><trkpt lat="45.3483767" lon="9.6966067"><ele>69.16666666666667</ele><time>2026-04-20T16:46:45.614Z</time></trkpt><trkpt lat="45.3483517" lon="9.696695"><ele>69.0</ele><time>2026-04-20T16:46:46.614Z</time></trkpt><trkpt lat="45.3483167" lon="9.6968583"><ele>68.83333333333333</ele><time>2026-04-20T16:46:48.614Z</time></trkpt><trkpt lat="45.3482717" lon="9.69703"><ele>68.66666666666667</ele><time>2026-04-20T16:46:50.614Z</time></trkpt><trkpt lat="45.3482517" lon="9.69712"><ele>68.5</ele><time>2026-04-20T16:46:51.614Z</time></trkpt><trkpt lat="45.3482217" lon="9.6972083"><ele>68.33333333333334</ele><time>2026-04-20T16:46:52.614Z</time></trkpt><trkpt lat="45.3481933" lon="9.697295"><ele>68.16666666666667</ele><time>2026-04-20T16:46:53.614Z</time></trkpt><trkpt lat="45.3481667" lon="9.6973767"><ele>68.0</ele><time>2026-04-20T16:46:54.614Z</time></trkpt><trkpt lat="45.3481117" lon="9.6975317"><ele>68.0</ele><time>2026-04-20T16:46:56.615Z</time></trkpt><trkpt lat="45.3480483" lon="9.6976817"><ele>68.0</ele><time>2026-04-20T16:46:58.614Z</time></trkpt><trkpt lat="45.3480117" lon="9.6977583"><ele>68.0</ele><time>2026-04-20T16:46:59.614Z</time></trkpt><trkpt lat="45.3479767" lon="9.697835"><ele>68.0</ele><time>2026-04-20T16:47:00.614Z</time></trkpt><trkpt lat="45.347915" lon="9.697985"><ele>68.0</ele><time>2026-04-20T16:47:02.614Z</time></trkpt><trkpt lat="45.3478533" lon="9.6981383"><ele>68.0</ele><time>2026-04-20T16:47:04.615Z</time></trkpt><trkpt lat="45.3477883" lon="9.6982817"><ele>68.0</ele><time>2026-04-20T16:47:06.614Z</time></trkpt><trkpt lat="45.347715" lon="9.6984167"><ele>68.0</ele><time>2026-04-20T16:47:08.614Z</time></trkpt><trkpt lat="45.3476633" lon="9.698555"><ele>68.0</ele><time>2026-04-20T16:47:10.614Z</time></trkpt><trkpt lat="45.3476467" lon="9.698675"><ele>68.0</ele><time>2026-04-20T16:47:12.614Z</time></trkpt><trkpt lat="45.34766" lon="9.6987683"><ele>67.99999999999999</ele><time>2026-04-20T16:47:14.614Z</time></trkpt><trkpt lat="45.347695" lon="9.6988833"><ele>68.0</ele><time>2026-04-20T16:47:17.614Z</time></trkpt><trkpt lat="45.3477017" lon="9.6989933"><ele>68.0</ele><time>2026-04-20T16:47:21.614Z</time></trkpt><trkpt lat="45.347695" lon="9.6990917"><ele>68.0</ele><time>2026-04-20T16:47:24.614Z</time></trkpt><trkpt lat="45.3477133" lon="9.699185"><ele>68.0</ele><time>2026-04-20T16:47:27.614Z</time></trkpt><trkpt lat="45.3477217" lon="9.6992817"><ele>67.99999999999999</ele><time>2026-04-20T16:47:29.614Z</time></trkpt><trkpt lat="45.347745" lon="9.6993817"><ele>68.0</ele><time>2026-04-20T16:47:31.614Z</time></trkpt><trkpt lat="45.3477767" lon="9.6995083"><ele>68.33333333333334</ele><time>2026-04-20T16:47:33.614Z</time></trkpt><trkpt lat="45.347815" lon="9.69964"><ele>68.66666666666667</ele><time>2026-04-20T16:47:35.615Z</time></trkpt><trkpt lat="45.3478383" lon="9.6997633"><ele>69.0</ele><time>2026-04-20T16:47:37.614Z</time></trkpt><trkpt lat="45.347845" lon="9.6998633"><ele>69.33333333333333</ele><time>2026-04-20T16:47:39.614Z</time></trkpt><trkpt lat="45.3478667" lon="9.6999917"><ele>69.66666666666666</ele><time>2026-04-20T16:47:41.614Z</time></trkpt><trkpt lat="45.3478717" lon="9.700085"><ele>70.0</ele><time>2026-04-20T16:47:43.614Z</time></trkpt><trkpt lat="45.34788" lon="9.7002317"><ele>69.83333333333333</ele><time>2026-04-20T16:47:53.614Z</time></trkpt><trkpt lat="45.3479633" lon="9.700365"><ele>69.66666666666666</ele><time>2026-04-20T16:48:06.614Z</time></trkpt><trkpt lat="45.3479517" lon="9.70047"><ele>69.5</ele><time>2026-04-20T16:48:09.615Z</time></trkpt><trkpt lat="45.3479367" lon="9.700565"><ele>69.33333333333333</ele><time>2026-04-20T16:48:11.614Z</time></trkpt><trkpt lat="45.3479367" lon="9.7006667"><ele>69.16666666666667</ele><time>2026-04-20T16:48:13.614Z</time></trkpt><trkpt lat="45.3479083" lon="9.700765"><ele>69.0</ele><time>2026-04-20T16:48:16.614Z</time></trkpt><trkpt lat="45.3478383" lon="9.7007567"><ele>69.0</ele><time>2026-04-20T16:48:18.614Z</time></trkpt><trkpt lat="45.3477567" lon="9.70075"><ele>69.0</ele><time>2026-04-20T16:48:20.614Z</time></trkpt><trkpt lat="45.347665" lon="9.7007517"><ele>69.0</ele><time>2026-04-20T16:48:22.614Z</time></trkpt><trkpt lat="45.3475683" lon="9.7007517"><ele>69.0</ele><time>2026-04-20T16:48:24.614Z</time></trkpt><trkpt lat="45.347465" lon="9.7007517"><ele>69.0</ele><time>2026-04-20T16:48:26.614Z</time></trkpt><trkpt lat="45.3473617" lon="9.7007567"><ele>69.0</ele><time>2026-04-20T16:48:28.614Z</time></trkpt><trkpt lat="45.3472567" lon="9.7007517"><ele>69.0</ele><time>2026-04-20T16:48:30.614Z</time></trkpt><trkpt lat="45.3471483" lon="9.7007483"><ele>69.0</ele><time>2026-04-20T16:48:32.614Z</time></trkpt><trkpt lat="45.34703" lon="9.7007533"><ele>69.0</ele><time>2026-04-20T16:48:34.614Z</time></trkpt><trkpt lat="45.34691" lon="9.7007583"><ele>69.0</ele><time>2026-04-20T16:48:36.614Z</time></trkpt><trkpt lat="45.3467883" lon="9.7007583"><ele>69.0</ele><time>2026-04-20T16:48:38.614Z</time></trkpt><trkpt lat="45.346665" lon="9.700755"><ele>69.0</ele><time>2026-04-20T16:48:40.615Z</time></trkpt><trkpt lat="45.3466" lon="9.700755"><ele>69.0</ele><time>2026-04-20T16:48:41.614Z</time></trkpt><trkpt lat="45.3465367" lon="9.7007583"><ele>69.0</ele><time>2026-04-20T16:48:42.614Z</time></trkpt><trkpt lat="45.3464683" lon="9.7007617"><ele>69.0</ele><time>2026-04-20T16:48:43.614Z</time></trkpt><trkpt lat="45.3464" lon="9.700765"><ele>68.85714285714286</ele><time>2026-04-20T16:48:44.614Z</time></trkpt><trkpt lat="45.3463367" lon="9.7007617"><ele>68.71428571428572</ele><time>2026-04-20T16:48:45.614Z</time></trkpt><trkpt lat="45.34627" lon="9.700765"><ele>68.57142857142857</ele><time>2026-04-20T16:48:46.614Z</time></trkpt><trkpt lat="45.346205" lon="9.7007617"><ele>68.42857142857143</ele><time>2026-04-20T16:48:47.614Z</time></trkpt><trkpt lat="45.3461383" lon="9.7007567"><ele>68.28571428571428</ele><time>2026-04-20T16:48:48.614Z</time></trkpt><trkpt lat="45.3460733" lon="9.7007567"><ele>68.14285714285714</ele><time>2026-04-20T16:48:49.614Z</time></trkpt><trkpt lat="45.346005" lon="9.7007567"><ele>68.0</ele><time>2026-04-20T16:48:50.614Z</time></trkpt><trkpt lat="45.345935" lon="9.7007633"><ele>67.99999999999999</ele><time>2026-04-20T16:48:51.614Z</time></trkpt><trkpt lat="45.3458633" lon="9.7007633"><ele>68.0</ele><time>2026-04-20T16:48:52.614Z</time></trkpt><trkpt lat="45.3457917" lon="9.7007633"><ele>68.0</ele><time>2026-04-20T16:48:53.614Z</time></trkpt><trkpt lat="45.3457233" lon="9.70076"><ele>68.0</ele><time>2026-04-20T16:48:54.614Z</time></trkpt><trkpt lat="45.3456567" lon="9.7007617"><ele>68.0</ele><time>2026-04-20T16:48:55.614Z</time></trkpt><trkpt lat="45.34559" lon="9.70076"><ele>67.99999999999999</ele><time>2026-04-20T16:48:56.614Z</time></trkpt><trkpt lat="45.3455217" lon="9.7007617"><ele>68.0</ele><time>2026-04-20T16:48:57.614Z</time></trkpt><trkpt lat="45.3454533" lon="9.70076"><ele>68.28571428571428</ele><time>2026-04-20T16:48:58.614Z</time></trkpt><trkpt lat="45.3453851" lon="9.7007605"><ele>68.57142857142857</ele><time>2026-04-20T16:48:59.614Z</time></trkpt><trkpt lat="45.345317" lon="9.7007602"><ele>68.85714285714286</ele><time>2026-04-20T16:49:00.614Z</time></trkpt><trkpt lat="45.3452508" lon="9.7007537"><ele>69.14285714285714</ele><time>2026-04-20T16:49:01.614Z</time></trkpt><trkpt lat="45.3451798" lon="9.7007511"><ele>69.42857142857143</ele><time>2026-04-20T16:49:02.615Z</time></trkpt><trkpt lat="45.3451113" lon="9.7007505"><ele>69.71428571428571</ele><time>2026-04-20T16:49:03.614Z</time></trkpt><trkpt lat="45.3450415" lon="9.7007508"><ele>70.0</ele><time>2026-04-20T16:49:04.614Z</time></trkpt><trkpt lat="45.344975" lon="9.7007519"><ele>70.0</ele><time>2026-04-20T16:49:05.615Z</time></trkpt><trkpt lat="45.3449014" lon="9.7007494"><ele>70.0</ele><time>2026-04-20T16:49:06.614Z</time></trkpt><trkpt lat="45.3448302" lon="9.7007476"><ele>70.0</ele><time>2026-04-20T16:49:07.614Z</time></trkpt><trkpt lat="45.3447563" lon="9.7007461"><ele>70.0</ele><time>2026-04-20T16:49:08.615Z</time></trkpt><trkpt lat="45.3446804" lon="9.7007484"><ele>70.0</ele><time>2026-04-20T16:49:09.614Z</time></trkpt><trkpt lat="45.3446086" lon="9.7007537"><ele>70.0</ele><time>2026-04-20T16:49:10.614Z</time></trkpt><trkpt lat="45.3445371" lon="9.7007592"><ele>70.0</ele><time>2026-04-20T16:49:11.614Z</time></trkpt><trkpt lat="45.3444664" lon="9.7007624"><ele>69.57142857142857</ele><time>2026-04-20T16:49:12.615Z</time></trkpt><trkpt lat="45.3443938" lon="9.7007599"><ele>69.14285714285714</ele><time>2026-04-20T16:49:13.614Z</time></trkpt><trkpt lat="45.3443229" lon="9.7007599"><ele>68.71428571428572</ele><time>2026-04-20T16:49:14.614Z</time></trkpt><trkpt lat="45.3442504" lon="9.7007599"><ele>68.28571428571428</ele><time>2026-04-20T16:49:15.614Z</time></trkpt><trkpt lat="45.3441786" lon="9.7007595"><ele>67.85714285714286</ele><time>2026-04-20T16:49:16.614Z</time></trkpt><trkpt lat="45.3441089" lon="9.7007604"><ele>67.42857142857143</ele><time>2026-04-20T16:49:17.614Z</time></trkpt><trkpt lat="45.3440378" lon="9.7007606"><ele>67.0</ele><time>2026-04-20T16:49:18.614Z</time></trkpt><trkpt lat="45.3439675" lon="9.7007534"><ele>67.0</ele><time>2026-04-20T16:49:19.614Z</time></trkpt><trkpt lat="45.3438961" lon="9.7007534"><ele>67.0</ele><time>2026-04-20T16:49:20.614Z</time></trkpt><trkpt lat="45.3438196" lon="9.700755"><ele>67.0</ele><time>2026-04-20T16:49:21.615Z</time></trkpt><trkpt lat="45.3437462" lon="9.7007567"><ele>67.0</ele><time>2026-04-20T16:49:22.614Z</time></trkpt><trkpt lat="45.3436732" lon="9.7007522"><ele>67.0</ele><time>2026-04-20T16:49:23.614Z</time></trkpt><trkpt lat="45.3435988" lon="9.7007553"><ele>67.0</ele><time>2026-04-20T16:49:24.614Z</time></trkpt><trkpt lat="45.3435275" lon="9.7007572"><ele>67.0</ele><time>2026-04-20T16:49:25.614Z</time></trkpt><trkpt lat="45.3434562" lon="9.7007576"><ele>67.42857142857143</ele><time>2026-04-20T16:49:26.614Z</time></trkpt><trkpt lat="45.3433859" lon="9.7007556"><ele>67.85714285714286</ele><time>2026-04-20T16:49:27.614Z</time></trkpt><trkpt lat="45.3433127" lon="9.7007525"><ele>68.28571428571428</ele><time>2026-04-20T16:49:28.615Z</time></trkpt><trkpt lat="45.3432387" lon="9.7007496"><ele>68.71428571428572</ele><time>2026-04-20T16:49:29.615Z</time></trkpt><trkpt lat="45.3431649" lon="9.7007459"><ele>69.14285714285714</ele><time>2026-04-20T16:49:30.614Z</time></trkpt><trkpt lat="45.3430878" lon="9.7007493"><ele>69.57142857142857</ele><time>2026-04-20T16:49:31.614Z</time></trkpt><trkpt lat="45.3430117" lon="9.7007509"><ele>70.0</ele><time>2026-04-20T16:49:32.614Z</time></trkpt><trkpt lat="45.3429364" lon="9.7007486"><ele>70.16666666666666</ele><time>2026-04-20T16:49:33.614Z</time></trkpt><trkpt lat="45.3428578" lon="9.7007437"><ele>70.33333333333333</ele><time>2026-04-20T16:49:34.614Z</time></trkpt><trkpt lat="45.3427815" lon="9.7007446"><ele>70.5</ele><time>2026-04-20T16:49:35.614Z</time></trkpt><trkpt lat="45.3427048" lon="9.700745"><ele>70.66666666666667</ele><time>2026-04-20T16:49:36.614Z</time></trkpt><trkpt lat="45.3426245" lon="9.7007467"><ele>70.83333333333334</ele><time>2026-04-20T16:49:37.614Z</time></trkpt><trkpt lat="45.3425456" lon="9.7007471"><ele>71.0</ele><time>2026-04-20T16:49:38.614Z</time></trkpt><trkpt lat="45.3424671" lon="9.7007494"><ele>71.0</ele><time>2026-04-20T16:49:39.614Z</time></trkpt><trkpt lat="45.3423885" lon="9.7007527"><ele>71.0</ele><time>2026-04-20T16:49:40.614Z</time></trkpt><trkpt lat="45.3423102" lon="9.7007535"><ele>71.0</ele><time>2026-04-20T16:49:41.614Z</time></trkpt><trkpt lat="45.3422333" lon="9.7007511"><ele>71.0</ele><time>2026-04-20T16:49:42.614Z</time></trkpt><trkpt lat="45.3421565" lon="9.7007503"><ele>71.0</ele><time>2026-04-20T16:49:43.614Z</time></trkpt><trkpt lat="45.3420881" lon="9.7007465"><ele>71.0</ele><time>2026-04-20T16:49:44.614Z</time></trkpt><trkpt lat="45.3420125" lon="9.7007455"><ele>70.83333333333334</ele><time>2026-04-20T16:49:45.614Z</time></trkpt><trkpt lat="45.3419339" lon="9.7007515"><ele>70.66666666666667</ele><time>2026-04-20T16:49:46.614Z</time></trkpt><trkpt lat="45.3418579" lon="9.7007542"><ele>70.5</ele><time>2026-04-20T16:49:47.615Z</time></trkpt><trkpt lat="45.3417802" lon="9.7007552"><ele>70.33333333333333</ele><time>2026-04-20T16:49:48.614Z</time></trkpt><trkpt lat="45.3417021" lon="9.7007531"><ele>70.16666666666666</ele><time>2026-04-20T16:49:49.614Z</time></trkpt><trkpt lat="45.3416262" lon="9.7007509"><ele>70.0</ele><time>2026-04-20T16:49:50.614Z</time></trkpt><trkpt lat="45.3415484" lon="9.7007475"><ele>70.0</ele><time>2026-04-20T16:49:51.614Z</time></trkpt><trkpt lat="45.3414702" lon="9.7007504"><ele>70.0</ele><time>2026-04-20T16:49:52.615Z</time></trkpt><trkpt lat="45.3413919" lon="9.700749"><ele>70.0</ele><time>2026-04-20T16:49:53.614Z</time></trkpt><trkpt lat="45.3413125" lon="9.7007489"><ele>70.0</ele><time>2026-04-20T16:49:54.614Z</time></trkpt><trkpt lat="45.3412316" lon="9.7007503"><ele>70.0</ele><time>2026-04-20T16:49:55.614Z</time></trkpt><trkpt lat="45.3411487" lon="9.7007509"><ele>70.0</ele><time>2026-04-20T16:49:56.614Z</time></trkpt><trkpt lat="45.3410713" lon="9.7007516"><ele>69.5</ele><time>2026-04-20T16:49:57.614Z</time></trkpt><trkpt lat="45.340993" lon="9.7007519"><ele>69.0</ele><time>2026-04-20T16:49:58.614Z</time></trkpt><trkpt lat="45.3409161" lon="9.7007511"><ele>68.5</ele><time>2026-04-20T16:49:59.614Z</time></trkpt><trkpt lat="45.3408397" lon="9.7007501"><ele>68.0</ele><time>2026-04-20T16:50:00.614Z</time></trkpt><trkpt lat="45.3407628" lon="9.7007537"><ele>67.5</ele><time>2026-04-20T16:50:01.614Z</time></trkpt><trkpt lat="45.3406847" lon="9.7007567"><ele>67.0</ele><time>2026-04-20T16:50:02.614Z</time></trkpt><trkpt lat="45.3406051" lon="9.7007601"><ele>67.0</ele><time>2026-04-20T16:50:03.614Z</time></trkpt><trkpt lat="45.3405265" lon="9.7007611"><ele>67.0</ele><time>2026-04-20T16:50:04.614Z</time></trkpt><trkpt lat="45.3404493" lon="9.7007601"><ele>67.0</ele><time>2026-04-20T16:50:05.614Z</time></trkpt><trkpt lat="45.34037" lon="9.700755"><ele>67.0</ele><time>2026-04-20T16:50:06.615Z</time></trkpt><trkpt lat="45.3402883" lon="9.700765"><ele>67.0</ele><time>2026-04-20T16:50:07.614Z</time></trkpt><trkpt lat="45.3402083" lon="9.7007683"><ele>67.0</ele><time>2026-04-20T16:50:08.614Z</time></trkpt><trkpt lat="45.34013" lon="9.700775"><ele>67.0</ele><time>2026-04-20T16:50:09.615Z</time></trkpt><trkpt lat="45.3400533" lon="9.7007767"><ele>67.0</ele><time>2026-04-20T16:50:10.614Z</time></trkpt><trkpt lat="45.3399733" lon="9.700775"><ele>67.0</ele><time>2026-04-20T16:50:11.615Z</time></trkpt><trkpt lat="45.33989" lon="9.70078"><ele>67.0</ele><time>2026-04-20T16:50:12.614Z</time></trkpt><trkpt lat="45.339815" lon="9.7007867"><ele>67.0</ele><time>2026-04-20T16:50:13.614Z</time></trkpt><trkpt lat="45.339735" lon="9.7007883"><ele>67.0</ele><time>2026-04-20T16:50:14.614Z</time></trkpt><trkpt lat="45.33966" lon="9.7007917"><ele>67.0</ele><time>2026-04-20T16:50:15.615Z</time></trkpt><trkpt lat="45.3395833" lon="9.7007883"><ele>67.0</ele><time>2026-04-20T16:50:16.615Z</time></trkpt><trkpt lat="45.3395083" lon="9.7007767"><ele>67.0</ele><time>2026-04-20T16:50:17.614Z</time></trkpt><trkpt lat="45.33943" lon="9.7007717"><ele>67.0</ele><time>2026-04-20T16:50:18.614Z</time></trkpt><trkpt lat="45.339355" lon="9.70077"><ele>67.0</ele><time>2026-04-20T16:50:19.614Z</time></trkpt><trkpt lat="45.3392767" lon="9.7007683"><ele>67.0</ele><time>2026-04-20T16:50:20.615Z</time></trkpt><trkpt lat="45.339195" lon="9.70077"><ele>67.0</ele><time>2026-04-20T16:50:21.614Z</time></trkpt><trkpt lat="45.33912" lon="9.7007717"><ele>67.0</ele><time>2026-04-20T16:50:22.614Z</time></trkpt><trkpt lat="45.3390417" lon="9.7007783"><ele>67.0</ele><time>2026-04-20T16:50:23.614Z</time></trkpt><trkpt lat="45.338965" lon="9.700775"><ele>67.0</ele><time>2026-04-20T16:50:24.614Z</time></trkpt><trkpt lat="45.338895" lon="9.70077"><ele>67.0</ele><time>2026-04-20T16:50:25.614Z</time></trkpt><trkpt lat="45.3388217" lon="9.7007667"><ele>67.0</ele><time>2026-04-20T16:50:26.614Z</time></trkpt><trkpt lat="45.33875" lon="9.7007617"><ele>67.0</ele><time>2026-04-20T16:50:27.615Z</time></trkpt><trkpt lat="45.3386867" lon="9.7007533"><ele>67.0</ele><time>2026-04-20T16:50:28.615Z</time></trkpt><trkpt lat="45.3386217" lon="9.7007533"><ele>67.0</ele><time>2026-04-20T16:50:29.614Z</time></trkpt><trkpt lat="45.3384967" lon="9.7007533"><ele>67.0</ele><time>2026-04-20T16:50:31.614Z</time></trkpt><trkpt lat="45.3384333" lon="9.70075"><ele>67.0</ele><time>2026-04-20T16:50:32.615Z</time></trkpt><trkpt lat="45.33837" lon="9.7007483"><ele>67.0</ele><time>2026-04-20T16:50:33.614Z</time></trkpt><trkpt lat="45.338305" lon="9.7007483"><ele>67.0</ele><time>2026-04-20T16:50:34.614Z</time></trkpt><trkpt lat="45.3382417" lon="9.7007483"><ele>67.0</ele><time>2026-04-20T16:50:35.614Z</time></trkpt><trkpt lat="45.3381767" lon="9.7007433"><ele>67.0</ele><time>2026-04-20T16:50:36.614Z</time></trkpt><trkpt lat="45.338105" lon="9.7007467"><ele>67.0</ele><time>2026-04-20T16:50:37.614Z</time></trkpt><trkpt lat="45.3380383" lon="9.70075"><ele>67.0</ele><time>2026-04-20T16:50:38.614Z</time></trkpt><trkpt lat="45.3379733" lon="9.7007567"><ele>67.0</ele><time>2026-04-20T16:50:39.614Z</time></trkpt><trkpt lat="45.3379083" lon="9.7007617"><ele>67.0</ele><time>2026-04-20T16:50:40.614Z</time></trkpt><trkpt lat="45.3378433" lon="9.7007633"><ele>67.0</ele><time>2026-04-20T16:50:41.614Z</time></trkpt><trkpt lat="45.33778" lon="9.700765"><ele>67.0</ele><time>2026-04-20T16:50:42.614Z</time></trkpt><trkpt lat="45.3377133" lon="9.70076"><ele>67.16666666666666</ele><time>2026-04-20T16:50:43.614Z</time></trkpt><trkpt lat="45.3376417" lon="9.7007583"><ele>67.33333333333333</ele><time>2026-04-20T16:50:44.614Z</time></trkpt><trkpt lat="45.337575" lon="9.7007533"><ele>67.5</ele><time>2026-04-20T16:50:45.614Z</time></trkpt><trkpt lat="45.33751" lon="9.7007633"><ele>67.66666666666667</ele><time>2026-04-20T16:50:46.614Z</time></trkpt><trkpt lat="45.3374467" lon="9.7007683"><ele>67.83333333333334</ele><time>2026-04-20T16:50:47.614Z</time></trkpt><trkpt lat="45.3373233" lon="9.7008083"><ele>68.0</ele><time>2026-04-20T16:50:49.615Z</time></trkpt><trkpt lat="45.3372583" lon="9.7008383"><ele>68.14285714285714</ele><time>2026-04-20T16:50:50.614Z</time></trkpt><trkpt lat="45.3371967" lon="9.700875"><ele>68.28571428571428</ele><time>2026-04-20T16:50:51.614Z</time></trkpt><trkpt lat="45.3371367" lon="9.700915"><ele>68.42857142857143</ele><time>2026-04-20T16:50:52.614Z</time></trkpt><trkpt lat="45.337065" lon="9.7009633"><ele>68.57142857142857</ele><time>2026-04-20T16:50:53.614Z</time></trkpt><trkpt lat="45.3369883" lon="9.7010167"><ele>68.71428571428572</ele><time>2026-04-20T16:50:54.614Z</time></trkpt><trkpt lat="45.336925" lon="9.70106"><ele>68.85714285714286</ele><time>2026-04-20T16:50:55.614Z</time></trkpt><trkpt lat="45.3368667" lon="9.7011"><ele>69.0</ele><time>2026-04-20T16:50:56.614Z</time></trkpt><trkpt lat="45.3368033" lon="9.701145"><ele>69.0</ele><time>2026-04-20T16:50:57.614Z</time></trkpt><trkpt lat="45.336735" lon="9.7011833"><ele>69.0</ele><time>2026-04-20T16:50:58.615Z</time></trkpt><trkpt lat="45.33667" lon="9.7012283"><ele>69.0</ele><time>2026-04-20T16:50:59.614Z</time></trkpt><trkpt lat="45.336605" lon="9.70128"><ele>69.0</ele><time>2026-04-20T16:51:00.614Z</time></trkpt><trkpt lat="45.3365417" lon="9.7013217"><ele>69.0</ele><time>2026-04-20T16:51:01.614Z</time></trkpt><trkpt lat="45.3364717" lon="9.7013567"><ele>69.0</ele><time>2026-04-20T16:51:02.615Z</time></trkpt><trkpt lat="45.336405" lon="9.7013867"><ele>69.0</ele><time>2026-04-20T16:51:03.614Z</time></trkpt><trkpt lat="45.3363417" lon="9.7014133"><ele>69.33333333333333</ele><time>2026-04-20T16:51:04.614Z</time></trkpt><trkpt lat="45.3362733" lon="9.701435"><ele>69.66666666666667</ele><time>2026-04-20T16:51:05.615Z</time></trkpt><trkpt lat="45.3362117" lon="9.7014583"><ele>70.0</ele><time>2026-04-20T16:51:06.614Z</time></trkpt><trkpt lat="45.3361467" lon="9.7014833"><ele>70.33333333333334</ele><time>2026-04-20T16:51:07.614Z</time></trkpt><trkpt lat="45.336075" lon="9.701505"><ele>70.66666666666667</ele><time>2026-04-20T16:51:08.614Z</time></trkpt><trkpt lat="45.335965" lon="9.7015667"><ele>71.0</ele><time>2026-04-20T16:51:10.614Z</time></trkpt><trkpt lat="45.33591" lon="9.701615"><ele>71.0</ele><time>2026-04-20T16:51:11.614Z</time></trkpt><trkpt lat="45.3358483" lon="9.70166"><ele>71.0</ele><time>2026-04-20T16:51:12.614Z</time></trkpt><trkpt lat="45.3357917" lon="9.7017133"><ele>71.0</ele><time>2026-04-20T16:51:13.614Z</time></trkpt><trkpt lat="45.33574" lon="9.7017783"><ele>71.0</ele><time>2026-04-20T16:51:14.614Z</time></trkpt><trkpt lat="45.3356933" lon="9.70184"><ele>71.0</ele><time>2026-04-20T16:51:15.614Z</time></trkpt><trkpt lat="45.3356517" lon="9.7019133"><ele>71.0</ele><time>2026-04-20T16:51:16.615Z</time></trkpt><trkpt lat="45.3355967" lon="9.70206"><ele>71.0</ele><time>2026-04-20T16:51:18.614Z</time></trkpt><trkpt lat="45.3355717" lon="9.7022117"><ele>71.0</ele><time>2026-04-20T16:51:20.615Z</time></trkpt><trkpt lat="45.3355633" lon="9.7023583"><ele>71.0</ele><time>2026-04-20T16:51:22.614Z</time></trkpt><trkpt lat="45.3355667" lon="9.7025017"><ele>71.0</ele><time>2026-04-20T16:51:24.614Z</time></trkpt><trkpt lat="45.3355833" lon="9.702645"><ele>71.0</ele><time>2026-04-20T16:51:26.614Z</time></trkpt><trkpt lat="45.33559" lon="9.7027633"><ele>70.6</ele><time>2026-04-20T16:51:28.614Z</time></trkpt><trkpt lat="45.3356033" lon="9.7028617"><ele>70.19999999999999</ele><time>2026-04-20T16:51:30.615Z</time></trkpt><trkpt lat="45.33563" lon="9.702995"><ele>69.80000000000001</ele><time>2026-04-20T16:51:32.614Z</time></trkpt><trkpt lat="45.33565" lon="9.7031233"><ele>69.4</ele><time>2026-04-20T16:51:34.614Z</time></trkpt><trkpt lat="45.3356833" lon="9.703275"><ele>69.0</ele><time>2026-04-20T16:51:36.614Z</time></trkpt><trkpt lat="45.3357067" lon="9.7034367"><ele>69.0</ele><time>2026-04-20T16:51:38.614Z</time></trkpt><trkpt lat="45.3357317" lon="9.7035767"><ele>69.0</ele><time>2026-04-20T16:51:40.614Z</time></trkpt><trkpt lat="45.33576" lon="9.7037033"><ele>69.0</ele><time>2026-04-20T16:51:42.614Z</time></trkpt><trkpt lat="45.335785" lon="9.7038133"><ele>69.0</ele><time>2026-04-20T16:51:44.614Z</time></trkpt><trkpt lat="45.3358283" lon="9.703935"><ele>69.0</ele><time>2026-04-20T16:51:46.614Z</time></trkpt><trkpt lat="45.335885" lon="9.7040683"><ele>68.60000000000001</ele><time>2026-04-20T16:51:48.614Z</time></trkpt><trkpt lat="45.335945" lon="9.7041967"><ele>68.2</ele><time>2026-04-20T16:51:50.614Z</time></trkpt><trkpt lat="45.3360083" lon="9.7043233"><ele>67.80000000000001</ele><time>2026-04-20T16:51:52.614Z</time></trkpt><trkpt lat="45.3360717" lon="9.70443"><ele>67.4</ele><time>2026-04-20T16:51:54.614Z</time></trkpt><trkpt lat="45.3361283" lon="9.7045467"><ele>67.0</ele><time>2026-04-20T16:51:56.614Z</time></trkpt><trkpt lat="45.3361917" lon="9.7046483"><ele>67.0</ele><time>2026-04-20T16:51:58.614Z</time></trkpt><trkpt lat="45.33626" lon="9.7047517"><ele>67.0</ele><time>2026-04-20T16:52:00.614Z</time></trkpt><trkpt lat="45.33633" lon="9.7048533"><ele>67.0</ele><time>2026-04-20T16:52:02.614Z</time></trkpt><trkpt lat="45.3364117" lon="9.704945"><ele>67.0</ele><time>2026-04-20T16:52:04.614Z</time></trkpt><trkpt lat="45.3365067" lon="9.7050267"><ele>67.0</ele><time>2026-04-20T16:52:06.614Z</time></trkpt><trkpt lat="45.33659" lon="9.7051467"><ele>66.25</ele><time>2026-04-20T16:52:08.614Z</time></trkpt><trkpt lat="45.3366717" lon="9.7052633"><ele>65.5</ele><time>2026-04-20T16:52:10.614Z</time></trkpt><trkpt lat="45.3367533" lon="9.7053883"><ele>64.75</ele><time>2026-04-20T16:52:12.614Z</time></trkpt><trkpt lat="45.3368333" lon="9.7055033"><ele>64.0</ele><time>2026-04-20T16:52:14.614Z</time></trkpt><trkpt lat="45.33691" lon="9.7056133"><ele>63.99999999999999</ele><time>2026-04-20T16:52:16.614Z</time></trkpt><trkpt lat="45.3369833" lon="9.7057267"><ele>64.0</ele><time>2026-04-20T16:52:18.614Z</time></trkpt><trkpt lat="45.3370383" lon="9.705815"><ele>64.0</ele><time>2026-04-20T16:52:20.614Z</time></trkpt><trkpt lat="45.3370883" lon="9.7058767"><ele>64.0</ele><time>2026-04-20T16:52:22.614Z</time></trkpt><trkpt lat="45.3371383" lon="9.7059567"><ele>63.99999999999999</ele><time>2026-04-20T16:52:28.613Z</time></trkpt><trkpt lat="45.3371983" lon="9.7060267"><ele>64.0</ele><time>2026-04-20T16:52:31.613Z</time></trkpt><trkpt lat="45.3372483" lon="9.706115"><ele>64.2</ele><time>2026-04-20T16:52:33.614Z</time></trkpt><trkpt lat="45.3372983" lon="9.7062133"><ele>64.4</ele><time>2026-04-20T16:52:35.614Z</time></trkpt><trkpt lat="45.337345" lon="9.70635"><ele>64.6</ele><time>2026-04-20T16:52:37.613Z</time></trkpt><trkpt lat="45.3373783" lon="9.706485"><ele>64.8</ele><time>2026-04-20T16:52:39.613Z</time></trkpt><trkpt lat="45.3374067" lon="9.706635"><ele>65.0</ele><time>2026-04-20T16:52:41.613Z</time></trkpt><trkpt lat="45.337445" lon="9.7067883"><ele>65.0</ele><time>2026-04-20T16:52:43.613Z</time></trkpt><trkpt lat="45.3374917" lon="9.7069433"><ele>65.0</ele><time>2026-04-20T16:52:45.613Z</time></trkpt><trkpt lat="45.3375167" lon="9.7070267"><ele>65.0</ele><time>2026-04-20T16:52:46.614Z</time></trkpt><trkpt lat="45.3375667" lon="9.7071783"><ele>65.0</ele><time>2026-04-20T16:52:48.613Z</time></trkpt><trkpt lat="45.3376083" lon="9.7073367"><ele>65.0</ele><time>2026-04-20T16:52:50.614Z</time></trkpt><trkpt lat="45.3376533" lon="9.7074967"><ele>65.0</ele><time>2026-04-20T16:52:52.613Z</time></trkpt><trkpt lat="45.3376767" lon="9.70758"><ele>65.0</ele><time>2026-04-20T16:52:53.613Z</time></trkpt><trkpt lat="45.3376983" lon="9.707665"><ele>65.0</ele><time>2026-04-20T16:52:54.613Z</time></trkpt><trkpt lat="45.337745" lon="9.7078267"><ele>65.0</ele><time>2026-04-20T16:52:56.613Z</time></trkpt><trkpt lat="45.33779" lon="9.7079833"><ele>65.0</ele><time>2026-04-20T16:52:58.613Z</time></trkpt><trkpt lat="45.3378317" lon="9.7081483"><ele>65.16666666666667</ele><time>2026-04-20T16:53:00.613Z</time></trkpt><trkpt lat="45.337855" lon="9.7082317"><ele>65.33333333333334</ele><time>2026-04-20T16:53:01.613Z</time></trkpt><trkpt lat="45.337875" lon="9.7083167"><ele>65.5</ele><time>2026-04-20T16:53:02.613Z</time></trkpt><trkpt lat="45.3378983" lon="9.7084033"><ele>65.66666666666667</ele><time>2026-04-20T16:53:03.613Z</time></trkpt><trkpt lat="45.33795" lon="9.708565"><ele>65.83333333333333</ele><time>2026-04-20T16:53:05.613Z</time></trkpt><trkpt lat="45.337975" lon="9.7086517"><ele>66.0</ele><time>2026-04-20T16:53:06.613Z</time></trkpt><trkpt lat="45.3380233" lon="9.7088167"><ele>65.85714285714286</ele><time>2026-04-20T16:53:08.613Z</time></trkpt><trkpt lat="45.3380433" lon="9.7089017"><ele>65.71428571428572</ele><time>2026-04-20T16:53:09.614Z</time></trkpt><trkpt lat="45.3380683" lon="9.7089917"><ele>65.57142857142858</ele><time>2026-04-20T16:53:10.614Z</time></trkpt><trkpt lat="45.3380917" lon="9.709085"><ele>65.42857142857143</ele><time>2026-04-20T16:53:11.613Z</time></trkpt><trkpt lat="45.3381167" lon="9.7091717"><ele>65.28571428571429</ele><time>2026-04-20T16:53:12.613Z</time></trkpt><trkpt lat="45.3381383" lon="9.7092633"><ele>65.14285714285715</ele><time>2026-04-20T16:53:13.613Z</time></trkpt><trkpt lat="45.3381667" lon="9.70935"><ele>65.0</ele><time>2026-04-20T16:53:14.613Z</time></trkpt><trkpt lat="45.33819" lon="9.70944"><ele>65.00000000000001</ele><time>2026-04-20T16:53:15.613Z</time></trkpt><trkpt lat="45.338215" lon="9.70953"><ele>65.0</ele><time>2026-04-20T16:53:16.613Z</time></trkpt><trkpt lat="45.3382417" lon="9.7096233"><ele>65.0</ele><time>2026-04-20T16:53:17.613Z</time></trkpt><trkpt lat="45.3382683" lon="9.70972"><ele>65.0</ele><time>2026-04-20T16:53:18.613Z</time></trkpt><trkpt lat="45.338295" lon="9.709815"><ele>65.0</ele><time>2026-04-20T16:53:19.613Z</time></trkpt><trkpt lat="45.3383217" lon="9.70991"><ele>65.00000000000001</ele><time>2026-04-20T16:53:20.613Z</time></trkpt><trkpt lat="45.3383483" lon="9.7100017"><ele>65.0</ele><time>2026-04-20T16:53:21.613Z</time></trkpt><trkpt lat="45.3383767" lon="9.7100917"><ele>65.00000000000001</ele><time>2026-04-20T16:53:22.613Z</time></trkpt><trkpt lat="45.3384033" lon="9.7101783"><ele>65.0</ele><time>2026-04-20T16:53:23.613Z</time></trkpt><trkpt lat="45.338425" lon="9.710275"><ele>65.0</ele><time>2026-04-20T16:53:24.613Z</time></trkpt><trkpt lat="45.3384517" lon="9.7103667"><ele>65.0</ele><time>2026-04-20T16:53:25.613Z</time></trkpt><trkpt lat="45.33848" lon="9.7104583"><ele>65.0</ele><time>2026-04-20T16:53:26.613Z</time></trkpt><trkpt lat="45.3385117" lon="9.7105467"><ele>65.00000000000001</ele><time>2026-04-20T16:53:27.613Z</time></trkpt><trkpt lat="45.3385417" lon="9.7106383"><ele>65.0</ele><time>2026-04-20T16:53:28.614Z</time></trkpt><trkpt lat="45.3385733" lon="9.710725"><ele>65.00000000000001</ele><time>2026-04-20T16:53:29.613Z</time></trkpt><trkpt lat="45.3386083" lon="9.7108117"><ele>65.0</ele><time>2026-04-20T16:53:30.613Z</time></trkpt><trkpt lat="45.3386467" lon="9.710895"><ele>65.0</ele><time>2026-04-20T16:53:31.613Z</time></trkpt><trkpt lat="45.3386833" lon="9.7109733"><ele>65.0</ele><time>2026-04-20T16:53:32.613Z</time></trkpt><trkpt lat="45.33873" lon="9.71105"><ele>65.0</ele><time>2026-04-20T16:53:33.614Z</time></trkpt><trkpt lat="45.338775" lon="9.7111267"><ele>65.00000000000001</ele><time>2026-04-20T16:53:34.613Z</time></trkpt><trkpt lat="45.3388233" lon="9.7112017"><ele>65.0</ele><time>2026-04-20T16:53:35.613Z</time></trkpt><trkpt lat="45.3388717" lon="9.7112783"><ele>65.14285714285715</ele><time>2026-04-20T16:53:36.613Z</time></trkpt><trkpt lat="45.3389217" lon="9.7113567"><ele>65.28571428571429</ele><time>2026-04-20T16:53:37.613Z</time></trkpt><trkpt lat="45.33897" lon="9.7114317"><ele>65.42857142857143</ele><time>2026-04-20T16:53:38.613Z</time></trkpt><trkpt lat="45.3390183" lon="9.7115117"><ele>65.57142857142858</ele><time>2026-04-20T16:53:39.613Z</time></trkpt><trkpt lat="45.3390683" lon="9.7115883"><ele>65.71428571428572</ele><time>2026-04-20T16:53:40.613Z</time></trkpt><trkpt lat="45.3391183" lon="9.7116683"><ele>65.85714285714286</ele><time>2026-04-20T16:53:41.613Z</time></trkpt><trkpt lat="45.3391683" lon="9.7117467"><ele>66.0</ele><time>2026-04-20T16:53:42.613Z</time></trkpt><trkpt lat="45.3392167" lon="9.71183"><ele>65.83333333333333</ele><time>2026-04-20T16:53:43.613Z</time></trkpt><trkpt lat="45.3392667" lon="9.71191"><ele>65.66666666666667</ele><time>2026-04-20T16:53:44.613Z</time></trkpt><trkpt lat="45.3393183" lon="9.71199"><ele>65.5</ele><time>2026-04-20T16:53:45.613Z</time></trkpt><trkpt lat="45.33937" lon="9.71207"><ele>65.33333333333334</ele><time>2026-04-20T16:53:46.613Z</time></trkpt><trkpt lat="45.33942" lon="9.7121483"><ele>65.16666666666667</ele><time>2026-04-20T16:53:47.613Z</time></trkpt><trkpt lat="45.33947" lon="9.71223"><ele>65.0</ele><time>2026-04-20T16:53:48.614Z</time></trkpt><trkpt lat="45.3395267" lon="9.7123033"><ele>65.0</ele><time>2026-04-20T16:53:49.613Z</time></trkpt><trkpt lat="45.3395917" lon="9.7123683"><ele>65.0</ele><time>2026-04-20T16:53:50.613Z</time></trkpt><trkpt lat="45.3396583" lon="9.7124283"><ele>65.0</ele><time>2026-04-20T16:53:51.613Z</time></trkpt><trkpt lat="45.3397283" lon="9.71248"><ele>65.0</ele><time>2026-04-20T16:53:52.613Z</time></trkpt><trkpt lat="45.3398" lon="9.7125283"><ele>65.0</ele><time>2026-04-20T16:53:53.613Z</time></trkpt><trkpt lat="45.3398683" lon="9.7125767"><ele>65.0</ele><time>2026-04-20T16:53:54.613Z</time></trkpt><trkpt lat="45.339935" lon="9.7126167"><ele>65.16666666666667</ele><time>2026-04-20T16:53:55.613Z</time></trkpt><trkpt lat="45.3400033" lon="9.712665"><ele>65.33333333333334</ele><time>2026-04-20T16:53:56.614Z</time></trkpt><trkpt lat="45.340075" lon="9.712705"><ele>65.5</ele><time>2026-04-20T16:53:57.613Z</time></trkpt><trkpt lat="45.340145" lon="9.712755"><ele>65.66666666666667</ele><time>2026-04-20T16:53:58.613Z</time></trkpt><trkpt lat="45.3402133" lon="9.7127983"><ele>65.83333333333333</ele><time>2026-04-20T16:53:59.613Z</time></trkpt><trkpt lat="45.34028" lon="9.7128383"><ele>66.0</ele><time>2026-04-20T16:54:00.613Z</time></trkpt><trkpt lat="45.3403517" lon="9.7128833"><ele>65.71428571428571</ele><time>2026-04-20T16:54:01.613Z</time></trkpt><trkpt lat="45.340425" lon="9.7129317"><ele>65.42857142857143</ele><time>2026-04-20T16:54:02.613Z</time></trkpt><trkpt lat="45.34049" lon="9.7129867"><ele>65.14285714285714</ele><time>2026-04-20T16:54:03.613Z</time></trkpt><trkpt lat="45.3405433" lon="9.713055"><ele>64.85714285714286</ele><time>2026-04-20T16:54:04.613Z</time></trkpt><trkpt lat="45.340585" lon="9.7131283"><ele>64.57142857142857</ele><time>2026-04-20T16:54:05.613Z</time></trkpt><trkpt lat="45.3406233" lon="9.713205"><ele>64.28571428571428</ele><time>2026-04-20T16:54:06.613Z</time></trkpt><trkpt lat="45.3406617" lon="9.7132867"><ele>64.0</ele><time>2026-04-20T16:54:07.613Z</time></trkpt><trkpt lat="45.3406967" lon="9.7133633"><ele>64.0</ele><time>2026-04-20T16:54:08.613Z</time></trkpt><trkpt lat="45.3407283" lon="9.7134467"><ele>63.99999999999999</ele><time>2026-04-20T16:54:09.613Z</time></trkpt><trkpt lat="45.3407567" lon="9.7135333"><ele>64.0</ele><time>2026-04-20T16:54:10.613Z</time></trkpt><trkpt lat="45.3407867" lon="9.7136167"><ele>64.0</ele><time>2026-04-20T16:54:11.613Z</time></trkpt><trkpt lat="45.34081" lon="9.7137067"><ele>63.99999999999999</ele><time>2026-04-20T16:54:12.613Z</time></trkpt><trkpt lat="45.34084" lon="9.7137883"><ele>64.0</ele><time>2026-04-20T16:54:13.613Z</time></trkpt><trkpt lat="45.3408667" lon="9.7138717"><ele>64.0</ele><time>2026-04-20T16:54:14.613Z</time></trkpt><trkpt lat="45.3408967" lon="9.7139567"><ele>64.16666666666666</ele><time>2026-04-20T16:54:15.613Z</time></trkpt><trkpt lat="45.3409217" lon="9.7140417"><ele>64.33333333333333</ele><time>2026-04-20T16:54:16.613Z</time></trkpt><trkpt lat="45.34095" lon="9.7141267"><ele>64.5</ele><time>2026-04-20T16:54:17.613Z</time></trkpt><trkpt lat="45.3409983" lon="9.714295"><ele>64.66666666666667</ele><time>2026-04-20T16:54:19.613Z</time></trkpt><trkpt lat="45.3410267" lon="9.714375"><ele>64.83333333333334</ele><time>2026-04-20T16:54:20.614Z</time></trkpt><trkpt lat="45.3410533" lon="9.7144583"><ele>65.0</ele><time>2026-04-20T16:54:21.613Z</time></trkpt><trkpt lat="45.34108" lon="9.714545"><ele>65.5</ele><time>2026-04-20T16:54:22.613Z</time></trkpt><trkpt lat="45.3411183" lon="9.7147083"><ele>66.0</ele><time>2026-04-20T16:54:24.613Z</time></trkpt><trkpt lat="45.34113" lon="9.7148733"><ele>66.5</ele><time>2026-04-20T16:54:26.613Z</time></trkpt><trkpt lat="45.34114" lon="9.7150417"><ele>67.0</ele><time>2026-04-20T16:54:28.613Z</time></trkpt><trkpt lat="45.3411733" lon="9.7152067"><ele>67.14285714285714</ele><time>2026-04-20T16:54:30.614Z</time></trkpt><trkpt lat="45.34119" lon="9.715295"><ele>67.28571428571428</ele><time>2026-04-20T16:54:31.613Z</time></trkpt><trkpt lat="45.341215" lon="9.7153817"><ele>67.42857142857142</ele><time>2026-04-20T16:54:32.613Z</time></trkpt><trkpt lat="45.3412367" lon="9.71547"><ele>67.57142857142857</ele><time>2026-04-20T16:54:33.613Z</time></trkpt><trkpt lat="45.3412567" lon="9.715555"><ele>67.71428571428571</ele><time>2026-04-20T16:54:34.613Z</time></trkpt><trkpt lat="45.341275" lon="9.7156417"><ele>67.85714285714285</ele><time>2026-04-20T16:54:35.613Z</time></trkpt><trkpt lat="45.3412933" lon="9.7157317"><ele>68.0</ele><time>2026-04-20T16:54:36.613Z</time></trkpt><trkpt lat="45.3413133" lon="9.71582"><ele>68.0</ele><time>2026-04-20T16:54:37.613Z</time></trkpt><trkpt lat="45.3413283" lon="9.7159083"><ele>68.0</ele><time>2026-04-20T16:54:38.614Z</time></trkpt><trkpt lat="45.3413667" lon="9.71608"><ele>68.0</ele><time>2026-04-20T16:54:40.613Z</time></trkpt><trkpt lat="45.3413867" lon="9.716165"><ele>68.0</ele><time>2026-04-20T16:54:41.613Z</time></trkpt><trkpt lat="45.341425" lon="9.71633"><ele>68.0</ele><time>2026-04-20T16:54:43.613Z</time></trkpt><trkpt lat="45.3414667" lon="9.7165"><ele>68.0</ele><time>2026-04-20T16:54:45.613Z</time></trkpt><trkpt lat="45.34152" lon="9.716665"><ele>68.0</ele><time>2026-04-20T16:54:47.613Z</time></trkpt><trkpt lat="45.3415567" lon="9.716825"><ele>68.0</ele><time>2026-04-20T16:54:49.614Z</time></trkpt><trkpt lat="45.3416" lon="9.7169683"><ele>68.0</ele><time>2026-04-20T16:54:51.613Z</time></trkpt><trkpt lat="45.3416433" lon="9.7171217"><ele>68.0</ele><time>2026-04-20T16:54:53.613Z</time></trkpt><trkpt lat="45.3417017" lon="9.7172767"><ele>68.0</ele><time>2026-04-20T16:54:55.613Z</time></trkpt><trkpt lat="45.3417333" lon="9.7173583"><ele>68.0</ele><time>2026-04-20T16:54:56.613Z</time></trkpt><trkpt lat="45.3417717" lon="9.7174333"><ele>68.0</ele><time>2026-04-20T16:54:57.613Z</time></trkpt><trkpt lat="45.3418383" lon="9.7175783"><ele>68.0</ele><time>2026-04-20T16:54:59.613Z</time></trkpt><trkpt lat="45.341875" lon="9.7176533"><ele>68.0</ele><time>2026-04-20T16:55:00.613Z</time></trkpt><trkpt lat="45.341905" lon="9.7177333"><ele>68.0</ele><time>2026-04-20T16:55:01.613Z</time></trkpt><trkpt lat="45.3419367" lon="9.7178133"><ele>68.0</ele><time>2026-04-20T16:55:02.613Z</time></trkpt><trkpt lat="45.3419933" lon="9.71797"><ele>68.0</ele><time>2026-04-20T16:55:04.613Z</time></trkpt><trkpt lat="45.3420283" lon="9.7180517"><ele>68.0</ele><time>2026-04-20T16:55:05.614Z</time></trkpt><trkpt lat="45.34206" lon="9.718135"><ele>68.0</ele><time>2026-04-20T16:55:06.613Z</time></trkpt><trkpt lat="45.3420933" lon="9.71822"><ele>68.0</ele><time>2026-04-20T16:55:07.613Z</time></trkpt><trkpt lat="45.3421217" lon="9.7183067"><ele>67.99999999999999</ele><time>2026-04-20T16:55:08.613Z</time></trkpt><trkpt lat="45.3421533" lon="9.7183933"><ele>68.0</ele><time>2026-04-20T16:55:09.613Z</time></trkpt><trkpt lat="45.3421883" lon="9.7184783"><ele>68.0</ele><time>2026-04-20T16:55:10.613Z</time></trkpt><trkpt lat="45.3422183" lon="9.7185617"><ele>68.0</ele><time>2026-04-20T16:55:11.613Z</time></trkpt><trkpt lat="45.34225" lon="9.7186483"><ele>68.0</ele><time>2026-04-20T16:55:12.613Z</time></trkpt><trkpt lat="45.3422767" lon="9.7187317"><ele>67.99999999999999</ele><time>2026-04-20T16:55:13.613Z</time></trkpt><trkpt lat="45.3423083" lon="9.7188117"><ele>68.0</ele><time>2026-04-20T16:55:14.613Z</time></trkpt><trkpt lat="45.3423367" lon="9.7188917"><ele>68.0</ele><time>2026-04-20T16:55:15.613Z</time></trkpt><trkpt lat="45.342385" lon="9.7190467"><ele>68.0</ele><time>2026-04-20T16:55:17.613Z</time></trkpt><trkpt lat="45.3424067" lon="9.7191317"><ele>68.0</ele><time>2026-04-20T16:55:18.613Z</time></trkpt><trkpt lat="45.3424517" lon="9.719295"><ele>68.0</ele><time>2026-04-20T16:55:20.613Z</time></trkpt><trkpt lat="45.3425033" lon="9.7194633"><ele>68.0</ele><time>2026-04-20T16:55:22.613Z</time></trkpt><trkpt lat="45.34252" lon="9.71955"><ele>68.14285714285714</ele><time>2026-04-20T16:55:23.613Z</time></trkpt><trkpt lat="45.3425433" lon="9.719635"><ele>68.28571428571428</ele><time>2026-04-20T16:55:24.613Z</time></trkpt><trkpt lat="45.3425733" lon="9.71972"><ele>68.42857142857143</ele><time>2026-04-20T16:55:25.613Z</time></trkpt><trkpt lat="45.3426033" lon="9.7198067"><ele>68.57142857142857</ele><time>2026-04-20T16:55:26.613Z</time></trkpt><trkpt lat="45.3426317" lon="9.7198967"><ele>68.71428571428572</ele><time>2026-04-20T16:55:27.613Z</time></trkpt><trkpt lat="45.3426533" lon="9.7199883"><ele>68.85714285714286</ele><time>2026-04-20T16:55:28.613Z</time></trkpt><trkpt lat="45.3426783" lon="9.7200833"><ele>69.0</ele><time>2026-04-20T16:55:29.613Z</time></trkpt><trkpt lat="45.3427033" lon="9.7201733"><ele>68.85714285714286</ele><time>2026-04-20T16:55:30.613Z</time></trkpt><trkpt lat="45.3427283" lon="9.7202667"><ele>68.71428571428572</ele><time>2026-04-20T16:55:31.614Z</time></trkpt><trkpt lat="45.3427483" lon="9.7203633"><ele>68.57142857142857</ele><time>2026-04-20T16:55:32.613Z</time></trkpt><trkpt lat="45.3427717" lon="9.7204533"><ele>68.42857142857143</ele><time>2026-04-20T16:55:33.614Z</time></trkpt><trkpt lat="45.3427883" lon="9.72055"><ele>68.28571428571428</ele><time>2026-04-20T16:55:34.613Z</time></trkpt><trkpt lat="45.342805" lon="9.7206433"><ele>68.14285714285714</ele><time>2026-04-20T16:55:35.613Z</time></trkpt><trkpt lat="45.3428267" lon="9.7207433"><ele>68.0</ele><time>2026-04-20T16:55:36.613Z</time></trkpt><trkpt lat="45.3428417" lon="9.720845"><ele>67.99999999999999</ele><time>2026-04-20T16:55:37.613Z</time></trkpt><trkpt lat="45.342855" lon="9.7209467"><ele>68.0</ele><time>2026-04-20T16:55:38.613Z</time></trkpt><trkpt lat="45.3428683" lon="9.7210433"><ele>68.0</ele><time>2026-04-20T16:55:39.613Z</time></trkpt><trkpt lat="45.3428817" lon="9.7211433"><ele>68.0</ele><time>2026-04-20T16:55:40.613Z</time></trkpt><trkpt lat="45.342895" lon="9.7212383"><ele>68.0</ele><time>2026-04-20T16:55:41.613Z</time></trkpt><trkpt lat="45.3429067" lon="9.7213267"><ele>67.99999999999999</ele><time>2026-04-20T16:55:42.613Z</time></trkpt><trkpt lat="45.3429183" lon="9.7214167"><ele>68.0</ele><time>2026-04-20T16:55:43.613Z</time></trkpt><trkpt lat="45.3429283" lon="9.7215117"><ele>68.14285714285714</ele><time>2026-04-20T16:55:44.613Z</time></trkpt><trkpt lat="45.3429417" lon="9.7216117"><ele>68.28571428571428</ele><time>2026-04-20T16:55:45.613Z</time></trkpt><trkpt lat="45.3429583" lon="9.7217067"><ele>68.42857142857143</ele><time>2026-04-20T16:55:46.613Z</time></trkpt><trkpt lat="45.342975" lon="9.7217983"><ele>68.57142857142857</ele><time>2026-04-20T16:55:47.613Z</time></trkpt><trkpt lat="45.3429817" lon="9.7219"><ele>68.71428571428572</ele><time>2026-04-20T16:55:48.613Z</time></trkpt><trkpt lat="45.3429917" lon="9.721995"><ele>68.85714285714286</ele><time>2026-04-20T16:55:49.613Z</time></trkpt><trkpt lat="45.3430083" lon="9.72209"><ele>69.0</ele><time>2026-04-20T16:55:50.613Z</time></trkpt><trkpt lat="45.34302" lon="9.7221867"><ele>69.0</ele><time>2026-04-20T16:55:51.613Z</time></trkpt><trkpt lat="45.34303" lon="9.722285"><ele>69.0</ele><time>2026-04-20T16:55:52.613Z</time></trkpt><trkpt lat="45.3430383" lon="9.7223817"><ele>69.0</ele><time>2026-04-20T16:55:53.613Z</time></trkpt><trkpt lat="45.3430517" lon="9.7224767"><ele>69.0</ele><time>2026-04-20T16:55:54.613Z</time></trkpt><trkpt lat="45.3430633" lon="9.7225717"><ele>69.0</ele><time>2026-04-20T16:55:55.613Z</time></trkpt><trkpt lat="45.3430717" lon="9.7226717"><ele>69.0</ele><time>2026-04-20T16:55:56.613Z</time></trkpt><trkpt lat="45.3430733" lon="9.722775"><ele>69.0</ele><time>2026-04-20T16:55:57.613Z</time></trkpt><trkpt lat="45.34308" lon="9.72288"><ele>69.0</ele><time>2026-04-20T16:55:58.614Z</time></trkpt><trkpt lat="45.34308" lon="9.7229833"><ele>69.0</ele><time>2026-04-20T16:55:59.613Z</time></trkpt><trkpt lat="45.3430767" lon="9.7230817"><ele>69.0</ele><time>2026-04-20T16:56:00.613Z</time></trkpt><trkpt lat="45.3430683" lon="9.7231767"><ele>69.0</ele><time>2026-04-20T16:56:01.613Z</time></trkpt><trkpt lat="45.3430567" lon="9.7232767"><ele>69.0</ele><time>2026-04-20T16:56:02.613Z</time></trkpt><trkpt lat="45.3430517" lon="9.7233867"><ele>69.0</ele><time>2026-04-20T16:56:03.613Z</time></trkpt><trkpt lat="45.3430433" lon="9.7234933"><ele>69.0</ele><time>2026-04-20T16:56:04.613Z</time></trkpt><trkpt lat="45.3430283" lon="9.7235867"><ele>69.0</ele><time>2026-04-20T16:56:05.613Z</time></trkpt><trkpt lat="45.3430117" lon="9.72368"><ele>69.0</ele><time>2026-04-20T16:56:06.613Z</time></trkpt><trkpt lat="45.343005" lon="9.7237733"><ele>69.0</ele><time>2026-04-20T16:56:07.613Z</time></trkpt><trkpt lat="45.3429967" lon="9.7238667"><ele>69.0</ele><time>2026-04-20T16:56:08.613Z</time></trkpt><trkpt lat="45.3429867" lon="9.7239617"><ele>69.0</ele><time>2026-04-20T16:56:09.613Z</time></trkpt><trkpt lat="45.34298" lon="9.7240567"><ele>69.0</ele><time>2026-04-20T16:56:10.613Z</time></trkpt><trkpt lat="45.3429733" lon="9.72415"><ele>69.0</ele><time>2026-04-20T16:56:11.613Z</time></trkpt><trkpt lat="45.3429567" lon="9.72433"><ele>69.16666666666667</ele><time>2026-04-20T16:56:13.613Z</time></trkpt><trkpt lat="45.34295" lon="9.72443"><ele>69.33333333333333</ele><time>2026-04-20T16:56:14.613Z</time></trkpt><trkpt lat="45.3429533" lon="9.724525"><ele>69.5</ele><time>2026-04-20T16:56:15.614Z</time></trkpt><trkpt lat="45.3429583" lon="9.7246167"><ele>69.66666666666666</ele><time>2026-04-20T16:56:16.613Z</time></trkpt><trkpt lat="45.3429817" lon="9.72479"><ele>69.83333333333333</ele><time>2026-04-20T16:56:18.613Z</time></trkpt><trkpt lat="45.3430033" lon="9.724885"><ele>70.0</ele><time>2026-04-20T16:56:19.613Z</time></trkpt><trkpt lat="45.3430233" lon="9.7249767"><ele>70.2</ele><time>2026-04-20T16:56:20.613Z</time></trkpt><trkpt lat="45.343055" lon="9.72514"><ele>70.4</ele><time>2026-04-20T16:56:22.613Z</time></trkpt><trkpt lat="45.3430817" lon="9.72528"><ele>70.6</ele><time>2026-04-20T16:56:24.613Z</time></trkpt><trkpt lat="45.3431233" lon="9.7254083"><ele>70.8</ele><time>2026-04-20T16:56:26.613Z</time></trkpt><trkpt lat="45.3431533" lon="9.7255317"><ele>71.0</ele><time>2026-04-20T16:56:28.613Z</time></trkpt><trkpt lat="45.3431633" lon="9.7256233"><ele>71.0</ele><time>2026-04-20T16:56:30.613Z</time></trkpt><trkpt lat="45.3432483" lon="9.7256517"><ele>71.0</ele><time>2026-04-20T16:56:33.613Z</time></trkpt><trkpt lat="45.343305" lon="9.72576"><ele>71.0</ele><time>2026-04-20T16:56:35.613Z</time></trkpt><trkpt lat="45.3433333" lon="9.72593"><ele>71.0</ele><time>2026-04-20T16:56:37.613Z</time></trkpt><trkpt lat="45.3433683" lon="9.7261033"><ele>71.0</ele><time>2026-04-20T16:56:39.614Z</time></trkpt><trkpt lat="45.3433983" lon="9.726275"><ele>71.0</ele><time>2026-04-20T16:56:41.613Z</time></trkpt><trkpt lat="45.3434133" lon="9.7263683"><ele>71.0</ele><time>2026-04-20T16:56:42.613Z</time></trkpt><trkpt lat="45.3434433" lon="9.7265333"><ele>71.0</ele><time>2026-04-20T16:56:44.613Z</time></trkpt><trkpt lat="45.3434617" lon="9.7266283"><ele>71.0</ele><time>2026-04-20T16:56:45.613Z</time></trkpt><trkpt lat="45.3434767" lon="9.72672"><ele>71.0</ele><time>2026-04-20T16:56:46.613Z</time></trkpt><trkpt lat="45.343495" lon="9.7268067"><ele>71.0</ele><time>2026-04-20T16:56:47.613Z</time></trkpt><trkpt lat="45.3435217" lon="9.72698"><ele>71.0</ele><time>2026-04-20T16:56:49.613Z</time></trkpt><trkpt lat="45.3435383" lon="9.7270733"><ele>71.0</ele><time>2026-04-20T16:56:50.613Z</time></trkpt><trkpt lat="45.34355" lon="9.727165"><ele>71.0</ele><time>2026-04-20T16:56:51.613Z</time></trkpt><trkpt lat="45.3435667" lon="9.7272533"><ele>71.0</ele><time>2026-04-20T16:56:52.613Z</time></trkpt><trkpt lat="45.3435783" lon="9.7273467"><ele>71.0</ele><time>2026-04-20T16:56:53.613Z</time></trkpt><trkpt lat="45.3436033" lon="9.7275183"><ele>71.0</ele><time>2026-04-20T16:56:55.613Z</time></trkpt><trkpt lat="45.3436167" lon="9.7276117"><ele>71.0</ele><time>2026-04-20T16:56:56.613Z</time></trkpt><trkpt lat="45.3436333" lon="9.7277017"><ele>71.0</ele><time>2026-04-20T16:56:57.613Z</time></trkpt><trkpt lat="45.3436517" lon="9.7277883"><ele>71.0</ele><time>2026-04-20T16:56:58.614Z</time></trkpt><trkpt lat="45.343665" lon="9.7279533"><ele>71.0</ele><time>2026-04-20T16:57:00.613Z</time></trkpt><trkpt lat="45.3436783" lon="9.7281317"><ele>71.0</ele><time>2026-04-20T16:57:02.614Z</time></trkpt><trkpt lat="45.3436983" lon="9.7282983"><ele>71.0</ele><time>2026-04-20T16:57:04.614Z</time></trkpt><trkpt lat="45.34372" lon="9.728475"><ele>71.0</ele><time>2026-04-20T16:57:06.613Z</time></trkpt><trkpt lat="45.3437333" lon="9.728575"><ele>71.0</ele><time>2026-04-20T16:57:07.613Z</time></trkpt><trkpt lat="45.3437517" lon="9.7287467"><ele>71.0</ele><time>2026-04-20T16:57:09.613Z</time></trkpt><trkpt lat="45.3437683" lon="9.7289167"><ele>71.0</ele><time>2026-04-20T16:57:11.613Z</time></trkpt><trkpt lat="45.3437367" lon="9.7290567"><ele>71.0</ele><time>2026-04-20T16:57:13.613Z</time></trkpt><trkpt lat="45.3436917" lon="9.729155"><ele>71.0</ele><time>2026-04-20T16:57:15.613Z</time></trkpt><trkpt lat="45.3437083" lon="9.729285"><ele>71.0</ele><time>2026-04-20T16:57:17.613Z</time></trkpt><trkpt lat="45.3437767" lon="9.72941"><ele>71.0</ele><time>2026-04-20T16:57:19.613Z</time></trkpt><trkpt lat="45.3438117" lon="9.729495"><ele>71.0</ele><time>2026-04-20T16:57:20.613Z</time></trkpt><trkpt lat="45.3438467" lon="9.7295983"><ele>71.0</ele><time>2026-04-20T16:57:21.613Z</time></trkpt><trkpt lat="45.3438817" lon="9.7296983"><ele>70.8</ele><time>2026-04-20T16:57:22.613Z</time></trkpt><trkpt lat="45.3439083" lon="9.729815"><ele>70.6</ele><time>2026-04-20T16:57:23.613Z</time></trkpt><trkpt lat="45.3439467" lon="9.7299333"><ele>70.4</ele><time>2026-04-20T16:57:24.613Z</time></trkpt><trkpt lat="45.3439917" lon="9.7300633"><ele>70.2</ele><time>2026-04-20T16:57:25.613Z</time></trkpt><trkpt lat="45.3440283" lon="9.7301817"><ele>70.0</ele><time>2026-04-20T16:57:26.613Z</time></trkpt><trkpt lat="45.344075" lon="9.7303"><ele>69.85714285714286</ele><time>2026-04-20T16:57:27.613Z</time></trkpt><trkpt lat="45.3441167" lon="9.7304"><ele>69.71428571428572</ele><time>2026-04-20T16:57:28.613Z</time></trkpt><trkpt lat="45.3441417" lon="9.7305"><ele>69.57142857142857</ele><time>2026-04-20T16:57:29.614Z</time></trkpt><trkpt lat="45.3441817" lon="9.7305867"><ele>69.42857142857143</ele><time>2026-04-20T16:57:30.613Z</time></trkpt><trkpt lat="45.3442267" lon="9.73067"><ele>69.28571428571429</ele><time>2026-04-20T16:57:31.613Z</time></trkpt><trkpt lat="45.344275" lon="9.7307467"><ele>69.14285714285714</ele><time>2026-04-20T16:57:32.613Z</time></trkpt><trkpt lat="45.34432" lon="9.7308183"><ele>69.0</ele><time>2026-04-20T16:57:33.613Z</time></trkpt><trkpt lat="45.3443733" lon="9.7308833"><ele>69.0</ele><time>2026-04-20T16:57:34.613Z</time></trkpt><trkpt lat="45.3444233" lon="9.7309433"><ele>69.0</ele><time>2026-04-20T16:57:35.613Z</time></trkpt><trkpt lat="45.3444767" lon="9.730995"><ele>69.0</ele><time>2026-04-20T16:57:36.613Z</time></trkpt><trkpt lat="45.3445733" lon="9.7310917"><ele>69.0</ele><time>2026-04-20T16:57:38.614Z</time></trkpt><trkpt lat="45.344675" lon="9.731185"><ele>69.0</ele><time>2026-04-20T16:57:40.613Z</time></trkpt><trkpt lat="45.3447867" lon="9.7312583"><ele>69.4</ele><time>2026-04-20T16:57:42.613Z</time></trkpt><trkpt lat="45.3448483" lon="9.7312883"><ele>69.80000000000001</ele><time>2026-04-20T16:57:43.613Z</time></trkpt><trkpt lat="45.34497" lon="9.7313267"><ele>70.19999999999999</ele><time>2026-04-20T16:57:45.613Z</time></trkpt><trkpt lat="45.3450883" lon="9.7313617"><ele>70.6</ele><time>2026-04-20T16:57:47.613Z</time></trkpt><trkpt lat="45.3451883" lon="9.73142"><ele>71.0</ele><time>2026-04-20T16:57:49.613Z</time></trkpt><trkpt lat="45.3452883" lon="9.731475"><ele>71.0</ele><time>2026-04-20T16:57:51.614Z</time></trkpt><trkpt lat="45.3453933" lon="9.7315317"><ele>71.0</ele><time>2026-04-20T16:57:53.613Z</time></trkpt><trkpt lat="45.3454967" lon="9.7315933"><ele>71.0</ele><time>2026-04-20T16:57:55.613Z</time></trkpt><trkpt lat="45.3456033" lon="9.7316517"><ele>71.0</ele><time>2026-04-20T16:57:57.614Z</time></trkpt><trkpt lat="45.3457117" lon="9.7317267"><ele>70.75</ele><time>2026-04-20T16:57:59.614Z</time></trkpt><trkpt lat="45.3458083" lon="9.7318117"><ele>70.5</ele><time>2026-04-20T16:58:01.613Z</time></trkpt><trkpt lat="45.345905" lon="9.7319117"><ele>70.25</ele><time>2026-04-20T16:58:03.613Z</time></trkpt><trkpt lat="45.345995" lon="9.7320117"><ele>70.0</ele><time>2026-04-20T16:58:05.613Z</time></trkpt><trkpt lat="45.3460867" lon="9.7321217"><ele>70.0</ele><time>2026-04-20T16:58:07.613Z</time></trkpt><trkpt lat="45.34618" lon="9.7322317"><ele>70.0</ele><time>2026-04-20T16:58:09.613Z</time></trkpt><trkpt lat="45.3462283" lon="9.73229"><ele>70.0</ele><time>2026-04-20T16:58:10.613Z</time></trkpt><trkpt lat="45.3462767" lon="9.7323517"><ele>70.0</ele><time>2026-04-20T16:58:11.613Z</time></trkpt><trkpt lat="45.3463233" lon="9.7324183"><ele>70.0</ele><time>2026-04-20T16:58:12.613Z</time></trkpt><trkpt lat="45.34637" lon="9.7324833"><ele>70.0</ele><time>2026-04-20T16:58:13.613Z</time></trkpt><trkpt lat="45.3464583" lon="9.7326017"><ele>70.0</ele><time>2026-04-20T16:58:15.614Z</time></trkpt><trkpt lat="45.3465033" lon="9.7326667"><ele>70.0</ele><time>2026-04-20T16:58:16.613Z</time></trkpt><trkpt lat="45.3465483" lon="9.7327317"><ele>70.0</ele><time>2026-04-20T16:58:17.614Z</time></trkpt><trkpt lat="45.3466283" lon="9.7328533"><ele>70.0</ele><time>2026-04-20T16:58:19.613Z</time></trkpt><trkpt lat="45.3467133" lon="9.7329817"><ele>70.0</ele><time>2026-04-20T16:58:21.613Z</time></trkpt><trkpt lat="45.346755" lon="9.7330517"><ele>70.0</ele><time>2026-04-20T16:58:22.614Z</time></trkpt><trkpt lat="45.3468" lon="9.73312"><ele>70.0</ele><time>2026-04-20T16:58:23.613Z</time></trkpt><trkpt lat="45.34689" lon="9.7332517"><ele>70.0</ele><time>2026-04-20T16:58:25.613Z</time></trkpt><trkpt lat="45.346935" lon="9.73332"><ele>70.0</ele><time>2026-04-20T16:58:26.613Z</time></trkpt><trkpt lat="45.3469833" lon="9.7333867"><ele>70.0</ele><time>2026-04-20T16:58:27.613Z</time></trkpt><trkpt lat="45.34703" lon="9.7334567"><ele>70.0</ele><time>2026-04-20T16:58:28.613Z</time></trkpt><trkpt lat="45.3470767" lon="9.733525"><ele>70.0</ele><time>2026-04-20T16:58:29.613Z</time></trkpt><trkpt lat="45.3471617" lon="9.7336267"><ele>69.83333333333333</ele><time>2026-04-20T16:58:31.613Z</time></trkpt><trkpt lat="45.347265" lon="9.7337233"><ele>69.66666666666666</ele><time>2026-04-20T16:58:33.613Z</time></trkpt><trkpt lat="45.34737" lon="9.733815"><ele>69.5</ele><time>2026-04-20T16:58:35.613Z</time></trkpt><trkpt lat="45.3474267" lon="9.73386"><ele>69.33333333333333</ele><time>2026-04-20T16:58:36.613Z</time></trkpt><trkpt lat="45.3474867" lon="9.7339017"><ele>69.16666666666667</ele><time>2026-04-20T16:58:37.613Z</time></trkpt><trkpt lat="45.3475367" lon="9.73396"><ele>69.0</ele><time>2026-04-20T16:58:38.613Z</time></trkpt><trkpt lat="45.3475867" lon="9.734015"><ele>69.0</ele><time>2026-04-20T16:58:39.614Z</time></trkpt><trkpt lat="45.3476883" lon="9.7341217"><ele>69.0</ele><time>2026-04-20T16:58:41.613Z</time></trkpt><trkpt lat="45.3477417" lon="9.7341733"><ele>69.0</ele><time>2026-04-20T16:58:42.614Z</time></trkpt><trkpt lat="45.3477983" lon="9.7342217"><ele>69.0</ele><time>2026-04-20T16:58:43.613Z</time></trkpt><trkpt lat="45.34786" lon="9.734275"><ele>69.0</ele><time>2026-04-20T16:58:44.613Z</time></trkpt><trkpt lat="45.347915" lon="9.734325"><ele>69.0</ele><time>2026-04-20T16:58:45.613Z</time></trkpt><trkpt lat="45.3479733" lon="9.734375"><ele>69.28571428571429</ele><time>2026-04-20T16:58:46.613Z</time></trkpt><trkpt lat="45.3480317" lon="9.7344233"><ele>69.57142857142858</ele><time>2026-04-20T16:58:47.614Z</time></trkpt><trkpt lat="45.348085" lon="9.7344717"><ele>69.85714285714286</ele><time>2026-04-20T16:58:48.613Z</time></trkpt><trkpt lat="45.3481467" lon="9.7345183"><ele>70.14285714285714</ele><time>2026-04-20T16:58:49.613Z</time></trkpt><trkpt lat="45.3482017" lon="9.7345717"><ele>70.42857142857142</ele><time>2026-04-20T16:58:50.613Z</time></trkpt><trkpt lat="45.348255" lon="9.7346267"><ele>70.71428571428571</ele><time>2026-04-20T16:58:51.613Z</time></trkpt><trkpt lat="45.3483067" lon="9.7346817"><ele>71.0</ele><time>2026-04-20T16:58:52.613Z</time></trkpt><trkpt lat="45.3483617" lon="9.7347433"><ele>71.0</ele><time>2026-04-20T16:58:53.613Z</time></trkpt><trkpt lat="45.3484167" lon="9.7348033"><ele>71.0</ele><time>2026-04-20T16:58:54.613Z</time></trkpt><trkpt lat="45.34847" lon="9.734865"><ele>71.0</ele><time>2026-04-20T16:58:55.613Z</time></trkpt><trkpt lat="45.34852" lon="9.734925"><ele>71.0</ele><time>2026-04-20T16:58:56.613Z</time></trkpt><trkpt lat="45.3485733" lon="9.7349833"><ele>71.0</ele><time>2026-04-20T16:58:57.613Z</time></trkpt><trkpt lat="45.3486283" lon="9.7350517"><ele>71.0</ele><time>2026-04-20T16:58:58.613Z</time></trkpt><trkpt lat="45.3486783" lon="9.7351117"><ele>71.0</ele><time>2026-04-20T16:58:59.614Z</time></trkpt><trkpt lat="45.3487767" lon="9.735225"><ele>70.83333333333334</ele><time>2026-04-20T16:59:01.613Z</time></trkpt><trkpt lat="45.3488333" lon="9.7352817"><ele>70.66666666666667</ele><time>2026-04-20T16:59:02.613Z</time></trkpt><trkpt lat="45.3488883" lon="9.7353367"><ele>70.5</ele><time>2026-04-20T16:59:03.613Z</time></trkpt><trkpt lat="45.3489417" lon="9.7354"><ele>70.33333333333333</ele><time>2026-04-20T16:59:04.613Z</time></trkpt><trkpt lat="45.348995" lon="9.7354583"><ele>70.16666666666666</ele><time>2026-04-20T16:59:05.613Z</time></trkpt><trkpt lat="45.3490933" lon="9.7355717"><ele>70.0</ele><time>2026-04-20T16:59:07.613Z</time></trkpt><trkpt lat="45.3491867" lon="9.7356867"><ele>70.0</ele><time>2026-04-20T16:59:09.613Z</time></trkpt><trkpt lat="45.3492383" lon="9.7357467"><ele>70.0</ele><time>2026-04-20T16:59:10.613Z</time></trkpt><trkpt lat="45.34929" lon="9.7358033"><ele>70.0</ele><time>2026-04-20T16:59:11.613Z</time></trkpt><trkpt lat="45.349345" lon="9.73586"><ele>70.0</ele><time>2026-04-20T16:59:12.613Z</time></trkpt><trkpt lat="45.3493917" lon="9.7359233"><ele>70.0</ele><time>2026-04-20T16:59:13.613Z</time></trkpt><trkpt lat="45.34944" lon="9.7359883"><ele>70.0</ele><time>2026-04-20T16:59:14.613Z</time></trkpt><trkpt lat="45.3494917" lon="9.7360467"><ele>70.0</ele><time>2026-04-20T16:59:15.613Z</time></trkpt><trkpt lat="45.34954" lon="9.7361067"><ele>70.16666666666666</ele><time>2026-04-20T16:59:16.613Z</time></trkpt><trkpt lat="45.34959" lon="9.7361633"><ele>70.33333333333333</ele><time>2026-04-20T16:59:17.613Z</time></trkpt><trkpt lat="45.3496433" lon="9.736225"><ele>70.5</ele><time>2026-04-20T16:59:18.613Z</time></trkpt><trkpt lat="45.3496933" lon="9.73628"><ele>70.66666666666667</ele><time>2026-04-20T16:59:19.613Z</time></trkpt><trkpt lat="45.3497833" lon="9.7363883"><ele>70.83333333333334</ele><time>2026-04-20T16:59:21.614Z</time></trkpt><trkpt lat="45.3498767" lon="9.7364933"><ele>71.0</ele><time>2026-04-20T16:59:23.613Z</time></trkpt><trkpt lat="45.3499733" lon="9.7365983"><ele>70.75</ele><time>2026-04-20T16:59:25.613Z</time></trkpt><trkpt lat="45.350065" lon="9.736715"><ele>70.5</ele><time>2026-04-20T16:59:27.612Z</time></trkpt><trkpt lat="45.3501583" lon="9.7368117"><ele>70.25</ele><time>2026-04-20T16:59:29.612Z</time></trkpt><trkpt lat="45.350255" lon="9.736915"><ele>70.0</ele><time>2026-04-20T16:59:31.612Z</time></trkpt><trkpt lat="45.3503433" lon="9.737025"><ele>70.0</ele><time>2026-04-20T16:59:33.612Z</time></trkpt><trkpt lat="45.350435" lon="9.737125"><ele>70.0</ele><time>2026-04-20T16:59:35.612Z</time></trkpt><trkpt lat="45.3505333" lon="9.7372367"><ele>70.0</ele><time>2026-04-20T16:59:37.612Z</time></trkpt><trkpt lat="45.3506267" lon="9.7373517"><ele>70.0</ele><time>2026-04-20T16:59:39.612Z</time></trkpt><trkpt lat="45.3506767" lon="9.7374083"><ele>70.0</ele><time>2026-04-20T16:59:40.612Z</time></trkpt><trkpt lat="45.3507283" lon="9.737465"><ele>70.16666666666666</ele><time>2026-04-20T16:59:41.612Z</time></trkpt><trkpt lat="45.3508267" lon="9.7375783"><ele>70.33333333333333</ele><time>2026-04-20T16:59:43.613Z</time></trkpt><trkpt lat="45.3508817" lon="9.7376417"><ele>70.5</ele><time>2026-04-20T16:59:44.613Z</time></trkpt><trkpt lat="45.35093" lon="9.7377"><ele>70.66666666666667</ele><time>2026-04-20T16:59:45.612Z</time></trkpt><trkpt lat="45.3509817" lon="9.73776"><ele>70.83333333333334</ele><time>2026-04-20T16:59:46.612Z</time></trkpt><trkpt lat="45.3510317" lon="9.7378217"><ele>71.0</ele><time>2026-04-20T16:59:47.612Z</time></trkpt><trkpt lat="45.3510833" lon="9.7378767"><ele>71.0</ele><time>2026-04-20T16:59:48.613Z</time></trkpt><trkpt lat="45.3511333" lon="9.737935"><ele>71.0</ele><time>2026-04-20T16:59:49.612Z</time></trkpt><trkpt lat="45.3511883" lon="9.737995"><ele>71.0</ele><time>2026-04-20T16:59:50.612Z</time></trkpt><trkpt lat="45.351245" lon="9.7380617"><ele>71.0</ele><time>2026-04-20T16:59:51.612Z</time></trkpt><trkpt lat="45.3512983" lon="9.7381217"><ele>71.0</ele><time>2026-04-20T16:59:52.612Z</time></trkpt><trkpt lat="45.3513517" lon="9.738185"><ele>71.0</ele><time>2026-04-20T16:59:53.612Z</time></trkpt><trkpt lat="45.3514067" lon="9.73824"><ele>71.0</ele><time>2026-04-20T16:59:54.612Z</time></trkpt><trkpt lat="45.3514567" lon="9.7383"><ele>70.85714285714286</ele><time>2026-04-20T16:59:55.612Z</time></trkpt><trkpt lat="45.3515117" lon="9.7383667"><ele>70.71428571428571</ele><time>2026-04-20T16:59:56.612Z</time></trkpt><trkpt lat="45.351565" lon="9.7384267"><ele>70.57142857142857</ele><time>2026-04-20T16:59:57.612Z</time></trkpt><trkpt lat="45.3516183" lon="9.7384917"><ele>70.42857142857143</ele><time>2026-04-20T16:59:58.612Z</time></trkpt><trkpt lat="45.3516733" lon="9.73855"><ele>70.28571428571428</ele><time>2026-04-20T16:59:59.612Z</time></trkpt><trkpt lat="45.3517233" lon="9.7386083"><ele>70.14285714285714</ele><time>2026-04-20T17:00:00.612Z</time></trkpt><trkpt lat="45.3517767" lon="9.73867"><ele>70.0</ele><time>2026-04-20T17:00:01.612Z</time></trkpt><trkpt lat="45.3518283" lon="9.7387333"><ele>70.0</ele><time>2026-04-20T17:00:02.612Z</time></trkpt><trkpt lat="45.3518783" lon="9.7387967"><ele>70.0</ele><time>2026-04-20T17:00:03.612Z</time></trkpt><trkpt lat="45.351975" lon="9.73891"><ele>70.0</ele><time>2026-04-20T17:00:05.612Z</time></trkpt><trkpt lat="45.3520717" lon="9.7390167"><ele>70.0</ele><time>2026-04-20T17:00:07.612Z</time></trkpt><trkpt lat="45.3521667" lon="9.7391267"><ele>70.0</ele><time>2026-04-20T17:00:09.612Z</time></trkpt><trkpt lat="45.3522583" lon="9.7392383"><ele>70.0</ele><time>2026-04-20T17:00:11.612Z</time></trkpt><trkpt lat="45.3523533" lon="9.73934"><ele>70.0</ele><time>2026-04-20T17:00:13.612Z</time></trkpt><trkpt lat="45.3524517" lon="9.7394483"><ele>70.0</ele><time>2026-04-20T17:00:15.612Z</time></trkpt><trkpt lat="45.3525483" lon="9.7395567"><ele>70.0</ele><time>2026-04-20T17:00:17.612Z</time></trkpt><trkpt lat="45.3526467" lon="9.7396667"><ele>70.16666666666666</ele><time>2026-04-20T17:00:19.612Z</time></trkpt><trkpt lat="45.352745" lon="9.7397833"><ele>70.33333333333333</ele><time>2026-04-20T17:00:21.612Z</time></trkpt><trkpt lat="45.352795" lon="9.7398433"><ele>70.5</ele><time>2026-04-20T17:00:22.612Z</time></trkpt><trkpt lat="45.3528483" lon="9.739905"><ele>70.66666666666667</ele><time>2026-04-20T17:00:23.612Z</time></trkpt><trkpt lat="45.3528967" lon="9.7399683"><ele>70.83333333333334</ele><time>2026-04-20T17:00:24.612Z</time></trkpt><trkpt lat="45.3529833" lon="9.7400817"><ele>71.0</ele><time>2026-04-20T17:00:26.612Z</time></trkpt><trkpt lat="45.353075" lon="9.7401983"><ele>71.39999999999999</ele><time>2026-04-20T17:00:28.612Z</time></trkpt><trkpt lat="45.353125" lon="9.7402567"><ele>71.8</ele><time>2026-04-20T17:00:29.612Z</time></trkpt><trkpt lat="45.3532167" lon="9.7403667"><ele>72.19999999999999</ele><time>2026-04-20T17:00:31.612Z</time></trkpt><trkpt lat="45.3532683" lon="9.740425"><ele>72.6</ele><time>2026-04-20T17:00:32.612Z</time></trkpt><trkpt lat="45.353355" lon="9.740535"><ele>73.0</ele><time>2026-04-20T17:00:34.612Z</time></trkpt><trkpt lat="45.353435" lon="9.740635"><ele>73.0</ele><time>2026-04-20T17:00:36.612Z</time></trkpt><trkpt lat="45.3535083" lon="9.74072"><ele>73.0</ele><time>2026-04-20T17:00:38.612Z</time></trkpt><trkpt lat="45.3535583" lon="9.7408183"><ele>73.0</ele><time>2026-04-20T17:00:40.612Z</time></trkpt><trkpt lat="45.3535233" lon="9.7409117"><ele>73.0</ele><time>2026-04-20T17:00:42.612Z</time></trkpt><trkpt lat="45.3534733" lon="9.7409683"><ele>73.0</ele><time>2026-04-20T17:00:44.612Z</time></trkpt><trkpt lat="45.3534117" lon="9.7410217"><ele>73.0</ele><time>2026-04-20T17:00:46.612Z</time></trkpt><trkpt lat="45.3533467" lon="9.7410833"><ele>72.83333333333333</ele><time>2026-04-20T17:00:48.612Z</time></trkpt><trkpt lat="45.3532833" lon="9.74115"><ele>72.66666666666666</ele><time>2026-04-20T17:00:50.612Z</time></trkpt><trkpt lat="45.3532217" lon="9.7412017"><ele>72.5</ele><time>2026-04-20T17:00:52.612Z</time></trkpt><trkpt lat="45.35316" lon="9.7412533"><ele>72.33333333333333</ele><time>2026-04-20T17:00:54.612Z</time></trkpt><trkpt lat="45.3530933" lon="9.741305"><ele>72.16666666666667</ele><time>2026-04-20T17:00:56.612Z</time></trkpt><trkpt lat="45.3530167" lon="9.7413683"><ele>72.0</ele><time>2026-04-20T17:00:58.613Z</time></trkpt><trkpt lat="45.35295" lon="9.74144"><ele>71.83333333333333</ele><time>2026-04-20T17:01:00.612Z</time></trkpt><trkpt lat="45.3528767" lon="9.7415017"><ele>71.66666666666667</ele><time>2026-04-20T17:01:02.612Z</time></trkpt><trkpt lat="45.3527983" lon="9.7415617"><ele>71.5</ele><time>2026-04-20T17:01:04.612Z</time></trkpt><trkpt lat="45.3527283" lon="9.7416133"><ele>71.33333333333334</ele><time>2026-04-20T17:01:06.612Z</time></trkpt><trkpt lat="45.3526567" lon="9.7416767"><ele>71.16666666666667</ele><time>2026-04-20T17:01:08.612Z</time></trkpt><trkpt lat="45.3526" lon="9.74176"><ele>71.0</ele><time>2026-04-20T17:01:10.612Z</time></trkpt><trkpt lat="45.35257" lon="9.7418783"><ele>71.2</ele><time>2026-04-20T17:01:12.612Z</time></trkpt><trkpt lat="45.352575" lon="9.7420017"><ele>71.39999999999999</ele><time>2026-04-20T17:01:14.612Z</time></trkpt><trkpt lat="45.3526033" lon="9.7421317"><ele>71.6</ele><time>2026-04-20T17:01:16.612Z</time></trkpt><trkpt lat="45.3526283" lon="9.7422633"><ele>71.8</ele><time>2026-04-20T17:01:18.612Z</time></trkpt><trkpt lat="45.3526533" lon="9.742395"><ele>72.0</ele><time>2026-04-20T17:01:20.612Z</time></trkpt><trkpt lat="45.35268" lon="9.7425267"><ele>72.0</ele><time>2026-04-20T17:01:22.612Z</time></trkpt><trkpt lat="45.3527083" lon="9.7426733"><ele>72.0</ele><time>2026-04-20T17:01:24.612Z</time></trkpt><trkpt lat="45.35273" lon="9.7428183"><ele>72.0</ele><time>2026-04-20T17:01:26.612Z</time></trkpt><trkpt lat="45.352755" lon="9.7429517"><ele>72.0</ele><time>2026-04-20T17:01:28.612Z</time></trkpt><trkpt lat="45.3527883" lon="9.7430983"><ele>72.0</ele><time>2026-04-20T17:01:30.612Z</time></trkpt><trkpt lat="45.35281" lon="9.7432283"><ele>72.2</ele><time>2026-04-20T17:01:32.612Z</time></trkpt><trkpt lat="45.3528417" lon="9.7433417"><ele>72.4</ele><time>2026-04-20T17:01:34.612Z</time></trkpt><trkpt lat="45.3528767" lon="9.7434683"><ele>72.6</ele><time>2026-04-20T17:01:36.612Z</time></trkpt><trkpt lat="45.3528967" lon="9.7436117"><ele>72.8</ele><time>2026-04-20T17:01:38.612Z</time></trkpt><trkpt lat="45.35292" lon="9.743765"><ele>73.0</ele><time>2026-04-20T17:01:40.612Z</time></trkpt><trkpt lat="45.3529483" lon="9.7439217"><ele>73.25</ele><time>2026-04-20T17:01:42.612Z</time></trkpt><trkpt lat="45.3529817" lon="9.74408"><ele>73.5</ele><time>2026-04-20T17:01:44.612Z</time></trkpt><trkpt lat="45.353005" lon="9.7442383"><ele>73.75</ele><time>2026-04-20T17:01:46.612Z</time></trkpt><trkpt lat="45.35304" lon="9.7443933"><ele>74.0</ele><time>2026-04-20T17:01:48.612Z</time></trkpt><trkpt lat="45.3530717" lon="9.744545"><ele>74.0</ele><time>2026-04-20T17:01:50.612Z</time></trkpt><trkpt lat="45.3531033" lon="9.7447033"><ele>74.0</ele><time>2026-04-20T17:01:52.613Z</time></trkpt><trkpt lat="45.3531333" lon="9.7448633"><ele>74.0</ele><time>2026-04-20T17:01:54.612Z</time></trkpt><trkpt lat="45.3531533" lon="9.7450183"><ele>74.0</ele><time>2026-04-20T17:01:56.612Z</time></trkpt><trkpt lat="45.3531817" lon="9.745175"><ele>73.4</ele><time>2026-04-20T17:01:58.612Z</time></trkpt><trkpt lat="45.3532133" lon="9.7453283"><ele>72.80000000000001</ele><time>2026-04-20T17:02:00.612Z</time></trkpt><trkpt lat="45.3532417" lon="9.7454767"><ele>72.19999999999999</ele><time>2026-04-20T17:02:02.612Z</time></trkpt><trkpt lat="45.3532683" lon="9.7456267"><ele>71.6</ele><time>2026-04-20T17:02:04.612Z</time></trkpt><trkpt lat="45.35329" lon="9.7457833"><ele>71.0</ele><time>2026-04-20T17:02:06.612Z</time></trkpt><trkpt lat="45.3533117" lon="9.7459433"><ele>71.6</ele><time>2026-04-20T17:02:08.612Z</time></trkpt><trkpt lat="45.35334" lon="9.74609"><ele>72.19999999999999</ele><time>2026-04-20T17:02:10.612Z</time></trkpt><trkpt lat="45.3533733" lon="9.746235"><ele>72.80000000000001</ele><time>2026-04-20T17:02:12.613Z</time></trkpt><trkpt lat="45.3534017" lon="9.7463767"><ele>73.4</ele><time>2026-04-20T17:02:14.612Z</time></trkpt><trkpt lat="45.3534333" lon="9.7465217"><ele>74.0</ele><time>2026-04-20T17:02:16.613Z</time></trkpt><trkpt lat="45.353465" lon="9.7466567"><ele>74.0</ele><time>2026-04-20T17:02:18.612Z</time></trkpt><trkpt lat="45.3534983" lon="9.7467983"><ele>74.0</ele><time>2026-04-20T17:02:20.612Z</time></trkpt><trkpt lat="45.3535283" lon="9.7469483"><ele>74.0</ele><time>2026-04-20T17:02:22.612Z</time></trkpt><trkpt lat="45.3535633" lon="9.7470983"><ele>74.0</ele><time>2026-04-20T17:02:24.612Z</time></trkpt><trkpt lat="45.3535933" lon="9.7472417"><ele>74.0</ele><time>2026-04-20T17:02:26.612Z</time></trkpt><trkpt lat="45.35362" lon="9.7473733"><ele>74.0</ele><time>2026-04-20T17:02:28.612Z</time></trkpt><trkpt lat="45.3536467" lon="9.7475083"><ele>74.0</ele><time>2026-04-20T17:02:30.612Z</time></trkpt><trkpt lat="45.3536683" lon="9.7476467"><ele>74.0</ele><time>2026-04-20T17:02:32.612Z</time></trkpt><trkpt lat="45.3537017" lon="9.7477933"><ele>74.0</ele><time>2026-04-20T17:02:34.612Z</time></trkpt><trkpt lat="45.3537317" lon="9.7479333"><ele>74.0</ele><time>2026-04-20T17:02:36.612Z</time></trkpt><trkpt lat="45.3537583" lon="9.74808"><ele>74.0</ele><time>2026-04-20T17:02:38.612Z</time></trkpt><trkpt lat="45.353795" lon="9.7482233"><ele>74.0</ele><time>2026-04-20T17:02:40.612Z</time></trkpt><trkpt lat="45.3538183" lon="9.74837"><ele>74.0</ele><time>2026-04-20T17:02:42.612Z</time></trkpt><trkpt lat="45.353845" lon="9.7485067"><ele>74.0</ele><time>2026-04-20T17:02:44.613Z</time></trkpt><trkpt lat="45.3538767" lon="9.74864"><ele>74.0</ele><time>2026-04-20T17:02:46.612Z</time></trkpt><trkpt lat="45.3539083" lon="9.7487833"><ele>74.0</ele><time>2026-04-20T17:02:48.612Z</time></trkpt><trkpt lat="45.3539533" lon="9.7489217"><ele>74.0</ele><time>2026-04-20T17:02:50.612Z</time></trkpt><trkpt lat="45.3539867" lon="9.74906"><ele>74.0</ele><time>2026-04-20T17:02:52.612Z</time></trkpt><trkpt lat="45.3540133" lon="9.7491817"><ele>74.0</ele><time>2026-04-20T17:02:54.612Z</time></trkpt><trkpt lat="45.3540433" lon="9.7493017"><ele>74.0</ele><time>2026-04-20T17:02:56.612Z</time></trkpt><trkpt lat="45.3540767" lon="9.7494083"><ele>74.16666666666667</ele><time>2026-04-20T17:02:58.612Z</time></trkpt><trkpt lat="45.3541167" lon="9.7495117"><ele>74.33333333333334</ele><time>2026-04-20T17:03:00.612Z</time></trkpt><trkpt lat="45.35416" lon="9.74959"><ele>74.5</ele><time>2026-04-20T17:03:02.612Z</time></trkpt><trkpt lat="45.3541283" lon="9.7496683"><ele>74.66666666666667</ele><time>2026-04-20T17:03:05.612Z</time></trkpt><trkpt lat="45.35405" lon="9.749705"><ele>74.83333333333333</ele><time>2026-04-20T17:03:07.612Z</time></trkpt><trkpt lat="45.3539583" lon="9.7497433"><ele>75.0</ele><time>2026-04-20T17:03:09.612Z</time></trkpt><trkpt lat="45.35387" lon="9.749775"><ele>74.6</ele><time>2026-04-20T17:03:11.613Z</time></trkpt><trkpt lat="45.3537717" lon="9.74981"><ele>74.2</ele><time>2026-04-20T17:03:13.612Z</time></trkpt><trkpt lat="45.353665" lon="9.7498567"><ele>73.8</ele><time>2026-04-20T17:03:15.613Z</time></trkpt><trkpt lat="45.35357" lon="9.7498883"><ele>73.4</ele><time>2026-04-20T17:03:17.612Z</time></trkpt><trkpt lat="45.3534583" lon="9.74993"><ele>73.0</ele><time>2026-04-20T17:03:19.612Z</time></trkpt><trkpt lat="45.3533483" lon="9.7499783"><ele>73.0</ele><time>2026-04-20T17:03:21.612Z</time></trkpt><trkpt lat="45.3532467" lon="9.7500283"><ele>73.0</ele><time>2026-04-20T17:03:23.612Z</time></trkpt><trkpt lat="45.3531383" lon="9.7500717"><ele>73.0</ele><time>2026-04-20T17:03:25.612Z</time></trkpt><trkpt lat="45.353035" lon="9.7501217"><ele>73.0</ele><time>2026-04-20T17:03:27.612Z</time></trkpt><trkpt lat="45.3529283" lon="9.7501717"><ele>73.0</ele><time>2026-04-20T17:03:29.612Z</time></trkpt><trkpt lat="45.3528217" lon="9.7502233"><ele>73.2</ele><time>2026-04-20T17:03:31.612Z</time></trkpt><trkpt lat="45.3527133" lon="9.75028"><ele>73.4</ele><time>2026-04-20T17:03:33.612Z</time></trkpt><trkpt lat="45.352605" lon="9.7503317"><ele>73.60000000000001</ele><time>2026-04-20T17:03:35.612Z</time></trkpt><trkpt lat="45.3524967" lon="9.750385"><ele>73.8</ele><time>2026-04-20T17:03:37.612Z</time></trkpt><trkpt lat="45.3524367" lon="9.7504217"><ele>74.0</ele><time>2026-04-20T17:03:38.612Z</time></trkpt><trkpt lat="45.3523217" lon="9.7504667"><ele>74.0</ele><time>2026-04-20T17:03:40.612Z</time></trkpt><trkpt lat="45.35226" lon="9.7505033"><ele>74.0</ele><time>2026-04-20T17:03:41.612Z</time></trkpt><trkpt lat="45.3522017" lon="9.7505417"><ele>74.0</ele><time>2026-04-20T17:03:42.612Z</time></trkpt><trkpt lat="45.3520833" lon="9.7506017"><ele>74.0</ele><time>2026-04-20T17:03:44.612Z</time></trkpt><trkpt lat="45.35202" lon="9.7506367"><ele>74.0</ele><time>2026-04-20T17:03:45.612Z</time></trkpt><trkpt lat="45.3519583" lon="9.7506717"><ele>74.0</ele><time>2026-04-20T17:03:46.612Z</time></trkpt><trkpt lat="45.3518983" lon="9.7507067"><ele>73.85714285714286</ele><time>2026-04-20T17:03:47.613Z</time></trkpt><trkpt lat="45.351835" lon="9.750745"><ele>73.71428571428571</ele><time>2026-04-20T17:03:48.612Z</time></trkpt><trkpt lat="45.3517733" lon="9.750785"><ele>73.57142857142857</ele><time>2026-04-20T17:03:49.612Z</time></trkpt><trkpt lat="45.3517133" lon="9.750825"><ele>73.42857142857143</ele><time>2026-04-20T17:03:50.612Z</time></trkpt><trkpt lat="45.3516517" lon="9.7508617"><ele>73.28571428571429</ele><time>2026-04-20T17:03:51.613Z</time></trkpt><trkpt lat="45.3515933" lon="9.7508983"><ele>73.14285714285714</ele><time>2026-04-20T17:03:52.612Z</time></trkpt><trkpt lat="45.351535" lon="9.7509383"><ele>73.0</ele><time>2026-04-20T17:03:53.612Z</time></trkpt><trkpt lat="45.35145" lon="9.7510717"><ele>73.0</ele><time>2026-04-20T17:03:55.612Z</time></trkpt><trkpt lat="45.3514283" lon="9.7511583"><ele>73.0</ele><time>2026-04-20T17:03:56.612Z</time></trkpt><trkpt lat="45.351435" lon="9.751255"><ele>73.0</ele><time>2026-04-20T17:03:57.612Z</time></trkpt><trkpt lat="45.3514533" lon="9.7513467"><ele>73.0</ele><time>2026-04-20T17:03:58.613Z</time></trkpt><trkpt lat="45.3514733" lon="9.7514433"><ele>73.0</ele><time>2026-04-20T17:03:59.613Z</time></trkpt><trkpt lat="45.3514983" lon="9.7515333"><ele>73.0</ele><time>2026-04-20T17:04:00.612Z</time></trkpt><trkpt lat="45.35152" lon="9.7516317"><ele>73.0</ele><time>2026-04-20T17:04:01.612Z</time></trkpt><trkpt lat="45.3515433" lon="9.75173"><ele>73.0</ele><time>2026-04-20T17:04:02.612Z</time></trkpt><trkpt lat="45.35156" lon="9.751825"><ele>73.0</ele><time>2026-04-20T17:04:03.612Z</time></trkpt><trkpt lat="45.3515817" lon="9.7519217"><ele>73.0</ele><time>2026-04-20T17:04:04.612Z</time></trkpt><trkpt lat="45.3516017" lon="9.7520133"><ele>73.0</ele><time>2026-04-20T17:04:05.612Z</time></trkpt><trkpt lat="45.3516217" lon="9.7521117"><ele>73.0</ele><time>2026-04-20T17:04:06.612Z</time></trkpt><trkpt lat="45.3516433" lon="9.7522033"><ele>73.0</ele><time>2026-04-20T17:04:07.612Z</time></trkpt><trkpt lat="45.3516617" lon="9.7522983"><ele>73.0</ele><time>2026-04-20T17:04:08.613Z</time></trkpt><trkpt lat="45.3516833" lon="9.7523933"><ele>73.14285714285714</ele><time>2026-04-20T17:04:09.613Z</time></trkpt><trkpt lat="45.351705" lon="9.7524883"><ele>73.28571428571429</ele><time>2026-04-20T17:04:10.612Z</time></trkpt><trkpt lat="45.351725" lon="9.75258"><ele>73.42857142857143</ele><time>2026-04-20T17:04:11.612Z</time></trkpt><trkpt lat="45.351745" lon="9.7526717"><ele>73.57142857142857</ele><time>2026-04-20T17:04:12.612Z</time></trkpt><trkpt lat="45.3517667" lon="9.75276"><ele>73.71428571428571</ele><time>2026-04-20T17:04:13.612Z</time></trkpt><trkpt lat="45.3517833" lon="9.75285"><ele>73.85714285714286</ele><time>2026-04-20T17:04:14.612Z</time></trkpt><trkpt lat="45.3518" lon="9.7529367"><ele>74.0</ele><time>2026-04-20T17:04:15.612Z</time></trkpt><trkpt lat="45.3518267" lon="9.7531067"><ele>74.0</ele><time>2026-04-20T17:04:17.612Z</time></trkpt><trkpt lat="45.3518567" lon="9.75326"><ele>74.0</ele><time>2026-04-20T17:04:19.612Z</time></trkpt><trkpt lat="45.35189" lon="9.7534183"><ele>74.0</ele><time>2026-04-20T17:04:21.612Z</time></trkpt><trkpt lat="45.35191" lon="9.7535683"><ele>74.0</ele><time>2026-04-20T17:04:23.612Z</time></trkpt><trkpt lat="45.3519083" lon="9.7537167"><ele>74.0</ele><time>2026-04-20T17:04:25.612Z</time></trkpt><trkpt lat="45.3518967" lon="9.7538717"><ele>74.0</ele><time>2026-04-20T17:04:27.612Z</time></trkpt><trkpt lat="45.3518967" lon="9.7540383"><ele>74.0</ele><time>2026-04-20T17:04:29.612Z</time></trkpt><trkpt lat="45.3519083" lon="9.75421"><ele>74.0</ele><time>2026-04-20T17:04:31.612Z</time></trkpt><trkpt lat="45.3519133" lon="9.7543"><ele>74.0</ele><time>2026-04-20T17:04:32.612Z</time></trkpt><trkpt lat="45.3519183" lon="9.7543917"><ele>74.0</ele><time>2026-04-20T17:04:33.612Z</time></trkpt><trkpt lat="45.3519317" lon="9.754485"><ele>74.0</ele><time>2026-04-20T17:04:34.612Z</time></trkpt><trkpt lat="45.3519417" lon="9.75458"><ele>74.0</ele><time>2026-04-20T17:04:35.613Z</time></trkpt><trkpt lat="45.3519583" lon="9.75467"><ele>74.0</ele><time>2026-04-20T17:04:36.612Z</time></trkpt><trkpt lat="45.35197" lon="9.7547683"><ele>74.0</ele><time>2026-04-20T17:04:37.612Z</time></trkpt><trkpt lat="45.3519767" lon="9.754865"><ele>74.0</ele><time>2026-04-20T17:04:38.612Z</time></trkpt><trkpt lat="45.35198" lon="9.7549633"><ele>74.0</ele><time>2026-04-20T17:04:39.612Z</time></trkpt><trkpt lat="45.351985" lon="9.7550633"><ele>74.0</ele><time>2026-04-20T17:04:40.612Z</time></trkpt><trkpt lat="45.3519867" lon="9.755165"><ele>74.0</ele><time>2026-04-20T17:04:41.612Z</time></trkpt><trkpt lat="45.3519867" lon="9.7552717"><ele>73.85714285714286</ele><time>2026-04-20T17:04:42.612Z</time></trkpt><trkpt lat="45.3519867" lon="9.755375"><ele>73.71428571428571</ele><time>2026-04-20T17:04:43.612Z</time></trkpt><trkpt lat="45.351985" lon="9.755475"><ele>73.57142857142857</ele><time>2026-04-20T17:04:44.612Z</time></trkpt><trkpt lat="45.3519817" lon="9.7555783"><ele>73.42857142857143</ele><time>2026-04-20T17:04:45.613Z</time></trkpt><trkpt lat="45.35199" lon="9.755675"><ele>73.28571428571429</ele><time>2026-04-20T17:04:46.612Z</time></trkpt><trkpt lat="45.3519917" lon="9.7557667"><ele>73.14285714285714</ele><time>2026-04-20T17:04:47.612Z</time></trkpt><trkpt lat="45.3519883" lon="9.7558583"><ele>73.0</ele><time>2026-04-20T17:04:48.612Z</time></trkpt><trkpt lat="45.3519783" lon="9.7559483"><ele>73.0</ele><time>2026-04-20T17:04:49.613Z</time></trkpt><trkpt lat="45.3519617" lon="9.7560367"><ele>73.0</ele><time>2026-04-20T17:04:50.612Z</time></trkpt><trkpt lat="45.35194" lon="9.7561267"><ele>73.0</ele><time>2026-04-20T17:04:51.612Z</time></trkpt><trkpt lat="45.3519183" lon="9.7562133"><ele>73.0</ele><time>2026-04-20T17:04:52.612Z</time></trkpt><trkpt lat="45.3518933" lon="9.7563033"><ele>73.0</ele><time>2026-04-20T17:04:53.613Z</time></trkpt><trkpt lat="45.3518633" lon="9.7564"><ele>73.0</ele><time>2026-04-20T17:04:54.612Z</time></trkpt><trkpt lat="45.3518317" lon="9.7564983"><ele>73.0</ele><time>2026-04-20T17:04:55.612Z</time></trkpt><trkpt lat="45.351795" lon="9.756595"><ele>72.71428571428571</ele><time>2026-04-20T17:04:56.612Z</time></trkpt><trkpt lat="45.35176" lon="9.75668"><ele>72.42857142857143</ele><time>2026-04-20T17:04:57.612Z</time></trkpt><trkpt lat="45.35172" lon="9.756765"><ele>72.14285714285714</ele><time>2026-04-20T17:04:58.612Z</time></trkpt><trkpt lat="45.351685" lon="9.7568583"><ele>71.85714285714286</ele><time>2026-04-20T17:04:59.612Z</time></trkpt><trkpt lat="45.35165" lon="9.7569483"><ele>71.57142857142857</ele><time>2026-04-20T17:05:00.612Z</time></trkpt><trkpt lat="45.351615" lon="9.7570433"><ele>71.28571428571428</ele><time>2026-04-20T17:05:01.613Z</time></trkpt><trkpt lat="45.3515783" lon="9.7571333"><ele>71.0</ele><time>2026-04-20T17:05:02.612Z</time></trkpt><trkpt lat="45.3515433" lon="9.7572233"><ele>71.0</ele><time>2026-04-20T17:05:03.612Z</time></trkpt><trkpt lat="45.3515083" lon="9.7573133"><ele>71.0</ele><time>2026-04-20T17:05:04.612Z</time></trkpt><trkpt lat="45.351475" lon="9.7574"><ele>71.0</ele><time>2026-04-20T17:05:05.612Z</time></trkpt><trkpt lat="45.351445" lon="9.75749"><ele>71.0</ele><time>2026-04-20T17:05:06.612Z</time></trkpt><trkpt lat="45.3513967" lon="9.7576567"><ele>71.0</ele><time>2026-04-20T17:05:08.612Z</time></trkpt><trkpt lat="45.35138" lon="9.757745"><ele>71.0</ele><time>2026-04-20T17:05:09.612Z</time></trkpt><trkpt lat="45.3513683" lon="9.757835"><ele>70.85714285714286</ele><time>2026-04-20T17:05:10.613Z</time></trkpt><trkpt lat="45.3513583" lon="9.7579267"><ele>70.71428571428571</ele><time>2026-04-20T17:05:11.612Z</time></trkpt><trkpt lat="45.3513483" lon="9.7580233"><ele>70.57142857142857</ele><time>2026-04-20T17:05:12.612Z</time></trkpt><trkpt lat="45.3513433" lon="9.7581233"><ele>70.42857142857143</ele><time>2026-04-20T17:05:13.612Z</time></trkpt><trkpt lat="45.351335" lon="9.7582217"><ele>70.28571428571428</ele><time>2026-04-20T17:05:14.612Z</time></trkpt><trkpt lat="45.3513233" lon="9.75832"><ele>70.14285714285714</ele><time>2026-04-20T17:05:15.612Z</time></trkpt><trkpt lat="45.3513167" lon="9.7584183"><ele>70.0</ele><time>2026-04-20T17:05:16.612Z</time></trkpt><trkpt lat="45.3513083" lon="9.7585183"><ele>70.0</ele><time>2026-04-20T17:05:17.612Z</time></trkpt><trkpt lat="45.3513017" lon="9.7586167"><ele>70.0</ele><time>2026-04-20T17:05:18.612Z</time></trkpt><trkpt lat="45.3512967" lon="9.75872"><ele>70.0</ele><time>2026-04-20T17:05:19.613Z</time></trkpt><trkpt lat="45.3512867" lon="9.7588217"><ele>70.0</ele><time>2026-04-20T17:05:20.612Z</time></trkpt><trkpt lat="45.3512833" lon="9.7589267"><ele>70.0</ele><time>2026-04-20T17:05:21.613Z</time></trkpt><trkpt lat="45.35128" lon="9.75903"><ele>70.0</ele><time>2026-04-20T17:05:22.612Z</time></trkpt><trkpt lat="45.351275" lon="9.7591367"><ele>70.0</ele><time>2026-04-20T17:05:23.612Z</time></trkpt><trkpt lat="45.35127" lon="9.7592383"><ele>70.0</ele><time>2026-04-20T17:05:24.612Z</time></trkpt><trkpt lat="45.3512667" lon="9.7593333"><ele>70.0</ele><time>2026-04-20T17:05:25.612Z</time></trkpt><trkpt lat="45.3512583" lon="9.75943"><ele>70.0</ele><time>2026-04-20T17:05:26.612Z</time></trkpt><trkpt lat="45.3512533" lon="9.7595267"><ele>70.0</ele><time>2026-04-20T17:05:27.612Z</time></trkpt><trkpt lat="45.3512483" lon="9.7596267"><ele>70.0</ele><time>2026-04-20T17:05:28.612Z</time></trkpt><trkpt lat="45.3512467" lon="9.7597217"><ele>70.0</ele><time>2026-04-20T17:05:29.612Z</time></trkpt><trkpt lat="45.3512433" lon="9.7598167"><ele>70.0</ele><time>2026-04-20T17:05:30.613Z</time></trkpt><trkpt lat="45.3512433" lon="9.75991"><ele>70.14285714285714</ele><time>2026-04-20T17:05:31.612Z</time></trkpt><trkpt lat="45.3512417" lon="9.7600083"><ele>70.28571428571428</ele><time>2026-04-20T17:05:32.612Z</time></trkpt><trkpt lat="45.351235" lon="9.7601"><ele>70.42857142857143</ele><time>2026-04-20T17:05:33.612Z</time></trkpt><trkpt lat="45.3512317" lon="9.7601933"><ele>70.57142857142857</ele><time>2026-04-20T17:05:34.612Z</time></trkpt><trkpt lat="45.35123" lon="9.7602933"><ele>70.71428571428571</ele><time>2026-04-20T17:05:35.612Z</time></trkpt><trkpt lat="45.3512333" lon="9.76039"><ele>70.85714285714286</ele><time>2026-04-20T17:05:36.612Z</time></trkpt><trkpt lat="45.35124" lon="9.760485"><ele>71.0</ele><time>2026-04-20T17:05:37.612Z</time></trkpt><trkpt lat="45.35124" lon="9.7605833"><ele>71.0</ele><time>2026-04-20T17:05:38.613Z</time></trkpt><trkpt lat="45.3512383" lon="9.76068"><ele>71.0</ele><time>2026-04-20T17:05:39.612Z</time></trkpt><trkpt lat="45.3512467" lon="9.7607767"><ele>71.0</ele><time>2026-04-20T17:05:40.612Z</time></trkpt><trkpt lat="45.351255" lon="9.7608733"><ele>71.0</ele><time>2026-04-20T17:05:41.612Z</time></trkpt><trkpt lat="45.3512567" lon="9.7609733"><ele>71.0</ele><time>2026-04-20T17:05:42.612Z</time></trkpt><trkpt lat="45.3512667" lon="9.76108"><ele>71.0</ele><time>2026-04-20T17:05:43.612Z</time></trkpt><trkpt lat="45.3512717" lon="9.76118"><ele>71.0</ele><time>2026-04-20T17:05:44.612Z</time></trkpt><trkpt lat="45.35128" lon="9.7612783"><ele>71.0</ele><time>2026-04-20T17:05:45.612Z</time></trkpt><trkpt lat="45.35129" lon="9.7613783"><ele>71.0</ele><time>2026-04-20T17:05:46.612Z</time></trkpt><trkpt lat="45.3513067" lon="9.76148"><ele>71.0</ele><time>2026-04-20T17:05:47.612Z</time></trkpt><trkpt lat="45.3513133" lon="9.7615767"><ele>71.0</ele><time>2026-04-20T17:05:48.612Z</time></trkpt><trkpt lat="45.3513267" lon="9.76167"><ele>71.0</ele><time>2026-04-20T17:05:49.612Z</time></trkpt><trkpt lat="45.3513367" lon="9.7617683"><ele>71.0</ele><time>2026-04-20T17:05:50.611Z</time></trkpt><trkpt lat="45.35135" lon="9.7618633"><ele>71.0</ele><time>2026-04-20T17:05:51.611Z</time></trkpt><trkpt lat="45.3513583" lon="9.76196"><ele>71.0</ele><time>2026-04-20T17:05:52.611Z</time></trkpt><trkpt lat="45.3513667" lon="9.7620583"><ele>71.0</ele><time>2026-04-20T17:05:53.611Z</time></trkpt><trkpt lat="45.3513717" lon="9.76216"><ele>71.0</ele><time>2026-04-20T17:05:54.611Z</time></trkpt><trkpt lat="45.3513717" lon="9.762255"><ele>71.0</ele><time>2026-04-20T17:05:55.612Z</time></trkpt><trkpt lat="45.3513683" lon="9.7623483"><ele>71.0</ele><time>2026-04-20T17:05:56.611Z</time></trkpt><trkpt lat="45.351365" lon="9.7624417"><ele>71.0</ele><time>2026-04-20T17:05:57.611Z</time></trkpt><trkpt lat="45.3513633" lon="9.762535"><ele>71.0</ele><time>2026-04-20T17:05:58.611Z</time></trkpt><trkpt lat="45.35136" lon="9.7626317"><ele>70.71428571428571</ele><time>2026-04-20T17:05:59.612Z</time></trkpt><trkpt lat="45.3513567" lon="9.7627267"><ele>70.42857142857142</ele><time>2026-04-20T17:06:00.611Z</time></trkpt><trkpt lat="45.3513533" lon="9.7628217"><ele>70.14285714285714</ele><time>2026-04-20T17:06:01.611Z</time></trkpt><trkpt lat="45.3513483" lon="9.7629183"><ele>69.85714285714286</ele><time>2026-04-20T17:06:02.612Z</time></trkpt><trkpt lat="45.3513467" lon="9.763015"><ele>69.57142857142858</ele><time>2026-04-20T17:06:03.611Z</time></trkpt><trkpt lat="45.3513433" lon="9.76311"><ele>69.28571428571429</ele><time>2026-04-20T17:06:04.611Z</time></trkpt><trkpt lat="45.3513333" lon="9.7632067"><ele>69.0</ele><time>2026-04-20T17:06:05.611Z</time></trkpt><trkpt lat="45.351325" lon="9.7633"><ele>69.0</ele><time>2026-04-20T17:06:06.611Z</time></trkpt><trkpt lat="45.3513217" lon="9.7633933"><ele>69.0</ele><time>2026-04-20T17:06:07.611Z</time></trkpt><trkpt lat="45.351325" lon="9.7634883"><ele>69.0</ele><time>2026-04-20T17:06:08.611Z</time></trkpt><trkpt lat="45.3513333" lon="9.7636583"><ele>69.0</ele><time>2026-04-20T17:06:10.611Z</time></trkpt><trkpt lat="45.35133" lon="9.7638133"><ele>69.0</ele><time>2026-04-20T17:06:12.611Z</time></trkpt><trkpt lat="45.3513217" lon="9.7639517"><ele>69.0</ele><time>2026-04-20T17:06:14.611Z</time></trkpt><trkpt lat="45.3512633" lon="9.76407"><ele>69.0</ele><time>2026-04-20T17:06:16.611Z</time></trkpt><trkpt lat="45.3511733" lon="9.764125"><ele>69.0</ele><time>2026-04-20T17:06:18.611Z</time></trkpt><trkpt lat="45.3510817" lon="9.7641367"><ele>69.0</ele><time>2026-04-20T17:06:20.612Z</time></trkpt><trkpt lat="45.3509867" lon="9.7641333"><ele>69.0</ele><time>2026-04-20T17:06:22.611Z</time></trkpt><trkpt lat="45.3508867" lon="9.764135"><ele>69.0</ele><time>2026-04-20T17:06:24.611Z</time></trkpt><trkpt lat="45.350785" lon="9.7641367"><ele>69.0</ele><time>2026-04-20T17:06:26.611Z</time></trkpt><trkpt lat="45.350685" lon="9.764145"><ele>69.0</ele><time>2026-04-20T17:06:28.611Z</time></trkpt><trkpt lat="45.35058" lon="9.7641567"><ele>69.0</ele><time>2026-04-20T17:06:30.611Z</time></trkpt><trkpt lat="45.3504667" lon="9.76417"><ele>69.0</ele><time>2026-04-20T17:06:32.611Z</time></trkpt><trkpt lat="45.3503517" lon="9.7641833"><ele>69.5</ele><time>2026-04-20T17:06:34.611Z</time></trkpt><trkpt lat="45.3502367" lon="9.7641933"><ele>70.0</ele><time>2026-04-20T17:06:36.611Z</time></trkpt><trkpt lat="45.3501217" lon="9.7642017"><ele>70.5</ele><time>2026-04-20T17:06:38.611Z</time></trkpt><trkpt lat="45.35001" lon="9.7641933"><ele>71.0</ele><time>2026-04-20T17:06:40.611Z</time></trkpt><trkpt lat="45.349905" lon="9.7641617"><ele>71.0</ele><time>2026-04-20T17:06:42.611Z</time></trkpt><trkpt lat="45.3497883" lon="9.764145"><ele>71.0</ele><time>2026-04-20T17:06:59.611Z</time></trkpt><trkpt lat="45.3497167" lon="9.7641483"><ele>71.0</ele><time>2026-04-20T17:07:03.611Z</time></trkpt><trkpt lat="45.349645" lon="9.7641317"><ele>71.0</ele><time>2026-04-20T17:07:06.611Z</time></trkpt><trkpt lat="45.34957" lon="9.7641117"><ele>71.0</ele><time>2026-04-20T17:07:09.612Z</time></trkpt><trkpt lat="45.3494783" lon="9.764095"><ele>71.0</ele><time>2026-04-20T17:07:12.611Z</time></trkpt><trkpt lat="45.3493883" lon="9.7640783"><ele>70.83333333333334</ele><time>2026-04-20T17:07:15.611Z</time></trkpt><trkpt lat="45.349325" lon="9.764065"><ele>70.66666666666667</ele><time>2026-04-20T17:07:17.611Z</time></trkpt><trkpt lat="45.3492567" lon="9.7640517"><ele>70.5</ele><time>2026-04-20T17:07:19.611Z</time></trkpt><trkpt lat="45.349175" lon="9.7640317"><ele>70.33333333333333</ele><time>2026-04-20T17:07:22.611Z</time></trkpt><trkpt lat="45.349075" lon="9.764005"><ele>70.16666666666666</ele><time>2026-04-20T17:07:25.611Z</time></trkpt><trkpt lat="45.3489933" lon="9.76399"><ele>70.0</ele><time>2026-04-20T17:07:27.611Z</time></trkpt><trkpt lat="45.3489067" lon="9.7639733"><ele>70.2</ele><time>2026-04-20T17:07:29.611Z</time></trkpt><trkpt lat="45.3488017" lon="9.7639567"><ele>70.4</ele><time>2026-04-20T17:07:31.611Z</time></trkpt><trkpt lat="45.348695" lon="9.7639317"><ele>70.6</ele><time>2026-04-20T17:07:33.611Z</time></trkpt><trkpt lat="45.34859" lon="9.763915"><ele>70.8</ele><time>2026-04-20T17:07:35.611Z</time></trkpt><trkpt lat="45.3485033" lon="9.7639933"><ele>71.0</ele><time>2026-04-20T17:07:37.612Z</time></trkpt><trkpt lat="45.3484867" lon="9.76414"><ele>71.0</ele><time>2026-04-20T17:07:39.611Z</time></trkpt><trkpt lat="45.3485067" lon="9.7643067"><ele>71.0</ele><time>2026-04-20T17:07:41.612Z</time></trkpt><trkpt lat="45.348515" lon="9.76447"><ele>71.0</ele><time>2026-04-20T17:07:43.611Z</time></trkpt><trkpt lat="45.3485283" lon="9.7646333"><ele>71.0</ele><time>2026-04-20T17:07:45.611Z</time></trkpt><trkpt lat="45.34853" lon="9.7648017"><ele>71.0</ele><time>2026-04-20T17:07:47.611Z</time></trkpt><trkpt lat="45.3485417" lon="9.7649683"><ele>71.0</ele><time>2026-04-20T17:07:49.611Z</time></trkpt><trkpt lat="45.3485467" lon="9.7651367"><ele>71.0</ele><time>2026-04-20T17:07:51.611Z</time></trkpt><trkpt lat="45.3485483" lon="9.7652267"><ele>71.0</ele><time>2026-04-20T17:07:52.611Z</time></trkpt><trkpt lat="45.3485533" lon="9.7653167"><ele>71.0</ele><time>2026-04-20T17:07:53.611Z</time></trkpt><trkpt lat="45.348565" lon="9.765495"><ele>71.0</ele><time>2026-04-20T17:07:55.611Z</time></trkpt><trkpt lat="45.3485733" lon="9.7655867"><ele>71.0</ele><time>2026-04-20T17:07:56.611Z</time></trkpt><trkpt lat="45.348575" lon="9.7657683"><ele>71.0</ele><time>2026-04-20T17:07:58.611Z</time></trkpt><trkpt lat="45.3485733" lon="9.7658683"><ele>71.0</ele><time>2026-04-20T17:07:59.611Z</time></trkpt><trkpt lat="45.3485783" lon="9.7659683"><ele>71.0</ele><time>2026-04-20T17:08:00.611Z</time></trkpt><trkpt lat="45.348585" lon="9.766065"><ele>71.0</ele><time>2026-04-20T17:08:01.611Z</time></trkpt><trkpt lat="45.3485933" lon="9.766165"><ele>70.83333333333334</ele><time>2026-04-20T17:08:02.611Z</time></trkpt><trkpt lat="45.3485983" lon="9.7662667"><ele>70.66666666666667</ele><time>2026-04-20T17:08:03.611Z</time></trkpt><trkpt lat="45.348605" lon="9.7663667"><ele>70.5</ele><time>2026-04-20T17:08:04.612Z</time></trkpt><trkpt lat="45.34861" lon="9.7664583"><ele>70.33333333333333</ele><time>2026-04-20T17:08:05.611Z</time></trkpt><trkpt lat="45.3486183" lon="9.7666333"><ele>70.16666666666666</ele><time>2026-04-20T17:08:07.611Z</time></trkpt><trkpt lat="45.3486217" lon="9.766725"><ele>70.0</ele><time>2026-04-20T17:08:08.611Z</time></trkpt><trkpt lat="45.3486233" lon="9.76682"><ele>69.71428571428571</ele><time>2026-04-20T17:08:09.611Z</time></trkpt><trkpt lat="45.3486283" lon="9.7669167"><ele>69.42857142857143</ele><time>2026-04-20T17:08:10.612Z</time></trkpt><trkpt lat="45.34863" lon="9.7670183"><ele>69.14285714285714</ele><time>2026-04-20T17:08:11.611Z</time></trkpt><trkpt lat="45.34863" lon="9.7671233"><ele>68.85714285714286</ele><time>2026-04-20T17:08:12.611Z</time></trkpt><trkpt lat="45.3486333" lon="9.7672217"><ele>68.57142857142857</ele><time>2026-04-20T17:08:13.611Z</time></trkpt><trkpt lat="45.3486383" lon="9.76732"><ele>68.28571428571428</ele><time>2026-04-20T17:08:14.611Z</time></trkpt><trkpt lat="45.3486467" lon="9.76741"><ele>68.0</ele><time>2026-04-20T17:08:15.611Z</time></trkpt><trkpt lat="45.3486467" lon="9.767505"><ele>68.0</ele><time>2026-04-20T17:08:16.611Z</time></trkpt><trkpt lat="45.3486567" lon="9.7676767"><ele>68.0</ele><time>2026-04-20T17:08:18.611Z</time></trkpt><trkpt lat="45.348665" lon="9.7678433"><ele>68.0</ele><time>2026-04-20T17:08:20.611Z</time></trkpt><trkpt lat="45.3486717" lon="9.7679883"><ele>68.0</ele><time>2026-04-20T17:08:22.611Z</time></trkpt><trkpt lat="45.34868" lon="9.7681617"><ele>68.25</ele><time>2026-04-20T17:08:24.611Z</time></trkpt><trkpt lat="45.3486917" lon="9.7683233"><ele>68.5</ele><time>2026-04-20T17:08:26.611Z</time></trkpt><trkpt lat="45.34868" lon="9.7684883"><ele>68.75</ele><time>2026-04-20T17:08:28.611Z</time></trkpt><trkpt lat="45.3485967" lon="9.76861"><ele>69.0</ele><time>2026-04-20T17:08:30.611Z</time></trkpt><trkpt lat="45.348485" lon="9.76865"><ele>69.60000000000001</ele><time>2026-04-20T17:08:32.611Z</time></trkpt><trkpt lat="45.3483717" lon="9.7686383"><ele>70.2</ele><time>2026-04-20T17:08:34.611Z</time></trkpt><trkpt lat="45.348285" lon="9.7687017"><ele>70.80000000000001</ele><time>2026-04-20T17:08:36.611Z</time></trkpt><trkpt lat="45.3482683" lon="9.7688233"><ele>71.4</ele><time>2026-04-20T17:08:38.611Z</time></trkpt><trkpt lat="45.3482833" lon="9.7689583"><ele>72.0</ele><time>2026-04-20T17:08:40.611Z</time></trkpt><trkpt lat="45.3482933" lon="9.76909"><ele>72.0</ele><time>2026-04-20T17:08:42.611Z</time></trkpt><trkpt lat="45.3483067" lon="9.7692317"><ele>72.0</ele><time>2026-04-20T17:08:44.612Z</time></trkpt><trkpt lat="45.3483167" lon="9.7693717"><ele>72.0</ele><time>2026-04-20T17:08:46.611Z</time></trkpt><trkpt lat="45.3483" lon="9.7695117"><ele>72.0</ele><time>2026-04-20T17:08:48.611Z</time></trkpt><trkpt lat="45.3482967" lon="9.7696583"><ele>72.0</ele><time>2026-04-20T17:08:50.611Z</time></trkpt><trkpt lat="45.3483067" lon="9.7698"><ele>71.6</ele><time>2026-04-20T17:08:52.612Z</time></trkpt><trkpt lat="45.3483133" lon="9.769945"><ele>71.2</ele><time>2026-04-20T17:08:54.612Z</time></trkpt><trkpt lat="45.34832" lon="9.770105"><ele>70.8</ele><time>2026-04-20T17:08:56.611Z</time></trkpt><trkpt lat="45.3483267" lon="9.770195"><ele>70.4</ele><time>2026-04-20T17:08:57.612Z</time></trkpt><trkpt lat="45.348345" lon="9.7703617"><ele>70.0</ele><time>2026-04-20T17:08:59.611Z</time></trkpt><trkpt lat="45.3483567" lon="9.7705383"><ele>70.0</ele><time>2026-04-20T17:09:01.611Z</time></trkpt><trkpt lat="45.3483733" lon="9.7707083"><ele>70.0</ele><time>2026-04-20T17:09:03.611Z</time></trkpt><trkpt lat="45.3484017" lon="9.77088"><ele>70.0</ele><time>2026-04-20T17:09:05.611Z</time></trkpt><trkpt lat="45.3484133" lon="9.7709733"><ele>70.0</ele><time>2026-04-20T17:09:06.611Z</time></trkpt><trkpt lat="45.34843" lon="9.771065"><ele>70.0</ele><time>2026-04-20T17:09:07.611Z</time></trkpt><trkpt lat="45.3484467" lon="9.7711517"><ele>70.0</ele><time>2026-04-20T17:09:08.611Z</time></trkpt><trkpt lat="45.3484767" lon="9.7713183"><ele>70.0</ele><time>2026-04-20T17:09:10.611Z</time></trkpt><trkpt lat="45.3485" lon="9.771405"><ele>70.0</ele><time>2026-04-20T17:09:11.611Z</time></trkpt><trkpt lat="45.3485217" lon="9.77149"><ele>70.0</ele><time>2026-04-20T17:09:12.612Z</time></trkpt><trkpt lat="45.34856" lon="9.77165"><ele>70.0</ele><time>2026-04-20T17:09:14.611Z</time></trkpt><trkpt lat="45.3486" lon="9.7718133"><ele>70.0</ele><time>2026-04-20T17:09:16.612Z</time></trkpt><trkpt lat="45.3486333" lon="9.7719733"><ele>69.75</ele><time>2026-04-20T17:09:18.611Z</time></trkpt><trkpt lat="45.3486817" lon="9.7721267"><ele>69.5</ele><time>2026-04-20T17:09:20.611Z</time></trkpt><trkpt lat="45.348735" lon="9.7722783"><ele>69.25</ele><time>2026-04-20T17:09:22.611Z</time></trkpt><trkpt lat="45.3487833" lon="9.7724233"><ele>69.0</ele><time>2026-04-20T17:09:24.611Z</time></trkpt><trkpt lat="45.3488217" lon="9.7725633"><ele>69.0</ele><time>2026-04-20T17:09:26.611Z</time></trkpt><trkpt lat="45.3488467" lon="9.7727233"><ele>69.0</ele><time>2026-04-20T17:09:28.611Z</time></trkpt><trkpt lat="45.348875" lon="9.772895"><ele>69.0</ele><time>2026-04-20T17:09:30.611Z</time></trkpt><trkpt lat="45.3489033" lon="9.7730717"><ele>69.0</ele><time>2026-04-20T17:09:32.611Z</time></trkpt><trkpt lat="45.3489183" lon="9.7731617"><ele>69.0</ele><time>2026-04-20T17:09:33.611Z</time></trkpt><trkpt lat="45.3489317" lon="9.7732533"><ele>69.0</ele><time>2026-04-20T17:09:34.611Z</time></trkpt><trkpt lat="45.3489483" lon="9.773345"><ele>69.0</ele><time>2026-04-20T17:09:35.611Z</time></trkpt><trkpt lat="45.3489617" lon="9.773435"><ele>69.0</ele><time>2026-04-20T17:09:36.611Z</time></trkpt><trkpt lat="45.34898" lon="9.7735267"><ele>69.0</ele><time>2026-04-20T17:09:37.611Z</time></trkpt><trkpt lat="45.348995" lon="9.7736267"><ele>69.0</ele><time>2026-04-20T17:09:38.611Z</time></trkpt><trkpt lat="45.3490067" lon="9.7737167"><ele>69.0</ele><time>2026-04-20T17:09:39.611Z</time></trkpt><trkpt lat="45.3490217" lon="9.7738117"><ele>69.0</ele><time>2026-04-20T17:09:40.611Z</time></trkpt><trkpt lat="45.3490383" lon="9.7739083"><ele>69.0</ele><time>2026-04-20T17:09:41.611Z</time></trkpt><trkpt lat="45.3490517" lon="9.7739983"><ele>69.0</ele><time>2026-04-20T17:09:42.611Z</time></trkpt><trkpt lat="45.349065" lon="9.7740917"><ele>69.0</ele><time>2026-04-20T17:09:43.611Z</time></trkpt><trkpt lat="45.3490833" lon="9.7741867"><ele>69.0</ele><time>2026-04-20T17:09:44.611Z</time></trkpt><trkpt lat="45.3491033" lon="9.7742783"><ele>69.0</ele><time>2026-04-20T17:09:45.611Z</time></trkpt><trkpt lat="45.3491267" lon="9.77437"><ele>69.0</ele><time>2026-04-20T17:09:46.612Z</time></trkpt><trkpt lat="45.3491417" lon="9.7744633"><ele>69.0</ele><time>2026-04-20T17:09:47.611Z</time></trkpt><trkpt lat="45.3491583" lon="9.7745517"><ele>69.0</ele><time>2026-04-20T17:09:48.611Z</time></trkpt><trkpt lat="45.349175" lon="9.7746383"><ele>69.0</ele><time>2026-04-20T17:09:49.611Z</time></trkpt><trkpt lat="45.3492017" lon="9.7747917"><ele>69.0</ele><time>2026-04-20T17:09:51.611Z</time></trkpt><trkpt lat="45.349225" lon="9.774945"><ele>69.0</ele><time>2026-04-20T17:09:53.611Z</time></trkpt><trkpt lat="45.3492617" lon="9.775075"><ele>69.0</ele><time>2026-04-20T17:09:55.611Z</time></trkpt><trkpt lat="45.3493317" lon="9.7751517"><ele>69.0</ele><time>2026-04-20T17:09:57.611Z</time></trkpt><trkpt lat="45.3494233" lon="9.7751267"><ele>69.0</ele><time>2026-04-20T17:09:59.611Z</time></trkpt><trkpt lat="45.3495167" lon="9.7750817"><ele>69.0</ele><time>2026-04-20T17:10:01.611Z</time></trkpt><trkpt lat="45.3496067" lon="9.775035"><ele>69.0</ele><time>2026-04-20T17:10:03.611Z</time></trkpt><trkpt lat="45.3496967" lon="9.7749767"><ele>69.0</ele><time>2026-04-20T17:10:05.611Z</time></trkpt><trkpt lat="45.349805" lon="9.7749433"><ele>69.75</ele><time>2026-04-20T17:10:07.611Z</time></trkpt><trkpt lat="45.3499133" lon="9.77491"><ele>70.5</ele><time>2026-04-20T17:10:09.611Z</time></trkpt><trkpt lat="45.3500267" lon="9.7748767"><ele>71.25</ele><time>2026-04-20T17:10:11.611Z</time></trkpt><trkpt lat="45.3501383" lon="9.7748483"><ele>72.0</ele><time>2026-04-20T17:10:13.611Z</time></trkpt><trkpt lat="45.3502617" lon="9.774825"><ele>72.0</ele><time>2026-04-20T17:10:15.611Z</time></trkpt><trkpt lat="45.35038" lon="9.77479"><ele>72.0</ele><time>2026-04-20T17:10:17.611Z</time></trkpt><trkpt lat="45.3504433" lon="9.7747733"><ele>72.0</ele><time>2026-04-20T17:10:18.611Z</time></trkpt><trkpt lat="45.3505083" lon="9.7747567"><ele>72.0</ele><time>2026-04-20T17:10:19.611Z</time></trkpt><trkpt lat="45.3505767" lon="9.7747383"><ele>72.0</ele><time>2026-04-20T17:10:20.611Z</time></trkpt><trkpt lat="45.3506433" lon="9.7747217"><ele>72.0</ele><time>2026-04-20T17:10:21.612Z</time></trkpt><trkpt lat="45.3507117" lon="9.774705"><ele>71.83333333333333</ele><time>2026-04-20T17:10:22.611Z</time></trkpt><trkpt lat="45.35078" lon="9.7746917"><ele>71.66666666666667</ele><time>2026-04-20T17:10:23.612Z</time></trkpt><trkpt lat="45.3508467" lon="9.7746767"><ele>71.5</ele><time>2026-04-20T17:10:24.611Z</time></trkpt><trkpt lat="45.35091" lon="9.7746667"><ele>71.33333333333334</ele><time>2026-04-20T17:10:25.611Z</time></trkpt><trkpt lat="45.3509733" lon="9.7746517"><ele>71.16666666666667</ele><time>2026-04-20T17:10:26.611Z</time></trkpt><trkpt lat="45.3510967" lon="9.774625"><ele>71.0</ele><time>2026-04-20T17:10:28.611Z</time></trkpt><trkpt lat="45.3511667" lon="9.774615"><ele>71.0</ele><time>2026-04-20T17:10:29.611Z</time></trkpt><trkpt lat="45.35129" lon="9.7745867"><ele>71.0</ele><time>2026-04-20T17:10:31.611Z</time></trkpt><trkpt lat="45.3514133" lon="9.7745583"><ele>71.0</ele><time>2026-04-20T17:10:33.612Z</time></trkpt><trkpt lat="45.3515317" lon="9.7745333"><ele>71.0</ele><time>2026-04-20T17:10:35.611Z</time></trkpt><trkpt lat="45.3516417" lon="9.7745067"><ele>70.8</ele><time>2026-04-20T17:10:37.611Z</time></trkpt><trkpt lat="45.3517617" lon="9.7744767"><ele>70.6</ele><time>2026-04-20T17:10:39.612Z</time></trkpt><trkpt lat="45.351825" lon="9.7744633"><ele>70.4</ele><time>2026-04-20T17:10:40.611Z</time></trkpt><trkpt lat="45.35195" lon="9.7744367"><ele>70.2</ele><time>2026-04-20T17:10:42.611Z</time></trkpt><trkpt lat="45.352015" lon="9.77442"><ele>70.0</ele><time>2026-04-20T17:10:43.611Z</time></trkpt><trkpt lat="45.3521317" lon="9.7743917"><ele>70.0</ele><time>2026-04-20T17:10:45.611Z</time></trkpt><trkpt lat="45.3522433" lon="9.77437"><ele>70.0</ele><time>2026-04-20T17:10:47.611Z</time></trkpt><trkpt lat="45.3523733" lon="9.7743483"><ele>70.0</ele><time>2026-04-20T17:10:49.611Z</time></trkpt><trkpt lat="45.35244" lon="9.774335"><ele>70.0</ele><time>2026-04-20T17:10:50.612Z</time></trkpt><trkpt lat="45.3525083" lon="9.7743233"><ele>70.0</ele><time>2026-04-20T17:10:51.612Z</time></trkpt><trkpt lat="45.35263" lon="9.7743017"><ele>70.0</ele><time>2026-04-20T17:10:53.611Z</time></trkpt><trkpt lat="45.35275" lon="9.7742783"><ele>70.0</ele><time>2026-04-20T17:10:55.612Z</time></trkpt><trkpt lat="45.352815" lon="9.774265"><ele>70.0</ele><time>2026-04-20T17:10:56.611Z</time></trkpt><trkpt lat="45.352945" lon="9.7742333"><ele>70.0</ele><time>2026-04-20T17:10:58.611Z</time></trkpt><trkpt lat="45.3530083" lon="9.77422"><ele>70.0</ele><time>2026-04-20T17:10:59.611Z</time></trkpt><trkpt lat="45.353125" lon="9.7742083"><ele>70.2</ele><time>2026-04-20T17:11:01.611Z</time></trkpt><trkpt lat="45.35323" lon="9.77422"><ele>70.4</ele><time>2026-04-20T17:11:03.611Z</time></trkpt><trkpt lat="45.3533133" lon="9.7742917"><ele>70.6</ele><time>2026-04-20T17:11:05.611Z</time></trkpt><trkpt lat="45.3533717" lon="9.7744133"><ele>70.8</ele><time>2026-04-20T17:11:07.611Z</time></trkpt><trkpt lat="45.3534017" lon="9.7745267"><ele>71.0</ele><time>2026-04-20T17:11:09.612Z</time></trkpt><trkpt lat="45.353415" lon="9.7746433"><ele>71.0</ele><time>2026-04-20T17:11:11.611Z</time></trkpt><trkpt lat="45.3534417" lon="9.7747533"><ele>71.0</ele><time>2026-04-20T17:11:13.612Z</time></trkpt><trkpt lat="45.353515" lon="9.7747983"><ele>71.0</ele><time>2026-04-20T17:11:15.611Z</time></trkpt><trkpt lat="45.3536033" lon="9.7747983"><ele>71.0</ele><time>2026-04-20T17:11:17.611Z</time></trkpt><trkpt lat="45.35374" lon="9.7747783"><ele>71.0</ele><time>2026-04-20T17:11:20.611Z</time></trkpt><trkpt lat="45.3538333" lon="9.7747633"><ele>71.2</ele><time>2026-04-20T17:11:22.611Z</time></trkpt><trkpt lat="45.3539283" lon="9.774745"><ele>71.39999999999999</ele><time>2026-04-20T17:11:24.611Z</time></trkpt><trkpt lat="45.3540233" lon="9.7747183"><ele>71.6</ele><time>2026-04-20T17:11:26.611Z</time></trkpt><trkpt lat="45.354115" lon="9.774705"><ele>71.8</ele><time>2026-04-20T17:11:28.611Z</time></trkpt><trkpt lat="45.3542067" lon="9.7747083"><ele>72.0</ele><time>2026-04-20T17:11:30.611Z</time></trkpt><trkpt lat="45.3543" lon="9.774715"><ele>72.0</ele><time>2026-04-20T17:11:32.611Z</time></trkpt><trkpt lat="45.3544017" lon="9.7746967"><ele>72.0</ele><time>2026-04-20T17:11:34.612Z</time></trkpt><trkpt lat="45.3544917" lon="9.7746783"><ele>72.0</ele><time>2026-04-20T17:11:36.612Z</time></trkpt><trkpt lat="45.3545933" lon="9.7746683"><ele>72.0</ele><time>2026-04-20T17:11:38.611Z</time></trkpt><trkpt lat="45.3547" lon="9.7746533"><ele>72.0</ele><time>2026-04-20T17:11:40.611Z</time></trkpt><trkpt lat="45.3548067" lon="9.77465"><ele>71.8</ele><time>2026-04-20T17:11:42.611Z</time></trkpt><trkpt lat="45.354905" lon="9.7746383"><ele>71.6</ele><time>2026-04-20T17:11:44.611Z</time></trkpt><trkpt lat="45.3550117" lon="9.7746417"><ele>71.39999999999999</ele><time>2026-04-20T17:11:46.611Z</time></trkpt><trkpt lat="45.35512" lon="9.7746433"><ele>71.2</ele><time>2026-04-20T17:11:48.612Z</time></trkpt><trkpt lat="45.3552367" lon="9.77465"><ele>71.0</ele><time>2026-04-20T17:11:50.611Z</time></trkpt><trkpt lat="45.3553517" lon="9.77466"><ele>71.0</ele><time>2026-04-20T17:11:52.611Z</time></trkpt><trkpt lat="45.3554583" lon="9.7746633"><ele>71.0</ele><time>2026-04-20T17:11:54.611Z</time></trkpt><trkpt lat="45.35557" lon="9.7746733"><ele>71.0</ele><time>2026-04-20T17:11:56.612Z</time></trkpt><trkpt lat="45.355675" lon="9.77468"><ele>71.0</ele><time>2026-04-20T17:11:58.611Z</time></trkpt><trkpt lat="45.355785" lon="9.7746667"><ele>71.0</ele><time>2026-04-20T17:12:00.611Z</time></trkpt><trkpt lat="45.35589" lon="9.7746667"><ele>71.6</ele><time>2026-04-20T17:12:02.611Z</time></trkpt><trkpt lat="45.3559917" lon="9.7746583"><ele>72.19999999999999</ele><time>2026-04-20T17:12:04.611Z</time></trkpt><trkpt lat="45.3561017" lon="9.774655"><ele>72.80000000000001</ele><time>2026-04-20T17:12:06.611Z</time></trkpt><trkpt lat="45.3562133" lon="9.77465"><ele>73.4</ele><time>2026-04-20T17:12:08.611Z</time></trkpt><trkpt lat="45.356315" lon="9.77466"><ele>74.0</ele><time>2026-04-20T17:12:10.611Z</time></trkpt><trkpt lat="45.356405" lon="9.7746533"><ele>74.2</ele><time>2026-04-20T17:12:12.612Z</time></trkpt><trkpt lat="45.3564933" lon="9.774685"><ele>74.4</ele><time>2026-04-20T17:12:14.612Z</time></trkpt><trkpt lat="45.3565317" lon="9.7748133"><ele>74.6</ele><time>2026-04-20T17:12:16.612Z</time></trkpt><trkpt lat="45.356545" lon="9.774965"><ele>74.8</ele><time>2026-04-20T17:12:18.611Z</time></trkpt><trkpt lat="45.3565433" lon="9.7751017"><ele>75.0</ele><time>2026-04-20T17:12:20.611Z</time></trkpt><trkpt lat="45.3565233" lon="9.7752417"><ele>74.6</ele><time>2026-04-20T17:12:22.611Z</time></trkpt><trkpt lat="45.356505" lon="9.7753683"><ele>74.2</ele><time>2026-04-20T17:12:24.611Z</time></trkpt><trkpt lat="45.35648" lon="9.775515"><ele>73.8</ele><time>2026-04-20T17:12:26.611Z</time></trkpt><trkpt lat="45.3564517" lon="9.7756517"><ele>73.4</ele><time>2026-04-20T17:12:28.611Z</time></trkpt><trkpt lat="45.3564083" lon="9.77577"><ele>73.0</ele><time>2026-04-20T17:12:30.612Z</time></trkpt><trkpt lat="45.35637" lon="9.77589"><ele>73.0</ele><time>2026-04-20T17:12:32.611Z</time></trkpt><trkpt lat="45.35638" lon="9.7760133"><ele>73.0</ele><time>2026-04-20T17:12:34.611Z</time></trkpt><trkpt lat="45.3563683" lon="9.7761067"><ele>73.0</ele><time>2026-04-20T17:12:36.611Z</time></trkpt><trkpt lat="45.35633" lon="9.7762083"><ele>73.0</ele><time>2026-04-20T17:12:38.612Z</time></trkpt><trkpt lat="45.3562767" lon="9.7763083"><ele>73.0</ele><time>2026-04-20T17:12:40.611Z</time></trkpt><trkpt lat="45.356225" lon="9.7764167"><ele>73.0</ele><time>2026-04-20T17:12:42.612Z</time></trkpt><trkpt lat="45.3561683" lon="9.77653"><ele>73.0</ele><time>2026-04-20T17:12:44.611Z</time></trkpt><trkpt lat="45.356105" lon="9.77664"><ele>73.0</ele><time>2026-04-20T17:12:46.611Z</time></trkpt><trkpt lat="45.3560417" lon="9.7767583"><ele>73.0</ele><time>2026-04-20T17:12:48.611Z</time></trkpt><trkpt lat="45.3559783" lon="9.776885"><ele>73.0</ele><time>2026-04-20T17:12:50.611Z</time></trkpt><trkpt lat="45.355915" lon="9.7770083"><ele>73.0</ele><time>2026-04-20T17:12:52.611Z</time></trkpt><trkpt lat="45.3558467" lon="9.7771367"><ele>73.0</ele><time>2026-04-20T17:12:54.611Z</time></trkpt><trkpt lat="45.3557783" lon="9.777275"><ele>73.0</ele><time>2026-04-20T17:12:56.611Z</time></trkpt><trkpt lat="45.3557083" lon="9.7774033"><ele>73.0</ele><time>2026-04-20T17:12:58.611Z</time></trkpt><trkpt lat="45.355625" lon="9.7775333"><ele>73.0</ele><time>2026-04-20T17:13:00.611Z</time></trkpt><trkpt lat="45.355525" lon="9.7776117"><ele>73.0</ele><time>2026-04-20T17:13:02.611Z</time></trkpt><trkpt lat="45.3554233" lon="9.7776783"><ele>73.0</ele><time>2026-04-20T17:13:04.61Z</time></trkpt><trkpt lat="45.3553517" lon="9.7777867"><ele>73.0</ele><time>2026-04-20T17:13:06.61Z</time></trkpt><trkpt lat="45.3553417" lon="9.7779333"><ele>73.0</ele><time>2026-04-20T17:13:08.61Z</time></trkpt><trkpt lat="45.355375" lon="9.7780833"><ele>73.0</ele><time>2026-04-20T17:13:10.61Z</time></trkpt><trkpt lat="45.3553817" lon="9.7782283"><ele>73.0</ele><time>2026-04-20T17:13:12.61Z</time></trkpt><trkpt lat="45.355365" lon="9.7783917"><ele>73.0</ele><time>2026-04-20T17:13:14.61Z</time></trkpt><trkpt lat="45.3553517" lon="9.7785483"><ele>73.0</ele><time>2026-04-20T17:13:16.611Z</time></trkpt><trkpt lat="45.3553467" lon="9.7787083"><ele>73.0</ele><time>2026-04-20T17:13:18.61Z</time></trkpt><trkpt lat="45.3553583" lon="9.7788717"><ele>73.0</ele><time>2026-04-20T17:13:20.61Z</time></trkpt><trkpt lat="45.3553667" lon="9.7790233"><ele>73.0</ele><time>2026-04-20T17:13:22.611Z</time></trkpt><trkpt lat="45.35539" lon="9.7791767"><ele>73.0</ele><time>2026-04-20T17:13:24.611Z</time></trkpt><trkpt lat="45.3554117" lon="9.7793117"><ele>73.0</ele><time>2026-04-20T17:13:26.61Z</time></trkpt><trkpt lat="45.3554367" lon="9.7794367"><ele>73.0</ele><time>2026-04-20T17:13:28.61Z</time></trkpt><trkpt lat="45.3554717" lon="9.7795733"><ele>73.0</ele><time>2026-04-20T17:13:30.61Z</time></trkpt><trkpt lat="45.355485" lon="9.7797083"><ele>73.0</ele><time>2026-04-20T17:13:32.61Z</time></trkpt><trkpt lat="45.3555117" lon="9.779845"><ele>73.0</ele><time>2026-04-20T17:13:34.61Z</time></trkpt><trkpt lat="45.35553" lon="9.7799867"><ele>73.0</ele><time>2026-04-20T17:13:36.611Z</time></trkpt><trkpt lat="45.3555483" lon="9.7801"><ele>73.0</ele><time>2026-04-20T17:13:38.61Z</time></trkpt><trkpt lat="45.3555767" lon="9.78019"><ele>73.0</ele><time>2026-04-20T17:13:40.61Z</time></trkpt><trkpt lat="45.3555967" lon="9.780305"><ele>73.0</ele><time>2026-04-20T17:13:43.61Z</time></trkpt><trkpt lat="45.3556067" lon="9.7804067"><ele>73.0</ele><time>2026-04-20T17:13:45.61Z</time></trkpt><trkpt lat="45.3556333" lon="9.7805433"><ele>73.0</ele><time>2026-04-20T17:13:47.611Z</time></trkpt><trkpt lat="45.355675" lon="9.780695"><ele>73.0</ele><time>2026-04-20T17:13:49.611Z</time></trkpt><trkpt lat="45.355705" lon="9.780855"><ele>73.0</ele><time>2026-04-20T17:13:51.611Z</time></trkpt><trkpt lat="45.35573" lon="9.7810217"><ele>73.0</ele><time>2026-04-20T17:13:53.611Z</time></trkpt><trkpt lat="45.3557433" lon="9.7811967"><ele>73.0</ele><time>2026-04-20T17:13:55.61Z</time></trkpt><trkpt lat="45.3557517" lon="9.7812883"><ele>73.0</ele><time>2026-04-20T17:13:56.61Z</time></trkpt><trkpt lat="45.355775" lon="9.7813717"><ele>73.0</ele><time>2026-04-20T17:13:57.61Z</time></trkpt><trkpt lat="45.3557917" lon="9.7814617"><ele>73.0</ele><time>2026-04-20T17:13:58.61Z</time></trkpt><trkpt lat="45.3558" lon="9.7815517"><ele>73.0</ele><time>2026-04-20T17:13:59.61Z</time></trkpt><trkpt lat="45.3558167" lon="9.7817267"><ele>73.0</ele><time>2026-04-20T17:14:01.61Z</time></trkpt><trkpt lat="45.3558417" lon="9.7818933"><ele>73.0</ele><time>2026-04-20T17:14:03.61Z</time></trkpt><trkpt lat="45.3558633" lon="9.7820583"><ele>73.0</ele><time>2026-04-20T17:14:05.61Z</time></trkpt><trkpt lat="45.355885" lon="9.7822317"><ele>73.0</ele><time>2026-04-20T17:14:07.61Z</time></trkpt><trkpt lat="45.3559033" lon="9.7823967"><ele>73.0</ele><time>2026-04-20T17:14:09.61Z</time></trkpt><trkpt lat="45.355925" lon="9.7825683"><ele>73.0</ele><time>2026-04-20T17:14:11.61Z</time></trkpt><trkpt lat="45.3559383" lon="9.7827217"><ele>73.0</ele><time>2026-04-20T17:14:13.61Z</time></trkpt><trkpt lat="45.355955" lon="9.7828767"><ele>73.0</ele><time>2026-04-20T17:14:15.61Z</time></trkpt><trkpt lat="45.3559817" lon="9.783025"><ele>73.0</ele><time>2026-04-20T17:14:17.61Z</time></trkpt><trkpt lat="45.356025" lon="9.7831483"><ele>73.0</ele><time>2026-04-20T17:14:19.61Z</time></trkpt><trkpt lat="45.35612" lon="9.7831683"><ele>73.0</ele><time>2026-04-20T17:14:21.61Z</time></trkpt><trkpt lat="45.35623" lon="9.7831267"><ele>73.0</ele><time>2026-04-20T17:14:23.61Z</time></trkpt><trkpt lat="45.356345" lon="9.7830917"><ele>73.0</ele><time>2026-04-20T17:14:25.61Z</time></trkpt><trkpt lat="45.3564083" lon="9.78308"><ele>73.0</ele><time>2026-04-20T17:14:26.61Z</time></trkpt><trkpt lat="45.3564717" lon="9.7830767"><ele>73.0</ele><time>2026-04-20T17:14:27.61Z</time></trkpt><trkpt lat="45.3565933" lon="9.7830533"><ele>73.0</ele><time>2026-04-20T17:14:29.61Z</time></trkpt><trkpt lat="45.3567183" lon="9.7830317"><ele>73.0</ele><time>2026-04-20T17:14:31.611Z</time></trkpt><trkpt lat="45.3568433" lon="9.7830133"><ele>73.0</ele><time>2026-04-20T17:14:33.61Z</time></trkpt><trkpt lat="45.3569633" lon="9.7829917"><ele>73.0</ele><time>2026-04-20T17:14:35.61Z</time></trkpt><trkpt lat="45.3570633" lon="9.7829667"><ele>73.0</ele><time>2026-04-20T17:14:37.61Z</time></trkpt><trkpt lat="45.3571683" lon="9.78295"><ele>73.0</ele><time>2026-04-20T17:14:39.61Z</time></trkpt><trkpt lat="45.3572667" lon="9.7829417"><ele>73.0</ele><time>2026-04-20T17:14:41.61Z</time></trkpt><trkpt lat="45.357355" lon="9.78293"><ele>73.0</ele><time>2026-04-20T17:14:43.61Z</time></trkpt><trkpt lat="45.3574383" lon="9.782925"><ele>74.0</ele><time>2026-04-20T17:14:45.61Z</time></trkpt><trkpt lat="45.357495" lon="9.7829717"><ele>74.0</ele><time>2026-04-20T17:14:47.61Z</time></trkpt><trkpt lat="45.3576233" lon="9.7829883"><ele>74.0</ele><time>2026-04-20T17:14:49.013Z</time></trkpt><trkpt lat="45.3574983" lon="9.7830217"><ele>74.0</ele><time>2026-04-20T17:14:50.116Z</time></trkpt><trkpt lat="45.3574983" lon="9.7830217"><ele>74.0</ele><time>2026-04-20T17:14:50.116Z</time></trkpt></trkseg></trk></gpx>